     2              OBSERVATION DATA    GPS                 RINEX VERSION / TYPE
teqc 1999Jul19 19991123 03:14:56UTC                         PGM / RUN BY / DATE
                                                            COMMENT
Original Marker Name: ANDE                                  COMMENT
Campaign Name: HPGN 1991                                    COMMENT
4-Character Station Name: ANDE                              COMMENT
6-Character Antenna Code: TRMSST                            COMMENT
Vertical Measurement Point: TGP                             COMMENT
Vertical Offset to Rinex Ref. Point: 0.0629                 COMMENT
Radial Measurement Point: OGP                               COMMENT
Radial Offset to Rinex Ref. Point: 0.2413                   COMMENT
Antenna Height from Field Measurement: 1.7000 m             COMMENT
                                                            COMMENT
Original XYZ: -2597762.6970 -4110740.8918 4113669.8308      COMMENT
New XYZ position is based on association with SCEC monument COMMENT
E1O6K6S6+0011. Position of that monument is believed to be  COMMENT
valid to within 1 m horizontally; vertical accuracy         COMMENT
should be no worse than 3-times this value.                 COMMENT
                                                            COMMENT
Revised Rinex header created by UCSD GPS archive for        COMMENT
GSAC on 10-Mar-2000 (2000:070) 17:32:48 GMT                 COMMENT
For assistance contact dagnew@ucsd.edu or hjohnson@ucsd.edu COMMENT
                                                            COMMENT
ANDERSON                                                    MARKER NAME
ANDE                                                        MARKER NUMBER
-Unknown- CALIF DEPT TRANSPORTATION                         OBSERVER / AGENCY
282 TRIMBLE 4000 SST NP 4.30 / SP 4.20                      REC # / TYPE / VERS
136 TR 4000SST L1/L2 GEO                                    ANT # / TYPE
 -2597760.9431 -4110737.8035  4113671.5966                  APPROX POSITION XYZ
        1.6199        0.0000        0.0000                  ANTENNA: DELTA H/E/N
     1     1     0                                          WAVELENGTH FACT L1/2
     5    C1    L1    L2    S1    S2                        # / TYPES OF OBSERV
     0                                                      INTERVAL
  1991     7    11     1    37   15.000000                  TIME OF FIRST OBS
  1991     7    11     7    39   60.000000                  TIME OF LAST OBS
                                                            END OF HEADER
 91  7 11  1 37 15.0000000  0  4G 3G16G17G20
  20703938.617          -0.34717        -0.07733        24.750           2.531
  22324440.680          -0.54217        -0.06632        20.500           1.563
  21088360.008          -0.32817        -0.26033        22.750           2.969
  22985035.352          -0.43116        -0.00831        14.750           0.875
 91  7 11  1 37 30.0000000  0  4G 3G16G17G20
  20700419.625      -18505.794 7    -14419.90022        25.500           2.375
  22329762.008       27965.403 6     21791.56722        19.750           1.531
  21083095.391      -27660.100 7    -21553.31723        22.500           2.844
  22993937.625       46782.621 6     36454.28321        14.250           0.719
 91  7 11  1 37 45.0000000  0  4G 3G16G17G20
  20696901.102      -36996.261 7    -28828.05122        25.750           2.406
  22335095.273       55978.860 6     43620.22422        19.750           1.625
  21077837.180      -55298.984 7    -43090.09823        23.000           3.031
  23002839.641       93559.558 6     72903.80021        14.500           0.844
 91  7 11  1 38  0.0000000  0  4G 3G16G17G20
  20693387.719      -55454.889 7    -43211.38623        25.000           2.500
  22340436.953       84056.276 6     65498.70522        19.250           1.563
  21072584.938      -82900.306 7    -64597.61423        23.250           3.125
  23011745.336      140346.421 6    109361.06521        14.500           0.813
 91  7 11  1 38 15.0000000  0  4G 3G16G17G20
  20689881.391      -73876.032 7    -57565.51823        25.000           2.531
  22345792.039      112202.462 6     87430.77222        18.750           1.500
  21067340.328     -110458.822 7    -86071.76623        23.500           3.125
  23020648.281      187148.498 6    145830.17921        14.000           0.719
 91  7 11  1 38 30.0000000  0  4G 3G16G17G20
  20686383.555      -92255.747 7    -71887.36523        25.250           2.531
  22351160.641      140420.902 6    109419.14321        18.750           1.469
  21062104.938     -137970.616 7   -107509.51223        23.000           3.094
  23029559.742      233968.954 6    182313.61621        14.750           0.656
 91  7 11  1 38 45.0000000  0  4G 3G16G17G20
  20682894.953     -110590.335 7    -86174.05023        25.250           2.531
  22356546.977      168715.019 6    131466.49722        19.000           1.563
  21056880.203     -165432.169 7   -128908.10123        23.250           3.219
  23038472.609      280811.085 6    218813.95421        14.500           0.563
 91  7 11  1 39  0.0000000  0  4G 3G16G17G20
  20679415.820     -128872.043 7   -100419.53222        25.000           2.469
  22361947.672      197092.102 6    153578.48721        19.500           1.438
  21051664.453     -192835.832 7   -150261.59623        22.750           3.094
  23047391.586      327682.087 6    255336.78621        13.750           0.656
 91  7 11  1 39 15.0000000  0  4G 3G16G17G20
  20675946.617     -147102.984 7   -114625.45323        25.250           2.563
  22367363.352      225549.096 7    175752.75122        20.000           1.625
  21046461.125     -220184.129 7   -171571.94723        23.500           3.219
  23056315.984      374579.325 6    291880.05821        12.750           0.625
 91  7 11  1 39 30.0000000  0  4G 3G16G17G20
  20672486.891     -165281.894 7   -128790.83222        24.500           2.438
  22372789.336      254087.083 6    197990.13022        19.750           1.844
  21041267.023     -247475.685 7   -192838.08223        24.000           3.188
  23065246.375      421503.433 6    328444.25421        13.000           0.719
 91  7 11  1 39 45.0000000  0  4G 3G16G17G20
  20669039.703     -183405.199 7   -142912.88523        25.250           2.531
  22378239.164      282709.378 7    220293.19822        20.500           1.813
  21036083.813     -274707.250 7   -214057.47623        23.000           3.156
  23074183.117      468457.464 6    365031.77821        13.000           0.688
 91  7 11  1 40  0.0000000  0  4G 3G16G17G20
  20665600.344     -201478.489 7   -156995.95823        24.750           2.625
  22383701.352      311409.693 7    242657.05222        20.500           1.969
  21030914.836     -301884.627 7   -235234.64123        23.750           3.156
  23083122.133      515435.249 6    401637.80921        13.250           0.625
 91  7 11  1 40 15.0000000  0  4G 3G16G17G20
  20662171.398     -219497.051 7   -171036.39823        24.500           2.594
  22389177.086      340192.072 7    265084.85522        20.500           1.813
  21025752.039     -329003.585 7   -256366.28523        23.250           3.125
  23092066.383      562440.809 6    438265.47121        13.750           0.750
 91  7 11  1 40 30.0000000  0  4G 3G16G17G20
  20658754.719     -237459.313 7   -185032.96223        25.250           2.656
  22394672.008      369057.840 7    287577.64122        20.500           1.719
  21020601.461     -356062.629 7   -277451.23523        22.250           3.063
  23101017.508      609475.208 6    474915.62021        14.500           0.719
 91  7 11  1 40 45.0000000  0  4G 3G16G17G20
  20655346.945     -255363.182 7   -198984.01723        25.000           2.656
  22400180.781      398008.477 7    310136.56122        20.000           1.719
  21015464.211     -383059.608 7   -298487.82823        22.500           3.094
  23109973.406      656540.135 6    511589.55221        15.250           0.750
 91  7 11  1 41  0.0000000  0  4G 3G16G17G20
  20651948.633     -273212.716 7   -212892.73523        25.000           2.594
  22405703.281      427039.346 6    332757.98522        19.500           1.656
  21010341.078     -409999.096 7   -319479.62623        23.750           3.125
  23118933.211      703630.735 6    548283.48121        15.000           0.656
 91  7 11  1 41 15.0000000  0  4G 3G16G17G20
  20648564.352     -291000.140 7   -226753.05723        24.500           2.563
  22411243.820      456157.943 6    355447.78422        19.000           1.750
  21005225.438     -436873.373 7   -340420.61523        23.750           3.156
  23127902.375      750754.417 6    585003.19321        15.750           0.625
 91  7 11  1 41 30.0000000  0  4G 3G16G17G20
  20645188.289     -308731.421 7   -240569.63523        23.750           2.625
  22416800.063      485357.575 6    378200.72222        19.250           1.531
  21000123.547     -463688.666 7   -361315.63723        24.250           3.063
  23136875.430      797904.607 6    621743.57021        15.500           0.688
 91  7 11  1 41 45.0000000  0  4G 3G16G17G20
  20641826.133     -326406.431 7   -254342.36723        24.250           2.500
  22422372.875      514637.826 6    401016.48422        19.500           1.594
  20995033.656     -490445.016 7   -382164.72623        24.250           3.094
  23145850.820      845080.897 6    658504.27221        14.750           0.656
 91  7 11  1 42  0.0000000  0  4G 3G16G17G20
  20638474.367     -344020.656 7   -268067.73423        24.500           2.656
  22427961.305      544002.834 6    423898.29322        19.750           1.563
  20989953.289     -517138.172 7   -402964.57723        23.250           3.031
  23154834.328      892287.174 6    695288.34021        14.750           0.594
 91  7 11  1 42 15.0000000  0  4G 3G16G17G20
  20635134.352     -361574.298 7   -281745.88823        24.750           2.719
  22433566.781      573452.061 6    446845.73222        19.750           1.531
  20984884.695     -543768.445 7   -423715.43023        23.000           2.906
  23163822.516      939522.439 6    732095.00421        14.500           0.656
 91  7 11  1 42 30.0000000  0  4G 3G16G17G20
  20631806.891     -379065.980 7   -295375.75823        24.750           2.719
  22439184.883      602986.487 6    469859.54322        19.500           1.500
  20979828.375     -570334.483 7   -444416.22623        22.750           2.906
  23172816.672      986787.929 6    768925.21521        13.750           0.781
 91  7 11  1 42 45.0000000  0  4G 3G16G17G20
  20628489.711     -396501.776 7   -308962.08723        25.500           2.656
  22444824.117      632599.210 7    492934.36622        20.000           1.594
  20974783.367     -596842.898 7   -465072.13223        22.500           2.938
  23181814.461     1034076.552 6    805773.44421        13.000           0.750
 91  7 11  1 43  0.0000000  0  4G 3G16G17G20
  20625182.539     -413878.513 7   -322502.39523        25.750           2.750
  22450472.313      662292.752 7    516072.16122        20.000           1.625
  20969750.430     -623290.685 7   -485680.79123        22.750           2.781
  23190817.594     1081391.231 6    842641.98621        13.000           0.750
 91  7 11  1 43 15.0000000  0  4G 3G16G17G20
  20621886.398     -431198.159 7   -335998.21823        25.750           2.750
  22456137.375      692065.081 7    539271.34822        20.000           1.625
  20964730.117     -649679.714 7   -506243.66423        23.000           2.750
  23199827.531     1128729.540 6    879528.94121        13.000           0.781
 91  7 11  1 43 30.0000000  0  4G 3G16G17G20
  20618601.711     -448456.583 7   -349446.33223        25.250           2.750
  22461819.563      721919.371 7    562534.41222        20.250           1.531
  20959720.938     -676006.429 7   -526757.97623        23.250           2.844
  23208842.781     1176094.675 6    916436.79621        13.500           0.813
 91  7 11  1 43 45.0000000  0  4G 3G16G17G20
  20615328.883     -465658.740 7   -362850.60723        25.500           2.594
  22467515.570      751850.452 6    585857.31621        19.750           1.438
  20954722.875     -702275.779 7   -547227.59323        23.500           2.844
  23217857.328     1223481.132 6    953361.27121        12.250           0.750
 91  7 11  1 44  0.0000000  0  4G 3G16G17G20
  20612065.391     -482801.649 7   -376208.71623        26.000           2.531
  22473221.414      781860.839 6    609242.01422        18.750           1.500
  20949734.219     -728485.197 7   -567650.50923        23.250           2.875
  23226880.789     1270891.442 6    990304.31721        12.000           0.750
 91  7 11  1 44 15.0000000  0  4G 3G16G17G20
  20608815.438     -499883.875 7   -389519.53522        25.250           2.469
  22478947.961      811951.329 6    632689.12621        18.000           1.469
  20944759.258     -754633.333 7   -588025.66423        23.750           2.875
  23235907.625     1318326.677 6   1027266.78921        12.500           0.688
 91  7 11  1 44 30.0000000  0  4G 3G16G17G20
  20605576.922     -516903.415 7   -402781.50823        25.000           2.500
  22484690.430      842123.407 6    656199.80922        18.250           1.500
  20939795.000     -780718.388 7   -608351.67523        24.000           2.844
  23244940.086     1365787.953 6   1064249.55421        13.000           0.750
 91  7 11  1 44 45.0000000  0  4G 3G16G17G20
  20602348.836     -533864.969 7   -415998.30522        24.750           2.469
  22490450.219      872371.531 6    679769.75821        19.250           1.438
  20934841.031     -806745.202 7   -628632.30823        23.000           2.844
  23253973.086     1413270.015 6   1101248.52221        12.250           0.781
 91  7 11  1 45  0.0000000  0  4G 3G16G17G20
  20599134.000     -550765.056 7   -429167.20222        25.750           2.375
  22496219.094      902699.164 6    703401.65821        19.250           1.375
  20929899.227     -832710.564 7   -648865.05123        22.750           2.875
  23263013.539     1460776.107 6   1138266.19321        12.000           0.750
 91  7 11  1 45 15.0000000  0  5G 3G16G17G20G23
  20595929.680     -567606.374 7   -442290.30322        26.250           2.406
  22502007.523      933103.353 6    727093.21221        19.250           1.406
  20924969.547     -858617.499 7   -669052.27323        22.750           2.938
  23272059.758     1508302.763 5   1175299.90221        11.750           0.813
  24037522.203          -0.47613                         5.750
 91  7 11  1 45 30.0000000  0  5G 3G16G17G20G23
  20592734.164     -584389.078 7   -455367.72322        26.000           2.406
  22507805.063      963583.124 6    750843.65921        18.500           1.375
  20920051.609     -884466.469 7   -689194.32023        23.000           2.969
  23281103.477     1555849.111 5   1212348.95221        11.250           0.750
  24026115.703      -59968.578 3                         6.000
 91  7 11  1 45 45.0000000  0  5G 3G16G17G20G23
  20589553.047     -601110.366 7   -468397.29722        26.750           2.375
  22513617.836      994140.800 6    774654.81521        17.750           1.344
  20915144.203     -910254.655 7   -709289.00323        22.750           2.875
  23290154.836     1603417.419 5   1249415.11721        10.750           0.625
  24014704.555     -119922.939 4                         6.500
 91  7 11  1 46  0.0000000  0  5G 3G16G17G20G23
  20586382.172     -617768.364 7   -481377.55323        25.750           2.531
  22519449.297     1024777.775 6    798527.76021        18.500           1.344
  20910249.164     -935980.223 7   -729334.90223        23.250           3.000
  23299212.648     1651009.097 5   1286499.49021        11.250           0.594
  24003300.961     -179861.669 5                         7.500
 91  7 11  1 46 15.0000000  0  5G 3G16G17G20G23
  20583224.672     -634366.741 7   -494311.34923        26.000           2.563
  22525294.078     1055489.539 6    822458.99021        18.250           1.344
  20905366.492     -961647.087 7   -749335.04123        23.250           2.938
  23308276.383     1698619.988 6   1323598.84221        12.250           0.656
  23991897.219     -239788.248 4                         7.250
 91  7 11  1 46 30.0000000  0  5G 3G16G17G20G23
  20580079.031     -650896.752 7   -507191.88323        26.250           2.563
  22531157.664     1086284.490 6    846455.03521        19.250           1.219
  20900494.086     -987246.897 7   -769282.93823        22.500           3.031
  23317343.398     1746258.113 6   1360719.42121        13.000           0.594
  23980496.375     -299694.142 4        -0.15031         7.250           0.188
 91  7 11  1 46 45.0000000  0  5G 3G16G17G20G23
  20576946.852     -667364.565 7   -520023.93823        26.250           2.594
  22537032.453     1117156.270 6    870510.94121        19.500           1.250
  20895634.258    -1012786.027 7   -789183.55723        22.250           3.063
  23326412.453     1793916.850 6   1397856.05921        13.500           0.594
  23969097.930     -359585.291 5    -46668.52221         7.500           0.344
 91  7 11  1 47  0.0000000  0  5G 3G16G17G20G23
  20573823.125     -683774.432 7   -532810.84723        25.750           2.531
  22542918.273     1148100.035 6    894622.94521        19.500           1.375
  20890783.781    -1038268.759 7   -809040.21723        22.000           3.188
  23335486.266     1841591.453 6   1435005.05421        14.250           0.594
  23957703.789     -419465.640 4    -93328.48321         7.000           0.250
 91  7 11  1 47 15.0000000  0  5G 3G16G17G20G23
  20570713.734     -700119.103 7   -545546.95623        26.250           2.500
  22548821.797     1179122.248 6    918796.07821        19.500           1.469
  20885946.758    -1063688.277 7   -828847.63423        22.000           3.156
  23344560.219     1889288.366 6   1472171.42221        14.000           0.750
  23946308.109     -479328.167 4   -139974.55221         6.500           0.219
 91  7 11  1 47 30.0000000  0  5G 3G16G17G20G23
  20567612.891     -716402.103 7   -558235.00823        25.250           2.594
  22554739.703     1210218.940 6    943027.24421        19.750           1.469
  20881119.719    -1089048.317 7   -848608.69623        22.500           3.281
  23353638.859     1937003.573 6   1509352.04321        14.000           0.625
  23934921.102     -539176.289 4   -186609.37821         6.500           0.375
 91  7 11  1 47 45.0000000  0  5G 3G16G17G20G23
  20564526.234     -732623.159 7   -570874.79223        24.750           2.625
  22560670.016     1241390.051 6    967316.39422        19.750           1.500
  20876305.820    -1114348.785 7   -868323.34023        23.250           3.313
  23362723.898     1984736.850 6   1546546.74221        13.000           0.594
  23923537.336     -599009.583 4   -233232.66921         7.000           0.281
 91  7 11  1 48  0.0000000  0  5G 3G16G17G20G23
  20561451.141     -748782.048 7   -583466.12923        24.750           2.563
  22566615.859     1272635.307 6    991663.33121        19.500           1.438
  20871504.109    -1139589.742 7   -887991.60823        24.250           3.438
  23371807.680     2032487.668 6   1583755.10921        12.000           0.656
  23912153.336     -658827.712 4   -279844.17121         6.500           0.313
 91  7 11  1 48 15.0000000  0  5G 3G16G17G20G23
  20558387.422     -764883.446 7   -596012.66923        25.000           2.563
  22572574.586     1303949.383 6   1016063.89621        19.250           1.313
  20866711.547    -1164775.915 7   -907617.18523        24.250           3.438
  23380895.867     2080251.019 6   1620973.22921        12.000           0.563
  23900773.695     -718635.457 4   -326447.51721         6.500           0.313
 91  7 11  1 48 30.0000000  0  5G 3G16G17G20G23
  20555334.445     -780923.820 7   -608511.66423        24.750           2.688
  22578546.656     1335335.382 6   1040520.50621        18.500           1.281
  20861930.555    -1189904.102 7   -927197.57624        25.000           3.500
  23389988.516     2128029.691 6   1658203.30721        12.250           0.719
  23889395.539     -778429.084 4   -373039.91021         6.500           0.375
 91  7 11  1 48 45.0000000  0  5G 3G16G17G20G23
  20552294.422     -796902.006 7   -620962.20523        25.500           2.688
  22584534.750     1366793.603 6   1065033.39821        18.750           1.375
  20857160.633    -1214973.369 7   -946732.07223        24.750           3.344
  23399083.391     2175824.377 6   1695445.87021        12.500           0.625
  23878019.234     -838207.543 4   -419620.44221         6.250           0.469
 91  7 11  1 49  0.0000000  0  5G 3G16G17G20G23
  20549267.078     -812818.372 7   -633364.57123        26.250           2.875
  22590534.133     1398323.669 6   1089602.25522        18.500           1.531
  20852399.609    -1239983.869 7   -966220.76223        23.750           3.344
  23408182.484     2223634.411 6   1732700.39021        13.000           0.625
  23866643.469     -897970.876 3   -466189.18821         6.000           0.438
 91  7 11  1 49 15.0000000  0  5G 3G16G17G20G23
  20546251.359     -828668.358 7   -645715.21523        26.750           3.000
  22596547.859     1429929.706 6   1114230.30922        18.250           1.625
  20847652.453    -1264931.465 7   -985660.44623        22.750           3.281
  23417282.758     2271463.438 6   1769969.72921        12.750           0.688
  23855277.313     -957714.604 4   -512742.68121         6.500           0.406
 91  7 11  1 49 30.0000000  0  5G 3G16G17G20G23
  20543246.836     -844453.146 7   -658015.04623        26.250           3.000
  22602577.719     1461609.582 6   1138915.89422        18.500           1.656
  20842913.922    -1289817.958 7  -1005052.51523        22.250           3.219
  23426389.031     2319309.540 6   1807252.36821        13.250           0.563
  23843911.055    -1017439.837 4   -559281.76821         7.000           0.281
 91  7 11  1 49 45.0000000  0  5G 3G16G17G20G23
  20540254.781     -860174.654 7   -670265.57323        25.250           2.906
  22608620.273     1493360.797 6   1163657.07722        18.500           1.594
  20838189.766    -1314645.517 7  -1024398.66023        22.500           3.094
  23435498.391     2367170.402 6   1844546.49421        13.500           0.688
  23832550.516    -1077148.337 5   -605807.79721         7.750           0.438
 91  7 11  1 50  0.0000000  0  5G 3G16G17G20G23
  20537275.992     -875831.022 7   -682465.34523        25.000           2.906
  22614676.906     1525184.864 6   1188455.03222        18.250           1.563
  20833477.297    -1339411.949 7  -1043697.17023        23.000           3.188
  23444608.289     2415047.261 6   1881853.09521        13.250           0.844
  23821193.648    -1136838.303 5   -652319.41721         8.250           0.406
 91  7 11  1 50 15.0000000  0  5G 3G16G17G20G23
  20534310.469     -891421.857 7   -694614.04323        25.250           2.813
  22620745.461     1557081.777 6   1213309.75122        17.250           1.594
  20828776.859    -1364117.254 7  -1062948.04823        24.000           3.094
  23453722.320     2462940.271 6   1919172.27821        14.000           0.875
  23809838.594    -1196509.216 5   -698816.16921         8.500           0.406
 91  7 11  1 50 30.0000000  0  5G 3G16G17G20G23
  20531354.117     -906947.507 7   -706711.95723        25.250           2.719
  22626828.805     1589050.681 6   1238220.56722        17.000           1.719
  20824086.773    -1388761.895 7  -1082151.65623        23.750           3.188
  23462840.477     2510848.361 6   1956503.21621        13.750           0.875
  23798487.875    -1256161.326 5   -745298.26621         8.250           0.375
 91  7 11  1 50 45.0000000  0  5G 3G16G17G20G23
  20528412.406     -922408.519 7   -718759.49623        25.250           2.813
  22632924.445     1621090.451 6   1263186.59922        17.000           1.656
  20819409.398    -1413347.087 7  -1101308.94523        24.250           3.125
  23471958.789     2558770.255 6   1993844.89521        13.250           0.875
  23787139.031    -1315795.141 5   -791766.11721         8.000           0.406
 91  7 11  1 51  0.0000000  0  5G 3G16G17G20G23
  20525481.500     -937804.208 7   -730756.14423        25.250           2.656
  22639036.438     1653201.345 6   1288208.05722        17.000           1.688
  20814742.695    -1437872.119 7  -1120419.34923        24.000           3.250
  23481081.336     2606706.158 6   2031197.49221        12.750           0.719
  23775792.500    -1375410.003 5   -838219.21221         8.250           0.281
 91  7 11  1 51 15.0000000  0  5G 3G16G17G20G23
  20522565.508     -953134.059 7   -742701.47623        26.000           2.625
  22645160.664     1685383.297 6   1313284.87922        17.500           1.688
  20810087.188    -1462336.557 7  -1139482.54723        23.250           3.219
  23490204.031     2654656.085 6   2068561.01521        12.250           0.688
  23764449.664    -1435005.230 5   -884657.00921         8.250           0.375
 91  7 11  1 51 30.0000000  0  5G 3G16G17G20G23
  20519658.961     -968397.385 7   -754594.98523        25.250           2.500
  22651299.875     1717636.428 6   1338417.17222        18.250           1.750
  20805443.625    -1486740.089 7  -1158498.27923        23.500           3.156
  23499330.398     2702620.180 5   2105935.58121        11.750           0.594
  23753113.305    -1494580.015 5   -931078.87621         8.000           0.313
 91  7 11  1 51 45.0000000  0  5G 3G16G17G20G23
  20516768.719     -983597.562 7   -766439.27523        26.500           2.625
  22657448.211     1749957.097 6   1363602.08922        17.750           1.750
  20800809.570    -1511086.384 7  -1177469.41523        23.250           3.125
  23508460.398     2750594.338 6   2143317.98921        12.000           0.719
  23741781.453    -1554137.645 5   -977487.36921         8.500           0.219
 91  7 11  1 52  0.0000000  0  5G 3G16G17G20G23
  20513886.484     -998734.493 7   -778234.28923        25.500           2.719
  22663613.609     1782344.614 6   1388839.09022        17.500           1.781
  20796190.500    -1535375.494 7  -1196395.98323        23.750           3.094
  23517590.773     2798578.102 5   2180707.89821        11.750           0.656
  23730454.914    -1613678.100 5  -1023882.46621         8.750           0.188
 91  7 11  1 52 15.0000000  0  5G 3G16G17G20G23
  20511019.461    -1013808.199 7   -789980.03523        26.250           2.625
  22669788.266     1814798.382 6   1414127.70022        17.500           1.813
  20791577.547    -1559607.329 7  -1215277.92123        23.250           3.125
  23526720.938     2846571.030 5   2218104.93221        11.750           0.594
  23719124.844    -1673201.312 5  -1070264.15821         8.500           0.344
 91  7 11  1 52 30.0000000  0  5G 3G16G17G20G23
  20508163.883    -1028815.046 7   -801673.68623        26.250           2.625
  22675973.992     1847321.611 6   1439470.44922        17.000           1.656
  20786979.602    -1583778.836 7  -1234112.85023        23.750           3.188
  23535857.852     2894576.050 5   2255511.39021        11.750           0.500
  23707802.531    -1732703.603 5  -1116629.52021         8.000           0.344
 91  7 11  1 52 45.0000000  0  5G 3G16G17G20G23
  20505322.375    -1043752.840 7   -813313.52923        26.250           2.719
  22682180.344     1879916.143 6   1464868.75822        17.500           1.656
  20782390.813    -1607887.738 7  -1252898.99723        23.000           3.219
  23544993.492     2942594.975 5   2292928.69221        11.750           0.563
  23696483.766    -1792182.535 5  -1162976.68821         7.750           0.250
 91  7 11  1 53  0.0000000  0  5G 3G16G17G20G23
  20502491.781    -1058625.550 7   -824902.65523        26.500           2.781
  22688393.711     1912577.257 6   1490318.95522        17.250           1.594
  20777812.305    -1631938.517 7  -1271639.86823        22.250           3.313
  23554135.898     2990623.135 6   2330353.18921        12.500           0.500
  23685166.188    -1851642.405 5  -1209309.01721         7.750           0.313
 91  7 11  1 53 15.0000000  0  5G 3G16G17G20G23
  20499673.500    -1073428.203 7   -836437.19423        26.250           2.750
  22694622.164     1945309.533 6   1515824.60622        17.250           1.656
  20773247.563    -1655926.325 7  -1290331.65823        22.250           3.313
  23563280.711     3038664.822 6   2367788.21721        13.250           0.469
  23673860.094    -1911077.925 5  -1255622.34421         8.500           0.219
 91  7 11  1 53 30.0000000  0  5G 3G16G17G20G23
  20496872.109    -1088161.978 7   -847918.07023        27.000           2.813
  22700866.484     1978111.228 6   1541384.34922        17.750           1.594
  20768695.000    -1679852.707 7  -1308975.58523        22.500           3.344
  23572422.617     3086718.275 6   2405232.43221        12.750           0.438
  23662552.891    -1970490.144 5  -1301917.56521         8.250           0.375
 91  7 11  1 53 45.0000000  0  5G 3G16G17G20G23
  20494081.383    -1102829.918 7   -859347.63423        26.750           2.750
  22707119.563     2010979.018 6   1566995.58222        17.500           1.500
  20764152.297    -1703720.662 7  -1327573.98423        23.000           3.344
  23581570.398     3134780.285 6   2442683.30621        12.500           0.406
  23651250.617    -2029881.756 5  -1348196.68121         7.750           0.313
 91  7 11  1 54  0.0000000  0  5G 3G16G17G20G23
  20491301.539    -1117430.158 7   -870724.44723        25.500           2.750
  22713386.922     2043914.066 6   1592659.23121        17.500           1.469
  20759623.938    -1727528.619 7  -1346125.62123        24.500           3.344
  23590720.039     3182851.895 6   2480141.64721        12.250           0.313
  23639949.188    -2089251.048 5  -1394458.42621         7.500           0.313
 91  7 11  1 54 15.0000000  0  5G 3G16G17G20G23
  20488535.789    -1131963.442 7   -882049.09523        25.750           2.625
  22719666.617     2076915.090 6   1618374.28121        17.250           1.469
  20755102.844    -1751277.523 7  -1364631.25423        24.000           3.188
  23599867.109     3230931.818 5   2517606.48821        11.750           0.313
  23628660.078    -2148598.774 5  -1440703.36421         7.750           0.406
 91  7 11  1 54 30.0000000  0  5G 3G16G17G20G23
  20485783.641    -1146430.969 7   -893322.49823        26.500           2.656
  22725957.344     2109980.274 6   1644139.33722        17.000           1.500
  20750594.438    -1774968.873 7  -1383092.04423        24.000           3.219
  23609016.008     3279018.202 5   2555076.33821        11.500           0.500
  23617369.250    -2207926.267 4  -1486932.51621         7.250           0.375
 91  7 11  1 54 45.0000000  0  5G 3G16G17G20G23
  20483043.070    -1160831.891 7   -904543.99822        25.250           2.438
  22732262.656     2143110.135 6   1669954.78821        17.500           1.406
  20746097.320    -1798601.982 7  -1401507.44923        24.500           3.250
  23618171.086     3327111.573 5   2592551.64321        11.750           0.500
  23606082.406    -2267232.316 4  -1533144.97521         6.750           0.313
 91  7 11  1 55  0.0000000  0  5G 3G16G17G20G23
  20480315.297    -1175166.199 7   -915713.59122        24.750           2.469
  22738577.945     2176304.048 6   1695820.15421        17.000           1.344
  20741610.461    -1822177.169 7  -1419877.71823        24.500           3.156
  23627319.266     3375211.274 5   2630031.89721        11.500           0.500
  23594798.523    -2326517.058 4  -1579340.82321         6.250           0.344
 91  7 11  1 55 15.0000000  0  5G 3G16G17G20G23
  20477600.586    -1189435.245 7   -926832.33122        25.000           2.438
  22744906.805     2209560.228 6   1721734.03621        17.000           1.281
  20737134.656    -1845695.944 7  -1438204.03423        24.500           3.125
  23636473.406     3423315.280 5   2667515.50121        11.000           0.406
  23583519.938    -2385781.609 4  -1625520.93121         6.250           0.281
 91  7 11  1 55 30.0000000  0  5G 3G16G17G20G23
  20474896.203    -1203634.817 7   -937896.93223        24.250           2.500
  22751247.023     2242882.549 6   1747699.46521        17.750           1.125
  20732670.930    -1869154.011 7  -1456483.04423        24.500           3.188
  23645632.375     3471427.271 5   2705005.29721        11.500           0.469
  23572246.813    -2445021.536 4  -1671681.87521         6.250           0.313
 91  7 11  1 55 45.0000000  0  5G 3G16G17G20G23
  20472208.109    -1217765.879 7   -948908.15222        24.750           2.469
  22757602.313     2276269.193 6   1773715.00721        18.250           1.156
  20728218.313    -1892552.774 7  -1474715.84023        23.750           3.031
  23654788.344     3519545.632 5   2742500.07821        10.750           0.500
  23560982.094    -2504238.211 4  -1717824.68721         6.250           0.250
 91  7 11  1 56  0.0000000  0  5G 3G16G17G20G23
  20469532.172    -1231830.408 7   -959867.52122        25.500           2.438
  22763968.422     2309717.824 6   1799778.85521        18.750           1.125
  20723777.664    -1915894.455 7  -1492904.15423        23.750           3.063
  23663946.727     3567668.078 5   2779998.03921        10.500           0.594
  23549723.695    -2563433.365 3  -1763950.70821         6.000           0.281
 91  7 11  1 56 15.0000000  0  5G 3G16G17G20G23
  20466869.539    -1245822.905 7   -970770.77122        25.750           2.406
  22770344.039     2343233.484 6   1825894.93021        18.750           1.156
  20719347.539    -1939173.645 7  -1511043.79423        24.750           3.125
  23673104.625     3615799.540 5   2817503.01321        10.500           0.469
  23538459.023    -2622601.219 3  -1810055.48421         6.000           0.344
 91  7 11  1 56 30.0000000  0  5G 3G16G17G20G23
  20464219.195    -1259749.145 7   -981622.38822        25.500           2.469
  22776737.023     2376809.916 6   1852058.36621        18.750           1.219
  20714929.711    -1962396.376 7  -1529139.42223        25.000           3.063
  23682264.523     3663933.698 5   2855010.10321        10.000           0.438
  23527206.070    -2681747.433 4  -1856143.37721         6.500           0.344
 91  7 11  1 56 45.0000000  0  5G 3G16G17G20G23
  20461581.234    -1273608.449 7   -992421.84322        26.250           2.438
  22783137.289     2410446.972 6   1878269.03321        18.250           1.156
  20710520.984    -1985562.508 7  -1547190.94623        24.500           3.250
  23691424.945     3712070.345 5   2892519.12821        10.000           0.406
  23515949.117    -2740871.738 4  -1902214.22221         7.000           0.313
 91  7 11  1 57  0.0000000  0  5G 3G16G17G20G23
  20458958.625    -1287396.116 7  -1003165.48023        26.750           2.500
  22789549.375     2444149.097 6   1904530.40521        17.500           1.156
  20706124.758    -2008667.449 7  -1565194.79423        24.500           3.313
  23700587.797     3760213.749 5   2930033.41521         9.750           0.406
  23504702.609    -2799969.042 4  -1948264.03321         6.500           0.313
 91  7 11  1 57 15.0000000  0  5G 3G16G17G20G23
  20456347.953    -1301113.650 7  -1013854.46123        26.750           2.500
  22795974.266     2477914.054 6   1930840.73921        16.750           1.094
  20701739.961    -2031713.007 7  -1583152.36423        24.500           3.375
  23709746.992     3808361.645 5   2967551.19021         9.500           0.469
  23493463.250    -2859040.900 4  -1994294.02721         6.750           0.438
 91  7 11  1 57 30.0000000  0  5G 3G16G17G20G23
  20453749.750    -1314763.795 7  -1024490.94123        26.000           2.594
  22802410.719     2511738.766 6   1957197.63321        17.000           1.094
  20697364.242    -2054701.770 7  -1601065.68224        24.500           3.500
  23718910.766     3856511.099 5   3005070.19821        10.000           0.344
  23482223.797    -2918089.904 4  -2040306.18321         6.750           0.375
 91  7 11  1 57 45.0000000  0  5G 3G16G17G20G23
  20451165.805    -1328344.825 7  -1035073.55723        25.500           2.531
  22808859.070     2545624.548 6   1983602.11621        17.000           1.063
  20693001.406    -2077632.522 7  -1618933.78824        24.500           3.656
  23728075.789     3904663.175 5   3042591.23621        10.250           0.281
  23470992.703    -2977114.196 4  -2086299.09721         7.250           0.281
 91  7 11  1 58  0.0000000  0  5G 3G16G17G20G23
  20448595.469    -1341849.942 7  -1045597.02422        26.000           2.469
  22815320.258     2579577.650 6   2010059.05421        18.000           1.219
  20688647.617    -2100498.657 7  -1636751.56124        23.000           3.563
  23737237.906     3952823.970 5   3080119.08021         9.500           0.313
  23459769.031    -3036107.145 5  -2132267.61221         7.750           0.406
 91  7 11  1 58 15.0000000  0  5G 3G16G17G20G23
  20446039.328    -1355282.484 7  -1056063.94023        25.000           2.594
  22821794.047     2613594.139 6   2036565.38121        18.250           1.250
  20684308.914    -2123303.738 7  -1654521.75324        23.500           3.719
  23746402.539     4000989.504 5   3117650.63021         9.500           0.188
  23448545.648    -3095071.953 4  -2178214.17921         7.250           0.406
 91  7 11  1 58 30.0000000  0  5G 3G16G17G20G23
  20443495.531    -1368646.394 7  -1066477.37422        24.250           2.438
  22828275.602     2647669.799 6   2063117.82221        17.500           1.156
  20679981.563    -2146051.535 7  -1672247.30324        24.750           3.781
  23755566.633     4049155.660 5   3155182.63421         9.000           0.281
  23437329.148    -3154012.311 4  -2224141.67321         7.250           0.344
 91  7 11  1 58 45.0000000  0  5G 3G16G17G20G23
  20440966.953    -1381939.389 7  -1076835.54722        24.500           2.375
  22834773.258     2681806.293 6   2089717.66221        17.500           1.063
  20675662.289    -2168740.165 7  -1689926.74924        23.750           3.656
  23764731.023     4097323.830 5   3192716.22121         8.000           0.250
  23426120.195    -3212925.938 5  -2270048.35821         7.500           0.313
 91  7 11  1 59  0.0000000  0  5G 3G16G17G20G23
  20438452.102    -1395158.713 7  -1087136.31522        25.250           2.313
  22841281.422     2716005.713 6   2116366.54021        17.000           1.063
  20671355.625    -2191367.240 7  -1707558.24024        23.750           3.844
  23773895.281     4145496.412 5   3230253.24621         8.000           0.219
  23414914.359    -3271810.179 5  -2315932.15621         7.750           0.406
 91  7 11  1 59 15.0000000  0  5G 3G16G17G20G23
  20435949.570    -1408308.824 7  -1097383.15622        24.750           2.219
  22847800.203     2750263.097 6   2143060.58221        17.250           0.969
  20667062.367    -2213937.550 7  -1725145.48824        24.250           3.531
  23783066.820     4193668.405 5   3267789.80821         9.000           0.281
  23403713.828    -3330669.263 5  -2361796.35321         8.250           0.344
 91  7 11  1 59 30.0000000  0  5G 3G16G17G20G23
  20433459.477    -1421388.279 7  -1107574.93022        24.750           2.250
  22854330.883     2784579.149 6   2169800.34621        17.500           1.000
  20662776.477    -2236449.652 7  -1742687.39224        23.250           3.500
  23792237.117     4241840.533 5   3305326.47421         9.500           0.188
  23392522.398    -3389501.825 5  -2407639.86221         9.250           0.250
 91  7 11  1 59 45.0000000  0  5G 3G16G17G20G23
  20430983.633    -1434394.452 7  -1117709.60822        25.000           2.344
  22860874.102     2818956.556 6   2196587.91221        16.750           0.969
  20658506.703    -2258901.070 7  -1760181.99723        23.750           3.375
  23801406.320     4290015.129 5   3342865.06121         9.750           0.219
  23381333.391    -3448304.833 5  -2453460.36521         9.000           0.250
 91  7 11  2  0  0.0000000  0  5G 3G16G17G20G23
  20428522.602    -1447329.344 7  -1127788.74322        25.500           2.344
  22867426.891     2853392.215 6   2223420.86021        15.750           1.031
  20654245.625    -2281294.346 7  -1777631.29824        24.500           3.531
  23810573.906     4338189.260 5   3380403.28021        10.500           0.250
  23370147.914    -3507080.507 5  -2499259.55421         8.250           0.531
 91  7 11  2  0 15.0000000  0  5G 3G16G17G20G23
  20426076.016    -1460191.707 7  -1137811.35623        26.000           2.531
  22873990.477     2887887.226 6   2250300.05621        15.000           1.125
  20649995.250    -2303628.167 7  -1795034.27523        24.250           3.344
  23819739.898     4386363.940 5   3417941.92521        10.750           0.188
  23358968.352    -3565827.457 5  -2545036.32921         8.250           0.469
 91  7 11  2  0 30.0000000  0  5G 3G16G17G20G23
  20423642.102    -1472981.828 7  -1147777.67723        25.750           2.531
  22880564.531     2922440.722 6   2277224.83321        14.250           1.094
  20645756.766    -2325903.155 7  -1812391.41023        25.000           3.406
  23828908.055     4434538.279 5   3455480.31121        11.750           0.250
  23347800.039    -3624546.046 5  -2590791.03221         8.750           0.500
 91  7 11  2  0 45.0000000  0  5G 3G16G17G20G23
  20421223.758    -1485694.280 7  -1157683.48322        26.000           2.406
  22887153.609     2957057.681 6   2304199.05021        14.250           0.969
  20641529.055    -2348114.114 7  -1829698.64723        24.750           3.438
  23838077.430     4482717.008 5   3493022.13121        11.500           0.250
  23336631.656    -3683230.548 5  -2636519.16621         8.500           0.531
 91  7 11  2  1  0.0000000  0  5G 3G16G17G20G23
  20418818.188    -1498335.832 7  -1167534.03923        26.750           2.594
  22893751.703     2991730.690 6   2331216.94921        14.500           0.938
  20637312.242    -2370267.762 7  -1846961.23023        23.250           3.469
  23847241.477     4530892.781 5   3530561.64221        11.250           0.219
  23325461.086    -3741887.786 5  -2682226.06021         8.250           0.531
 91  7 11  2  1 15.0000000  0  5G 3G16G17G20G23
  20416425.180    -1510906.937 7  -1177329.70823        26.500           2.531
  22900359.078     3026458.516 6   2358277.55821        14.500           1.031
  20633109.141    -2392364.978 7  -1864179.83424        22.750           3.531
  23856409.500     4579064.633 5   3568098.08821        11.000           0.250
  23314305.789    -3800518.163 5  -2727912.02221         8.500           0.531
 91  7 11  2  1 30.0000000  0  5G 3G16G17G20G23
  20414047.453    -1523404.860 7  -1187068.34523        26.750           2.594
  22906979.266     3061243.872 6   2385382.99421        14.750           0.938
  20628914.688    -2414403.237 7  -1881352.50023        23.000           3.469
  23865572.391     4627234.793 5   3605633.23121        10.000           0.156
  23303158.508    -3859118.889 5  -2773574.88221         9.250           0.500
 91  7 11  2  1 45.0000000  0  5G 3G16G17G20G23
  20411682.328    -1535830.562 7  -1196750.70523        26.250           2.625
  22913609.695     3096085.178 6   2412532.03321        14.750           0.906
  20624732.555    -2436383.866 7  -1898480.26724        23.000           3.563
  23874737.992     4675401.694 5   3643165.85021         9.750           0.156
  23292013.125    -3917690.863 5  -2819215.33421        10.250           0.531
 91  7 11  2  2  0.0000000  0  5G 3G16G17G20G23
  20409333.063    -1548182.302 7  -1206375.43623        26.000           2.500
  22920250.922     3130983.859 6   2439725.78121        14.750           0.875
  20620558.242    -2458305.089 7  -1915561.73524        22.500           3.594
  23883905.430     4723566.745 5   3680697.01221         9.750           0.156
  23280874.102    -3976232.124 5  -2864831.86621        11.000           0.438
 91  7 11  2  2 15.0000000  0  5G 3G16G17G20G23
  20406995.875    -1560460.860 7  -1215943.13723        26.750           2.531
  22926903.148     3165938.148 6   2466962.86721        14.500           1.000
  20616397.570    -2480168.191 7  -1932597.92224        22.500           3.500
  23893069.305     4771728.308 5   3718225.40821         9.250           0.188
  23269735.820    -4034743.650 5  -2910425.23721        11.000           0.406
 91  7 11  2  2 30.0000000  0  5G 3G16G17G20G23
  20404673.289    -1572666.754 7  -1225454.21523        27.000           2.531
  22933563.547     3200947.068 6   2494242.51121        14.000           0.781
  20612251.148    -2501973.868 7  -1949589.35824        23.000           3.625
  23902235.672     4819885.447 5   3755750.42921         8.500           0.219
  23258605.750    -4093225.849 5  -2955995.75521        11.500           0.469
 91  7 11  2  2 45.0000000  0  5G 3G16G17G20G23
  20402364.508    -1584798.685 7  -1234907.66722        26.500           2.375
  22940236.422     3236011.697 6   2521565.56921        14.000           0.781
  20608112.094    -2523720.780 7  -1966534.99623        23.000           3.438
  23911395.883     4868039.214 5   3793272.79921         8.500           0.250
  23247486.719    -4151677.142 6  -3001542.19921        12.250           0.594
 91  7 11  2  3  0.0000000  0  5G 3G16G17G20G23
  20400071.539    -1596854.093 7  -1244301.47922        26.500           2.438
  22946919.359     3271133.582 6   2548933.23721        13.750           0.719
  20603983.555    -2545407.270 7  -1983433.55623        23.000           3.313
  23920561.273     4916191.042 5   3830793.63621         8.750           0.219
  23236371.258    -4210095.447 6  -3047062.91921        12.500           0.531
 91  7 11  2  3 15.0000000  0  5G 3G16G17G20G23
  20397790.219    -1608834.329 7  -1253636.72023        26.250           2.500
  22953615.164     3306311.542 6   2576344.59821        14.250           0.719
  20599868.859    -2567034.057 7  -2000285.59423        22.250           3.281
  23929727.570     4964339.600 5   3868311.90121         9.250           0.125
  23225259.289    -4268481.388 6  -3092558.42121        12.000           0.563
 91  7 11  2  3 30.0000000  0  5G 3G16G17G20G23
  20395524.875    -1620741.435 7  -1262914.97623        26.250           2.594
  22960317.570     3341542.853 6   2603797.54921        14.250           0.750
  20595767.047    -2588603.514 7  -2017092.94823        23.000           3.188
  23938886.266     5012482.014 5   3905825.44821         9.000           0.156
  23214155.375    -4326837.088 5  -3138030.34321        11.500           0.625
 91  7 11  2  3 45.0000000  0  5G 3G16G17G20G23
  20393273.516    -1632573.480 7  -1272134.74523        26.500           2.625
  22967033.602     3376828.590 6   2631292.90021        13.750           0.656
  20591670.969    -2610114.381 7  -2033854.66023        22.250           3.188
  23948045.781     5060619.573 5   3943335.18621         9.000           0.156
  23203054.758    -4385160.859 5  -3183477.38021        11.750           0.625
 91  7 11  2  4  0.0000000  0  5G 3G16G17G20G23
  20391036.906    -1644328.738 7  -1281294.68323        26.250           2.563
  22973757.531     3412169.976 6   2658831.60521        13.500           0.750
  20587589.516    -2631564.902 7  -2050569.35523        23.250           3.250
  23957202.945     5108753.490 5   3980842.06721         8.750           0.125
  23191962.195    -4443450.732 5  -3228898.02321        11.750           0.594
 91  7 11  2  4 15.0000000  0  5G 3G16G17G20G23
  20388814.023    -1656008.605 7  -1290395.87823        26.500           2.719
  22980494.063     3447565.354 6   2686412.38421        13.250           0.781
  20583520.086    -2652956.484 7  -2067238.11823        23.250           3.031
  23966368.055     5156881.951 5   4018344.69421         8.750           0.094
  23180877.773    -4501707.947 6  -3274293.18921        12.000           0.781
 91  7 11  2  4 30.0000000  0  5G 3G16G17G20G23
  20386605.383    -1667608.031 7  -1299434.39023        25.750           2.625
  22987235.500     3483019.234 6   2714038.75021        13.000           0.719
  20579461.844    -2674284.446 7  -2083857.29723        23.750           3.094
  23975524.633     5205009.331 5   4055846.49721         8.750           0.156
  23169798.844    -4559927.474 6  -3319659.01821        12.750           0.781
 91  7 11  2  4 45.0000000  0  5G 3G16G17G20G23
  20384413.617    -1679133.552 7  -1308415.31423        26.000           2.625
  22993995.188     3518524.506 6   2741705.15721        13.000           0.656
  20575412.633    -2695555.373 7  -2100432.04923        23.500           3.031
  23984680.703     5253128.870 5   4093342.17421         8.750           0.156
  23158725.766    -4618115.680 6  -3365000.42621        12.500           0.781
 91  7 11  2  5  0.0000000  0  5G 3G16G17G20G23
  20382234.016    -1690585.116 7  -1317338.61023        25.750           2.719
  23000764.875     3554080.593 6   2769411.17721        13.750           0.656
  20571377.969    -2716770.071 7  -2116962.98423        24.250           3.125
  23993840.789     5301239.614 5   4130830.99421         9.250           0.094
  23147659.625    -4676272.675 6  -3410317.50421        12.750           0.688
 91  7 11  2  5 15.0000000  0  5G 3G16G17G20G23
  20380068.984    -1701959.662 7  -1326201.89623        25.750           2.563
  23007540.180     3589689.907 6   2797158.66421        13.750           0.719
  20567349.984    -2737925.364 7  -2133447.62323        24.000           3.188
  24002991.641     5349344.026 5   4168314.93621         8.750           0.125
  23136597.570    -4734395.354 6  -3455607.84921        12.250           0.688
 91  7 11  2  5 30.0000000  0  5G 3G16G17G20G23
  20377920.422    -1713255.907 7  -1335004.16823        25.500           2.531
  23014324.445     3625353.786 6   2824948.66721        13.000           0.719
  20563335.570    -2759019.894 7  -2149884.91823        24.750           3.313
  24012144.664     5397443.200 5   4205794.69721         8.000           0.125
  23125546.039    -4792482.141 6  -3500870.21221        12.500           0.813
 91  7 11  2  5 45.0000000  0  5G 3G16G17G20G23
  20375784.813    -1724474.051 7  -1343745.57823        25.750           2.594
  23021122.742     3661071.274 6   2852780.42921        13.250           0.688
  20559335.047    -2780054.288 7  -2166275.33923        24.750           3.313
  24021298.578     5445536.266 5   4243269.72921         8.000           0.094
  23114497.617    -4850533.087 6  -3546104.66721        12.750           0.781
 91  7 11  2  6  0.0000000  0  5G 3G16G17G20G23
  20373664.875    -1735617.937 7  -1352429.12222        25.500           2.469
  23027929.555     3696837.924 6   2880650.51521        13.250           0.656
  20555341.875    -2801032.585 7  -2182622.06823        24.750           3.313
  24030448.102     5493618.756 5   4280736.55921         8.500           0.063
  23103456.844    -4908552.282 6  -3591314.39521        13.000           0.813
 91  7 11  2  6 15.0000000  0  5G 3G16G17G20G23
  20371560.648    -1746680.922 7  -1361049.63523        25.750           2.594
  23034747.094     3732660.089 6   2908563.85521        14.000           0.719
  20551361.992    -2821948.330 7  -2198920.05223        24.750           3.375
  24039593.867     5541696.927 5   4318200.03121         8.000           0.125
  23092423.516    -4966532.859 6  -3636494.02021        13.500           0.750
 91  7 11  2  6 30.0000000  0  5G 3G16G17G20G23
  20369466.984    -1757666.648 7  -1369609.93822        24.000           2.469
  23041573.813     3768533.432 6   2936517.07921        13.500           0.719
  20547395.148    -2842805.432 7  -2215172.33623        25.500           3.219
  24048738.430     5589766.485 5   4355656.73321         7.500           0.188
  23081396.563    -5024478.412 6  -3681646.35021        13.500           0.875
 91  7 11  2  6 45.0000000  0  5G 3G16G17G20G23
  20367391.820    -1768573.474 7  -1378108.76022        24.500           2.469
  23048408.297     3804459.475 6   2964511.36421        13.250           0.563
  20543434.383    -2863602.468 7  -2231377.81823        25.000           3.281
  24057883.063     5637828.681 4   4393107.73821         6.750           0.125
  23070377.781    -5082387.066 6  -3726769.92821        14.000           0.875
 91  7 11  2  7  0.0000000  0  5G 3G16G17G20G23
  20365331.664    -1779407.207 7  -1386550.63322        25.750           2.406
  23055256.391     3840431.632 6   2992541.58721        13.000           0.594
  20539489.633    -2884345.552 7  -2247541.25723        25.000           3.281
  24067027.930     5685876.918 4   4430547.85521         7.000           0.250
  23059363.844    -5140264.782 6  -3771869.40721        14.000           0.906
 91  7 11  2  7 15.0000000  0  5G 3G16G17G20G23
  20363286.133    -1790160.379 7  -1394929.72522        25.750           2.375
  23062108.992     3876456.709 6   3020613.04421        12.500           0.563
  20535551.375    -2905027.110 7  -2263656.74423        24.000           3.250
  24076169.836     5733918.283 4   4467982.65921         7.000           0.188
  23048357.641    -5198104.028 6  -3816938.90321        14.000           1.000
 91  7 11  2  7 30.0000000  0  5G 3G16G17G20G23
  20361254.445    -1800836.041 7  -1403248.42722        26.250           2.250
  23068973.195     3912530.911 5   3048722.78221        11.750           0.594
  20531629.211    -2925650.569 7  -2279726.96223        24.250           3.313
  24085306.984     5781949.012 4   4505409.12321         6.500           0.094
  23037355.445    -5255907.901 6  -3861980.82521        13.750           0.875
 91  7 11  2  7 45.0000000  0  5G 3G16G17G20G23
  20359236.852    -1811436.024 7  -1411508.15422        25.750           2.219
  23075845.625     3948652.426 5   3076869.38321        11.750           0.656
  20527712.000    -2946217.828 7  -2295753.40223        23.500           3.344
  24094445.281     5829967.005 4   4542825.67221         6.750           0.250
  23026363.883    -5313677.752 6  -3906996.24121        14.250           0.906
 91  7 11  2  8  0.0000000  0  5G 3G16G17G20G23
  20357234.086    -1821959.516 7  -1419708.28222        25.750           2.250
  23082729.242     3984821.700 5   3105053.19321        11.750           0.656
  20523811.813    -2966728.551 7  -2311735.77823        24.750           3.344
  24103585.586     5877972.621 4   4580232.57521         7.250           0.156
  23015375.867    -5371412.870 6  -3951984.60421        13.500           1.000
 91  7 11  2  8 15.0000000  0  5G 3G16G17G20G23
  20355247.508    -1832402.352 7  -1427845.55422        26.000           2.156
  23089622.352     4021041.934 5   3133276.72321        11.750           0.750
  20519919.117    -2987178.975 7  -2327671.16823        24.750           3.406
  24112713.070     5925969.093 4   4617632.38321         7.000           0.313
  23004395.773    -5429109.490 6  -3996942.95921        13.000           0.844
 91  7 11  2  8 30.0000000  0  5G 3G16G17G20G23
  20353276.359    -1842765.291 7  -1435920.56622        26.750           2.250
  23096527.773     4057312.033 6   3161539.09421        12.250           0.750
  20516040.039    -3007569.696 7  -2343560.04323        24.500           3.406
  24121843.820     5973955.147 4   4655024.03121         7.000           0.031
  22993425.953    -5486767.804 6  -4041871.46921        13.000           0.844
 91  7 11  2  8 45.0000000  0  5G 3G16G17G20G23
  20351318.531    -1853048.584 7  -1443933.53122        25.750           2.188
  23103437.391     4093631.137 6   3189839.65521        12.250           0.688
  20512170.313    -3027901.155 7  -2359402.73823        25.250           3.375
  24130978.797     6021930.021 5   4692407.02821         7.750           0.156
  22982461.875    -5544388.168 6  -4086770.41921        13.500           0.781
 91  7 11  2  9  0.0000000  0  5G 3G16G17G20G23
  20349377.359    -1863250.642 7  -1451883.18722        26.250           2.219
  23110355.648     4130000.433 6   3218179.32621        12.000           0.594
  20508314.172    -3048172.015 7  -2375198.21323        26.000           3.469
  24140107.352     6069894.991 5   4729782.27121         7.750           0.219
  22971504.828    -5601968.763 6  -4131638.38321        13.250           0.719
 91  7 11  2  9 15.0000000  0  5G 3G16G17G20G23
  20347451.422    -1873372.607 7  -1459770.43022        25.750           2.344
  23117286.547     4166418.392 6   3246556.91221        12.000           0.625
  20504467.281    -3068383.809 7  -2390947.65823        26.750           3.250
  24149233.180     6117848.365 5   4767148.47021         8.000           0.156
  22960551.898    -5659511.014 6  -4176476.47321        12.250           0.688
 91  7 11  2  9 30.0000000  0  5G 3G16G17G20G23
  20345538.906    -1883410.642 7  -1467592.28622        25.500           2.375
  23124225.492     4202888.012 6   3274974.76021        12.750           0.750
  20500634.211    -3088533.096 7  -2406648.39623        26.750           3.313
  24158357.719     6165793.297 5   4804508.12821         8.000           0.094
  22949611.086    -5717010.603 5  -4221281.30821        11.250           0.781
 91  7 11  2  9 45.0000000  0  5G 3G16G17G20G23
  20343645.023    -1893370.481 7  -1475353.19722        25.250           2.406
  23131174.672     4239403.240 6   3303428.14621        12.750           0.719
  20496808.781    -3108625.457 7  -2422304.77523        26.250           3.406
  24167477.164     6213723.565 4   4841856.32121         7.250           0.125
  22938676.430    -5774473.296 5  -4266057.38621        11.250           0.781
 91  7 11  2 10  0.0000000  0  5G 3G16G17G20G23
  20341765.414    -1903253.601 7  -1483054.33722        26.000           2.469
  23138134.227     4275962.051 6   3331915.48421        13.250           0.719
  20492995.375    -3128662.712 7  -2437918.22023        25.000           3.344
  24176590.625     6261637.191 4   4879191.58021         7.000           0.031
  22927746.305    -5831900.691 5  -4310805.96721        11.000           0.844
 91  7 11  2 10 15.0000000  0  5G 3G16G17G20G23
  20339900.203    -1913053.271 7  -1490690.44923        26.000           2.500
  23145098.719     4312570.511 6   3360441.51921        13.250           0.750
  20489194.398    -3148638.475 7  -2453483.73823        25.250           3.438
  24185711.438     6309540.395 4   4916518.66921         7.250           0.188
  22916825.125    -5889285.981 5  -4355521.73121        11.250           0.906
 91  7 11  2 10 30.0000000  0  5G 3G16G17G20G23
  20338051.961    -1922768.908 7  -1498261.08023        25.750           2.531
  23152075.625     4349228.975 6   3389006.51521        12.500           0.750
  20485405.281    -3168552.041 7  -2469000.79724        26.000           3.656
  24194821.547     6357433.333 4   4953837.79321         6.500           0.125
  22905914.781    -5946628.336 5  -4400204.04221        11.500           0.781
 91  7 11  2 10 45.0000000  0  5G 3G16G17G20G23
  20336217.688    -1932399.174 7  -1505765.19123        25.750           2.563
  23159058.688     4385938.343 6   3417611.17821        12.250           0.688
  20481627.734    -3188402.599 7  -2484468.76624        25.250           3.625
  24203937.391     6405316.561 4   4991149.31521         6.750           0.031
  22895011.680    -6003926.549 6  -4444851.96921        12.250           0.781
 91  7 11  2 11  0.0000000  0  5G 3G16G17G20G23
  20334401.953    -1941945.325 7  -1513203.75023        25.500           2.531
  23166055.500     4422697.067 6   3446254.29621        12.750           0.719
  20477863.039    -3208191.362 7  -2499888.57324        26.000           3.688
  24213051.211     6453188.559 4   5028452.09821         6.750           0.094
  22884118.352    -6061181.706 6  -4489466.33421        12.500           0.781
 91  7 11  2 11 15.0000000  0  5G 3G16G17G20G23
  20332599.398    -1951413.872 7  -1520581.84623        25.000           2.531
  23173060.070     4459497.587 6   3474929.98921        13.500           0.594
  20474105.570    -3227925.101 7  -2515265.50624        25.000           3.750
  24222152.508     6501042.121 4   5065740.50821         6.250           0.063
  22873228.445    -6118400.513 6  -4534052.38421        13.250           0.906
 91  7 11  2 11 30.0000000  0  5G 3G16G17G20G23
  20330813.523    -1960802.534 7  -1527897.68323        25.250           2.563
  23180070.930     4496341.855 6   3503639.77721        13.500           0.688
  20470362.969    -3247601.776 7  -2530597.97224        25.000           3.781
  24231253.477     6548879.015 3                         5.750
  22862347.781    -6175580.480 6  -4578608.16521        13.750           0.938
 91  7 11  2 11 45.0000000  0  5G 3G16G17G20G23
  20329041.273    -1970106.965 7  -1535147.88423        24.500           2.500
  23187091.477     4533233.907 6   3532386.79421        13.250           0.656
  20466630.422    -3267217.018 7  -2545882.57124        25.250           3.719
  24240355.742     6596703.143 3                         5.750
  22851474.680    -6232716.761 6  -4623129.90221        14.000           0.875
 91  7 11  2 12  0.0000000  0  5G 3G16G17G20G23
  20327286.492    -1979331.477 7  -1542335.81822        24.750           2.469
  23194120.336     4570168.572 6   3561167.01821        13.250           0.531
  20462907.438    -3286775.887 7  -2561123.23924        24.750           3.719
  24249452.742     6644509.505 3                         5.750
  22840609.438    -6289814.155 6  -4667621.34921        13.250           0.875
 91  7 11  2 12 15.0000000  0  5G 3G16G17G20G23
  20325546.742    -1988475.565 7  -1549461.08722        25.500           2.406
  23201157.016     4607146.233 6   3589980.73921        13.500           0.656
  20459196.211    -3306277.790 7  -2576319.52324        24.500           3.625
  24258540.508     6692298.008 3                         5.000
  22829749.883    -6346871.861 6  -4712081.85221        12.750           0.938
 91  7 11  2 12 30.0000000  0  5G 3G16G17G20G23
  20323823.250    -1997534.753 7  -1556520.19722        25.750           2.406
  23208202.516     4644170.666 6   3618830.91221        13.250           0.594
  20455499.086    -3325718.567 7  -2591468.16524        25.500           3.656
  24267632.633     6740072.583 2        -0.22831         4.500           0.031
  22818901.258    -6403885.356 6  -4756507.91321        12.750           0.906
 91  7 11  2 12 45.0000000  0  5G 3G16G17G20G23
  20322116.359    -2006506.497 7  -1563511.16222        25.750           2.469
  23215256.172     4681244.064 6   3647719.24221        13.000           0.688
  20451810.930    -3345095.673 7  -2606567.21024        25.500           3.563
  24276727.906     6787835.617 2     37217.59221         4.750           0.125
  22808059.398    -6460851.766 6  -4800897.28921        13.000           0.875
 91  7 11  2 13  0.0000000  0  5G 3G16G17G20G23
  20320425.867    -2015393.703 7  -1570436.26622        26.250           2.375
  23222318.570     4718362.809 6   3676642.90621        12.750           0.563
  20448132.945    -3364412.429 7  -2621619.22224        24.750           3.625
  24285812.547     6835583.364 3     74423.58121         5.000           0.063
  22797227.570    -6517774.398 6  -4845252.55121        13.500           1.031
 91  7 11  2 13 15.0000000  0  5G 3G16G17G20G23
  20318750.703    -2024198.813 7  -1577297.39922        26.000           2.344
  23229393.211     4755524.263 6   3705599.85021        13.000           0.656
  20444470.797    -3383671.526 7  -2636626.30624        25.000           3.500
  24294898.383     6883312.922 2    111615.41721         4.750           0.125
  22786405.680    -6574655.352 6  -4889575.34621        14.250           0.938
 91  7 11  2 13 30.0000000  0  4G 3G16G17G23
  20317090.234    -2032923.558 7  -1584095.90122        26.000           2.219
  23236472.414     4792726.329 6   3734588.43521        13.500           0.656
  20440814.891    -3402874.549 7  -2651589.69024        23.500           3.563
  22775592.781    -6631496.115 6  -4933866.81221        15.500           1.031
 91  7 11  2 13 45.0000000  0  4G 3G16G17G23
  20315445.836    -2041559.801 7  -1590825.44022        26.250           2.219
  23243562.078     4829976.154 6   3763614.22021        13.500           0.750
  20437173.344    -3422014.096 7  -2666503.61824        24.000           3.531
  22764785.914    -6688288.930 6  -4978120.92121        16.000           1.063
 91  7 11  2 14  0.0000000  0  4G 3G16G17G23
  20313818.375    -2050115.191 7  -1597491.98222        25.750           2.250
  23250656.703     4867265.774 6   3792671.02021        13.000           0.625
  20433540.555    -3441097.933 7  -2681374.13723        24.250           3.469
  22753986.359    -6745041.299 6  -5022343.51121        15.750           1.063
 91  7 11  2 14 15.0000000  0  4G 3G16G17G23
  20312205.289    -2058590.260 7  -1604095.93322        25.500           2.313
  23257759.078     4904594.464 6   3821758.26021        13.250           0.500
  20429919.992    -3460126.303 7  -2696201.43124        24.500           3.563
  22743191.109    -6801753.523 6  -5066534.82921        14.500           1.031
 91  7 11  2 14 30.0000000  0  4G 3G16G17G23
  20310611.477    -2066971.895 7  -1610627.08222        25.500           2.375
  23264868.383     4941974.325 6   3850885.39121        12.500           0.500
  20426311.633    -3479086.791 7  -2710975.82623        24.750           3.375
  22732411.586    -6858412.555 6  -5110684.68221        15.000           1.000
 91  7 11  2 14 45.0000000  0  4G 3G16G17G23
  20309031.641    -2075269.000 7  -1617092.36022        24.750           2.469
  23271991.406     4979396.067 6   3880045.15121        12.000           0.531
  20422715.352    -3497988.533 7  -2725704.44623        24.750           3.469
  22721636.117    -6915027.008 6  -5154799.81621        15.750           1.000
 91  7 11  2 14 59.9990000  0  4G 3G16G17G23
  20307468.331    -2083486.368 7  -1623495.50622        24.750           2.469
  23279118.487     5016851.489 5   3909231.14921        11.750           0.656
  20419128.690    -3516835.402 7  -2740390.30923        25.250           3.469
  22710868.597    -6971598.605 6  -5198881.56321        14.500           1.125
 91  7 11  2 15 14.9990000  0  4G 3G16G17G23
  20305921.284    -2091616.015 7  -1629830.29823        24.750           2.500
  23286252.886     5054354.086 5   3938453.91621        11.250           0.469
  20415554.417    -3535621.339 7  -2755028.68824        25.000           3.500
  22700110.698    -7028125.875 6  -5242928.75321        14.250           1.031
 91  7 11  2 15 29.9990000  0  4G 3G16G17G23
  20304390.198    -2099656.465 7  -1636095.58823        25.000           2.594
  23293396.917     5091902.051 5   3967712.02621        11.250           0.406
  20411991.651    -3554344.024 7  -2769617.79023        24.500           3.406
  22689365.417    -7084603.854 6  -5286937.52921        15.000           1.031
 91  7 11  2 15 44.9990000  0  4G 3G16G17G23
  20302876.698    -2107612.340 7  -1642294.97422        25.250           2.406
  23300554.964     5129490.532 6   3997001.71621        12.250           0.500
  20408439.230    -3573008.263 7  -2784161.34523        23.750           3.406
  22678629.940    -7141036.921 6  -5330911.32521        15.000           1.188
 91  7 11  2 15 59.9990000  0  4G 3G16G17G23
  20301379.401    -2115479.096 7  -1648424.91622        25.500           2.469
  23307717.206     5167123.287 6   4026325.91221        12.750           0.313
  20404900.542    -3591610.112 7  -2798656.28423        24.750           3.344
  22667901.636    -7197420.671 6  -5374846.68021        14.250           1.188
 91  7 11  2 16 14.9990000  0  4G 3G16G17G23
  20299898.886    -2123260.543 7  -1654488.38322        25.250           2.344
  23314887.144     5204796.011 6   4055681.24621        12.250           0.344
  20401370.675    -3610153.363 7  -2813105.55923        25.250           3.219
  22657179.448    -7253758.649 6  -5418746.35321        14.250           1.219
 91  7 11  2 16 29.9990000  0  4G 3G16G17G23
  20298432.901    -2130958.314 7  -1660486.65322        24.500           2.281
  23322059.894     5242506.451 5   4085065.96421        11.250           0.250
  20397855.019    -3628640.174 7  -2827510.85623        25.750           3.250
  22646467.198    -7310052.874 6  -5462611.96621        15.000           1.344
 91  7 11  2 16 44.9990000  0  4G 3G16G17G23
  20296984.698    -2138572.209 7  -1666419.55322        25.000           2.375
  23329244.948     5280254.273 5   4114479.83221        10.750           0.406
  20394346.972    -3647070.370 7  -2841872.03823        25.750           3.219
  22635762.151    -7366302.903 6  -5506443.13521        14.000           1.438
 91  7 11  2 16 59.9990000  0  4G 3G16G17G23
  20295550.417    -2146102.011 7  -1672286.93922        24.500           2.406
  23336435.503     5318039.685 5   4143922.94921        10.000           0.406
  20390851.511    -3665443.454 7  -2856188.71323        26.250           3.313
  22625064.909    -7422508.083 6  -5550239.35021        14.250           1.438
 91  7 11  2 17 14.9990000  0  4G 3G16G17G23
  20294135.378    -2153541.420 7  -1678083.89322        24.250           2.469
  23343632.315     5355868.014 5   4173399.52821        10.500           0.375
  20387366.573    -3683753.964 7  -2870456.63423        27.000           3.313
  22614378.362    -7478662.416 6  -5593995.95722        13.750           1.500
 91  7 11  2 17 29.9990000  0  4G 3G16G17G23
  20292737.300    -2160891.701 7  -1683811.37922        24.500           2.375
  23350836.847     5393737.374 5   4202908.09121        10.250           0.313
  20383893.519    -3702003.298 7  -2884676.88323        26.250           3.313
  22603704.355    -7534767.008 6  -5637713.77922        14.750           1.500
 91  7 11  2 17 44.9990000  0  4G 3G16G17G23
  20291355.214    -2168155.144 7  -1689471.20522        24.500           2.438
  23358050.644     5431645.463 5   4232446.83821        10.000           0.344
  20380431.370    -3720193.863 7  -2898851.33623        26.000           3.250
  22593038.597    -7590824.175 6  -5681394.65221        16.000           1.438
 91  7 11  2 17 59.9990000  0  4G 3G16G17G23
  20289990.136    -2175332.407 7  -1695063.87922        25.000           2.469
  23365275.034     5469590.913 5   4262014.67721         9.750           0.469
  20376981.190    -3738326.450 7  -2912980.62023        25.500           3.344
  22582376.933    -7646834.392 6  -5725038.95322        15.500           1.531
 91  7 11  2 18 14.9990000  0  4G 3G16G17G23
  20288641.581    -2182419.355 7  -1700586.18522        25.250           2.438
  23372504.534     5507577.625 5   4291614.68521         9.750           0.438
  20373540.933    -3756397.115 7  -2927061.64923        25.250           3.406
  22571727.605    -7702793.441 6  -5768643.37321        15.250           1.406
 91  7 11  2 18 29.9990000  0  4G 3G16G17G23
  20287311.190    -2189414.020 7  -1706036.57423        25.250           2.563
  23379736.339     5545606.659 5   4321247.65021         9.500           0.531
  20370115.417    -3774404.093 7  -2941093.04923        25.750           3.438
  22561090.730    -7758699.321 6  -5812206.36021        15.500           1.406
 91  7 11  2 18 44.9990000  0  4G 3G16G17G23
  20285997.628    -2196320.587 7  -1711418.31822        25.750           2.438
  23386981.456     5583673.472 5   4350910.05021         9.500           0.531
  20366699.855    -3792351.814 7  -2955078.27823        25.500           3.438
  22550459.839    -7814556.177 6  -5855731.16321        15.500           1.313
 91  7 11  2 18 59.9990000  0  4G 3G16G17G23
  20284698.597    -2203139.228 7  -1716731.54722        24.500           2.406
  23394233.948     5621777.733 5   4380601.63121         9.500           0.500
  20363297.651    -3810240.419 7  -2969017.44223        26.250           3.438
  22539839.667    -7870363.918 6  -5899217.69821        15.250           1.281
 91  7 11  2 19 14.9990000  0  4G 3G16G17G23
  20283417.831    -2209866.846 7  -1721973.84922        24.500           2.375
  23401494.909     5659921.830 5   4410324.26621        10.000           0.531
  20359903.347    -3828067.349 7  -2982908.55123        25.750           3.406
  22529230.401    -7926119.781 6  -5942663.79721        15.000           1.188
 91  7 11  2 19 29.9990000  0  4G 3G16G17G23
  20282153.964    -2216506.911 7  -1727147.93622        25.000           2.250
  23408757.948     5698101.912 5   4440074.93121        10.000           0.531
  20356522.105    -3845836.036 7  -2996754.28023        25.500           3.281
  22518630.550    -7981826.651 6  -5986071.71921        15.250           1.156
 91  7 11  2 19 44.9990000  0  4G 3G16G17G23
  20280907.714    -2223057.388 7  -1732252.20322        25.500           2.281
  23416029.581     5736319.177 5   4469854.58521        10.000           0.469
  20353150.776    -3863544.934 7  -3010553.40623        25.000           3.438
  22508040.019    -8037482.970 6  -6029440.25921        15.750           1.156
 91  7 11  2 19 59.9990000  0  4G 3G16G17G23
  20279678.425    -2229516.274 7  -1737285.10822        26.000           2.344
  23423310.901     5774575.569 5   4499664.72521        10.000           0.469
  20349794.737    -3881191.850 7  -3024304.24523        25.000           3.313
  22497457.448    -8093086.304 6  -6072767.52021        15.500           1.219
 91  7 11  2 20 14.9990000  0  4G 3G16G17G23
  20278467.183    -2235884.252 7  -1742247.16822        26.250           2.219
  23430595.558     5812869.812 5   4529504.35421         9.500           0.438
  20346446.073    -3898777.816 7  -3038007.57423        24.500           3.469
  22486888.550    -8148637.303 6  -6116053.98221        16.000           1.344
 91  7 11  2 20 29.9990000  0  4G 3G16G17G23
  20277272.925    -2242161.846 7  -1747138.80222        26.000           2.188
  23437891.800     5851200.699 5   4559372.55221         9.000           0.531
  20343112.253    -3916303.715 7  -3051664.11123        25.000           3.469
  22476325.925    -8204136.560 6  -6159300.11921        15.750           1.313
 91  7 11  2 20 44.9990000  0  4G 3G16G17G23
  20276094.753    -2248349.910 7  -1751960.67922        26.000           2.219
  23445190.581     5889566.996 5   4589268.31721         8.500           0.344
  20339789.401    -3933770.488 7  -3065274.57024        25.000           3.500
  22465773.855    -8259584.895 6  -6202506.58221        16.000           1.250
 91  7 11  2 20 59.9990000  0  4G 3G16G17G23
  20274936.448    -2254444.065 7  -1756709.37122        26.250           2.156
  23452498.081     5927973.033 5   4619195.05921         8.000           0.500
  20336477.526    -3951173.738 7  -3078835.54223        25.250           3.438
  22455233.855    -8314977.467 6  -6245669.58521        16.000           1.281
 91  7 11  2 21 14.9990000  0  4G 3G16G17G23
  20273794.144    -2260447.342 7  -1761387.24522        26.750           2.250
  23459815.550     5966414.931 5   4649149.74821         8.000           0.438
  20333177.042    -3968517.096 7  -3092349.84323        25.500           3.375
  22444704.714    -8370317.675 6  -6288791.79021        16.500           1.313
 91  7 11  2 21 29.9990000  0  4G 3G16G17G23
  20272667.628    -2266359.023 7  -1765993.75122        26.250           2.406
  23467133.269     6004892.869 5   4679132.52621         7.500           0.438
  20329887.456    -3985800.059 7  -3105817.08423        24.750           3.469
  22434180.769    -8425604.806 6  -6331872.62821        16.000           1.219
 91  7 11  2 21 44.9990000  0  4G 3G16G17G23
  20271560.464    -2272182.741 7  -1770531.71622        26.750           2.281
  23474462.300     6043403.121 4   4709140.48021         7.250           0.531
  20326607.917    -4003026.102 7  -3119239.96724        24.500           3.563
  22423671.417    -8480842.213 6  -6374914.72321        16.000           1.188
 91  7 11  2 21 59.9990000  0  4G 3G16G17G23
  20270468.534    -2277916.997 7  -1774999.96522        26.500           2.344
  23481797.808     6081946.755 5   4739174.43721         7.500           0.500
  20323344.175    -4020194.053 7  -3132617.58624        26.000           3.625
  22413169.909    -8536028.243 6  -6417916.79621        15.750           1.063
 91  7 11  2 22 14.9990000  0  4G 3G16G17G23
  20269395.722    -2283559.820 7  -1779396.97522        26.750           2.250
  23489144.925     6120524.766 5   4769235.19421         7.750           0.594
  20320086.659    -4037301.927 7  -3145948.39323        25.500           3.469
  22402679.440    -8591160.759 6  -6460877.15821        15.500           1.063
 91  7 11  2 22 29.9990000  0  4G 3G16G17G23
  20268339.425    -2289108.231 7  -1783720.41222        25.500           2.313
  23496494.636     6159140.017 5   4799324.94921         7.750           0.500
  20316845.636    -4054346.926 7  -3159230.20924        26.750           3.531
  22392194.862    -8646236.966 6  -6503793.64621        15.000           0.969
 91  7 11  2 22 44.9990000  0  4G 3G16G17G23
  20267300.776    -2294560.177 7  -1787968.68422        24.750           2.313
  23503849.323     6197793.789 5   4829444.71821         8.000           0.531
  20313612.417    -4071327.485 7  -3172461.80024        26.000           3.531
  22381724.917    -8701254.838 6  -6546664.69121        16.000           1.031
 91  7 11  2 22 59.9990000  0  4G 3G16G17G23
  20266283.909    -2299913.023 7  -1792139.74022        24.750           2.250
  23511214.886     6236488.325 5   4859596.25921         8.000           0.625
  20310393.073    -4088241.197 7  -3185641.31223        26.250           3.375
  22371269.495    -8756211.503 6  -6589488.03321        16.750           1.000
 91  7 11  2 23 14.9990000  0  4G 3G16G17G23
  20265281.620    -2305172.903 7  -1796238.34922        24.250           2.344
  23518584.214     6275217.451 5   4889774.74421         8.000           0.594
  20307187.315    -4105094.284 7  -3198773.58224        26.500           3.594
  22360823.909    -8811112.784 6  -6632268.21221        17.500           0.969
 91  7 11  2 23 29.9990000  0  4G 3G16G17G23
  20264297.120    -2310341.948 7  -1800266.18022        24.250           2.344
  23525959.378     6313978.201 5   4919977.87921         8.250           0.469
  20303991.097    -4121889.046 7  -3211860.40323        26.000           3.469
  22350386.011    -8865960.981 6  -6675007.03421        17.250           1.031
 91  7 11  2 23 44.9990000  0  4G 3G16G17G23
  20263333.526    -2315418.115 7  -1804221.64222        25.250           2.438
  23533342.909     6352772.072 5   4950206.81321         8.500           0.469
  20300806.550    -4138623.696 7  -3224900.38523        25.750           3.406
  22339956.081    -8920754.110 6  -6717702.94021        16.500           1.031
 91  7 11  2 23 59.9990000  0  4G 3G16G17G23
  20262385.019    -2320400.706 7  -1808104.17822        25.500           2.469
  23540731.995     6391599.322 5   4980461.76921         8.750           0.594
  20297633.659    -4155297.664 7  -3237893.08723        26.250           3.469
  22329541.745    -8975491.270 6  -6760355.23521        16.250           1.031
 91  7 11  2 24 14.9990000  0  4G 3G16G17G23
  20261453.597    -2325290.954 7  -1811914.76322        25.250           2.406
  23548126.237     6430458.376 5   5010741.50421         9.250           0.438
  20294472.315    -4171912.348 7  -3250839.58724        26.750           3.500
  22319136.089    -9030173.615 6  -6802964.83321        16.500           1.031
 91  7 11  2 24 29.9990000  0  4G 3G16G17G23
  20260541.823    -2330087.596 7  -1815652.40222        25.500           2.313
  23555525.276     6469350.144 5   5041046.72821         9.000           0.531
  20291321.230    -4188466.556 7  -3263738.97023        25.750           3.438
  22308743.315    -9084799.789 6  -6845530.65021        17.500           1.063
 91  7 11  2 24 44.9990000  0  4G 3G16G17G23
  20259646.136    -2334788.477 7  -1819315.43322        24.250           2.313
  23562930.558     6508276.018 5   5071378.54521         9.000           0.500
  20288184.026    -4204958.535 7  -3276589.86224        26.250           3.500
  22298359.026    -9139367.684 6  -6888051.06421        17.250           1.250
 91  7 11  2 24 59.9990000  0  4G 3G16G17G23
  20258770.105    -2339397.557 7  -1822906.92122        24.500           2.281
  23570344.261     6547231.911 5   5101733.74021         8.750           0.469
  20285056.870    -4221392.180 7  -3289395.29423        26.250           3.375
  22287984.315    -9193881.046 6  -6930528.97621        17.250           1.375
 91  7 11  2 25 14.9990000  0  4G 3G16G17G23
  20257910.112    -2343910.547 7  -1826423.53522        24.750           2.344
  23577766.019     6586221.810 5   5132115.43321         8.750           0.500
  20281940.667    -4237763.438 7  -3302152.11323        26.000           3.344
  22277621.558    -9248335.615 6  -6972961.08022        17.750           1.531
 91  7 11  2 25 29.9990000  0  4G 3G16G17G23
  20257070.401    -2348330.791 7  -1829867.88322        25.000           2.375
  23585187.284     6625241.706 5   5162520.51821         8.750           0.500
  20278836.558    -4254076.112 7  -3314863.28523        25.750           3.375
  22267270.386    -9302734.641 6  -7015349.90122        18.250           1.594
 91  7 11  2 25 44.9990000  0  4G 3G16G17G23
  20256247.480    -2352652.916 7  -1833235.77822        24.750           2.313
  23592621.901     6664296.330 5   5192952.65821         9.500           0.531
  20275744.409    -4270325.065 7  -3327524.80923        25.500           3.250
  22256928.636    -9357072.680 6  -7057691.19922        17.750           1.719
 91  7 11  2 25 59.9990000  0  4G 3G16G17G23
  20255442.065    -2356879.950 7  -1836529.57522        25.000           2.313
  23600060.003     6703382.398 5   5223409.29621         9.500           0.500
  20272663.245    -4286513.179 7  -3340138.92723        25.250           3.219
  22246600.378    -9411352.549 6  -7099987.16722        18.000           1.656
 91  7 11  2 26 14.9990000  0  4G 3G16G17G23
  20254657.456    -2361009.364 7  -1839747.30322        25.750           2.250
  23607502.644     6742501.764 5   5253891.89221         9.500           0.781
  20269595.401    -4302638.381 7  -3352704.01223        25.000           3.219
  22236281.714    -9465571.824 6  -7142235.92522        17.000           1.625
 91  7 11  2 26 29.9990000  0  4G 3G16G17G23
  20253889.269    -2365039.457 7  -1842887.63322        25.750           2.188
  23614957.073     6781655.812 5   5284401.50221         9.750           0.719
  20266540.120    -4318698.813 7  -3365218.63923        26.000           3.188
  22225976.261    -9519728.690 6  -7184436.05822        17.000           1.563
 91  7 11  2 26 44.9990000  0  4G 3G16G17G23
  20253141.800    -2368972.750 7  -1845952.53922        26.000           2.125
  23622408.808     6820841.632 5   5314935.85121         9.500           0.656
  20263496.417    -4334697.402 7  -3377685.07123        26.250           3.344
  22215683.331    -9573825.854 6  -7226589.66722        17.250           1.594
 91  7 11  2 26 59.9990000  0  4G 3G16G17G23
  20252412.675    -2372809.342 7  -1848942.09922        26.750           2.313
  23629870.347     6860059.041 5   5345494.83421         9.000           0.719
  20260461.745    -4350634.178 7  -3390103.34123        25.000           3.438
  22205398.628    -9627862.781 6  -7268696.34022        17.000           1.594
 91  7 11  2 27 14.9990000  0  4G 3G16G17G23
  20251700.151    -2376546.690 7  -1851854.31822        26.250           2.281
  23637342.245     6899309.420 5   5376079.50421         9.000           0.563
  20257441.675    -4366507.286 7  -3402471.99523        25.250           3.406
  22195126.659    -9681837.251 6  -7310754.34722        17.250           1.594
 91  7 11  2 27 29.9990000  0  4G 3G16G17G23
  20251007.573    -2380184.004 7  -1854688.59722        25.250           2.313
  23644817.378     6938593.344 5   5406690.29921         8.750           0.594
  20254434.886    -4382315.875 7  -3414790.38024        26.750           3.500
  22184868.198    -9735748.451 6  -7352763.05222        17.500           1.719
 91  7 11  2 27 44.9990000  0  4G 3G16G17G23
  20250334.917    -2383722.418 7  -1857445.80822        24.250           2.344
  23652299.581     6977909.589 5   5437326.28921         8.750           0.625
  20251438.808    -4398060.976 7  -3427059.29023        26.750           3.438
  22174624.362    -9789597.003 6  -7394722.93822        18.000           1.625
 91  7 11  2 27 59.9990000  0  4G 3G16G17G23
  20249680.964    -2387158.525 7  -1860123.29922        24.750           2.313
  23659788.315     7017260.851 5   5467989.57421         9.250           0.500
  20248452.347    -4413739.688 7  -3439276.47023        25.500           3.375
  22164389.464    -9843379.673 6  -7436631.47622        18.000           1.688
 91  7 11  2 28 14.9990000  0  4G 3G16G17G23
  20249046.425    -2390495.895 7  -1862723.85122        25.750           2.250
  23667283.894     7056643.032 5   5498676.93721         9.000           0.531
  20245481.995    -4429355.558 7  -3451444.68624        25.750           3.563
  22154163.823    -9897100.157 6  -7478491.55922        17.250           1.625
 91  7 11  2 28 29.9990000  0  4G 3G16G17G23
  20248428.331    -2393740.797 7  -1865252.35022        26.000           2.313
  23674782.839     7096049.242 5   5529383.03121         8.750           0.531
  20242520.964    -4444915.287 7  -3463569.13923        25.500           3.438
  22143953.206    -9950764.585 6  -7520307.96222        18.000           1.594
 91  7 11  2 28 44.9990000  0  4G 3G16G17G23
  20247828.730    -2396888.056 7  -1867704.76422        26.000           2.250
  23682287.909     7135485.047 5   5560112.19121         8.250           0.500
  20239573.089    -4460413.335 7  -3475645.54323        26.250           3.469
  22133751.276   -10004367.434 6  -7562076.39322        17.500           1.531
 91  7 11  2 28 59.9990000  0  4G 3G16G17G23
  20247249.183    -2399940.541 7  -1870083.32522        26.250           2.281
  23689796.448     7174946.583 5   5590861.39521         7.750           0.500
  20236634.120    -4475853.055 7  -3487676.49923        25.500           3.469
  22123565.573   -10057911.647 6  -7603799.12822        19.250           1.500
 91  7 11  2 29 14.9990000  0  4G 3G16G17G23
  20246688.308    -2402890.740 7  -1872382.17922        26.250           2.250
  23697310.440     7214440.493 5   5621635.81721         7.500           0.406
  20233708.940    -4491227.535 7  -3499656.61724        26.250           3.625
  22113389.472   -10111390.044 6  -7645470.58622        19.750           1.531
 91  7 11  2 29 29.9990000  0  4G 3G16G17G23
  20246145.933    -2405743.672 7  -1874605.25022        26.250           2.281
  23704832.034     7253961.654 4   5652431.48021         7.250           0.500
  20230794.753    -4506541.588 7  -3511589.64824        27.000           3.594
  22103222.472   -10164807.194 6  -7687094.31222        19.000           1.563
 91  7 11  2 29 44.9990000  0  4G 3G16G17G23
  20245621.433    -2408493.469 7  -1876747.95922        25.500           2.375
  23712359.831     7293515.806 4   5683252.84521         7.250           0.469
  20227892.698    -4521789.396 7  -3523471.05524        26.750           3.656
  22093069.284   -10218157.017 6  -7728665.58022        18.750           1.688
 91  7 11  2 29 59.9990000  0  4G 3G16G17G23
  20245117.909    -2411142.956 7  -1878812.50722        25.000           2.219
  23719891.972     7333099.356 5   5714097.11621         7.500           0.469
  20225003.581    -4536974.256 7  -3535303.41524        27.000           3.656
  22082929.456   -10271442.461 6  -7770186.67522        18.250           1.656
 91  7 11  2 30 14.9990000  0  4G 3G16G17G23
  20244632.862    -2413687.183 7  -1880795.03422        24.250           2.313
  23727432.472     7372716.909 5   5744967.89321         7.500           0.531
  20222126.112    -4552091.236 7  -3547082.88024        27.250           3.594
  22072806.003   -10324658.393 6  -7811653.61222        18.500           1.531
 91  7 11  2 30 29.9990000  0  4G 3G16G17G23
  20244167.300    -2416127.515 7  -1882696.59722        23.750           2.344
  23734976.089     7412366.856 4   5775863.90421         7.250           0.438
  20219263.081    -4567141.809 7  -3558810.60424        27.750           3.594
  22062691.089   -10377806.030 6  -7853067.31321        18.000           1.469
 91  7 11  2 30 44.9990000  0  4G 3G16G17G23
  20243723.847    -2418467.810 7  -1884520.20522        23.750           2.250
  23742525.722     7452044.794 4   5806781.73321         7.000           0.438
  20216410.440    -4582129.929 7  -3570489.65324        27.500           3.656
  22052589.417   -10430889.389 6  -7894430.93522        18.750           1.500
 91  7 11  2 30 59.9990000  0  4G 3G16G17G23
  20243294.628    -2420710.811 7  -1886268.00522        23.250           2.219
  23750075.675     7491747.090 4   5837718.53521         6.250           0.531
  20213570.292    -4597058.819 8  -3582122.55824        28.250           3.625
  22042499.878   -10483911.194 6  -7935746.60622        19.000           1.563
 91  7 11  2 31 14.9990000  0  4G 3G16G17G23
  20242887.058    -2422854.789 7  -1887938.64622        24.000           2.344
  23757637.909     7531475.611 3   5868675.77121         6.000           0.500
  20210740.214    -4611926.987 7  -3593708.15224        27.500           3.656
  22032423.784   -10536869.586 7  -7977012.85921        20.000           1.469
 91  7 11  2 31 29.9990000  0  4G 3G16G17G23
  20242501.042    -2424894.936 7  -1889528.37422        24.500           2.313
  23765208.253     7571235.055 3   5899657.10721         5.500           0.531
  20207923.667    -4626729.084 7  -3605242.25323        27.500           3.438
  22022359.894   -10589759.058 6  -8018225.40422        19.500           1.500
 91  7 11  2 31 44.9990000  0  4G 3G16G17G23
  20242129.050    -2426833.807 7  -1891039.18822        24.000           2.313
  23772778.159     7611021.392 3   5930659.38921         5.500           0.469
  20205118.808    -4641468.790 8  -3616727.73624        28.250           3.625
  22012305.401   -10642583.166 6  -8059387.02322        17.750           1.656
 91  7 11  2 31 59.9990000  0  4G 3G16G17G23
  20241782.245    -2428671.520 7  -1892471.17522        25.000           2.250
  23780353.526     7650834.908 3   5961682.84021         5.000           0.469
  20202325.933    -4656145.708 8  -3628164.29324        28.000           3.563
  22002263.183   -10695341.178 6  -8100497.12522        16.500           1.688
 91  7 11  2 32 14.9990000  0  4G 3G16G17G23
  20241450.620    -2430406.005 7  -1893822.72922        24.000           2.375
  23787934.878     7690677.269 3   5992728.79521         5.000           0.406
  20199545.636    -4670758.061 7  -3639550.54224        27.750           3.563
  21992237.870   -10748031.108 6  -8141554.18522        17.500           1.531
 91  7 11  2 32 29.9990000  0  4G 3G16G17G23
  20241139.995    -2432039.600 7  -1895095.66622        23.750           2.406
  23795520.167     7730545.282 3   6023794.72221         5.250           0.375
  20196776.370    -4685308.429 7  -3650888.49224        27.500           3.500
  21982224.698   -10800655.417 6  -8182560.12321        18.000           1.469
 91  7 11  2 32 44.9990000  0  4G 3G16G17G23
  20240848.159    -2433569.977 7  -1896288.17922        23.250           2.438
  23803112.839     7770440.782 3   6054882.07721         5.250           0.344
  20194019.815    -4699794.781 7  -3662176.55223        27.500           3.344
  21972223.894   -10853211.734 6  -8223513.06522        18.250           1.688
 91  7 11  2 32 59.9990000  0  4G 3G16G17G23
  20240577.980    -2434995.693 7  -1897399.13022        23.750           2.406
  23810709.847     7810365.104 3   6085991.87321         5.500           0.344
  20191276.206    -4714215.331 7  -3673413.34724        27.000           3.500
  21962236.956   -10905698.070 6  -8264411.47622        18.250           1.625
 91  7 11  2 33 14.9990000  0  4G 3G16G17G23
  20240326.831    -2436318.129 7  -1898429.60622        24.500           2.438
  23818314.886     7850316.477 3   6117122.79621         6.000           0.219
  20188542.511    -4728572.001 7  -3684600.36023        26.250           3.469
  21952260.628   -10958116.202 6  -8305256.74922        18.000           1.719
 91  7 11  2 33 29.9990000  0  4G 3G16G17G23
  20240092.659    -2437537.103 7  -1899379.45822        24.500           2.313
  23825922.550     7890294.489 4   6148274.45221         6.250           0.281
  20185824.565    -4742864.865 7  -3695737.65223        26.750           3.406
  21942297.948   -11010465.674 6  -8346048.52422        17.500           1.750
 91  7 11  2 33 44.9990000  0  4G 3G16G17G23
  20239881.362    -2438652.936 7  -1900248.93922        24.750           2.406
  23833534.315     7930298.143 4   6179446.05521         6.500           0.250
  20183117.370    -4757094.480 7  -3706825.66923        27.250           3.406
  21932347.394   -11062746.906 6  -8386787.11522        17.000           1.813
 91  7 11  2 33 59.9990000  0  4G 3G16G17G23
  20239688.339    -2439663.698 7  -1901036.54922        25.250           2.344
  23841155.159     7970329.371 4   6210639.19221         6.750           0.188
  20180421.940    -4771258.474 7  -3717862.54323        27.000           3.406
  21922416.112   -11114957.676 6  -8427470.80222        18.000           1.938
 91  7 11  2 34 14.9990000  0  4G 3G16G17G23
  20239516.292    -2440569.703 7  -1901742.52922        25.000           2.313
  23848773.589     8010387.654 4   6241853.41321         7.000           0.156
  20177737.284    -4785357.676 7  -3728848.92823        26.500           3.406
  21912491.675   -11167098.096 6  -8468099.67722        17.750           1.875
 91  7 11  2 34 29.9990000  0  4G 3G16G17G23
  20239362.433    -2441374.057 7  -1902369.30622        25.250           2.188
  23856402.362     8050469.031 4   6273085.60721         6.500           0.156
  20175066.909    -4799395.745 7  -3739787.68323        26.500           3.469
  21902582.355   -11219171.523 6  -8508676.34922        17.500           1.938
 91  7 11  2 34 44.9990000  0  4G 3G16G17G23
  20239232.534    -2442069.492 7  -1902911.20122        25.500           2.281
  23864034.855     8090580.433 4   6304341.24421         6.500           0.250
  20172408.839    -4813365.117 7  -3750672.90423        25.750           3.344
  21892688.401   -11271170.492 6  -8549194.99022        18.250           1.781
 91  7 11  2 34 59.9990000  0  4G 3G16G17G23
  20239121.917    -2442662.487 7  -1903373.28022        25.750           2.313
  23871674.034     8130714.855 3   6335614.79121         5.750           0.125
  20169760.933    -4827272.678 7  -3761509.96323        26.000           3.438
  21882806.487   -11323101.468 6  -8589660.65322        17.500           1.844
 91  7 11  2 35 14.9990000  0  4G 3G16G17G23
  20239024.386    -2443153.503 7  -1903755.89722        25.000           2.469
  23879313.870     8170871.686 4   6366905.78621         6.250           0.156
  20167127.300    -4841118.800 7  -3772299.14223        26.500           3.406
  21872936.362   -11374964.715 6  -8630073.54322        17.500           1.781
 91  7 11  2 35 29.9990000  0  4G 3G16G17G23
  20238951.331    -2443539.236 7  -1904056.47322        24.750           2.344
  23886958.222     8211053.810 4   6398216.47321         6.500           0.219
  20164503.495    -4854900.294 7  -3783037.96523        26.000           3.469
  21863081.409   -11426756.747 6  -8670430.95722        17.500           1.656
 91  7 11  2 35 44.9990000  0  4G 3G16G17G23
  20238899.675    -2443818.198 7  -1904273.85022        24.750           2.344
  23894612.347     8251262.310 4   6429547.73521         6.250           0.313
  20161893.105    -4868616.164 7  -3793725.65324        26.250           3.531
  21853239.886   -11478476.383 6  -8710731.93822        18.000           1.563
 91  7 11  2 35 59.9990000  0  4G 3G16G17G23
  20238866.620    -2443992.663 7                        24.750
  23902268.933     8291494.440 3   6460897.39721         5.500           0.281
  20159295.526    -4882268.595 7  -3804363.90923        26.500           3.438
  21843409.573   -11530125.445 6  -8750977.93322        18.000           1.500
 91  7 11  2 36 14.9990000  0  4G 3G16G17G23
  20238851.948    -2444064.761 7                        24.750
  23909932.456     8331747.204 3   6492263.13021         5.000           0.344
  20156709.909    -4895860.113 7  -3814954.69524        26.750           3.500
  21833593.495   -11581706.358 6  -8791170.82722        18.000           1.594
 91  7 11  2 36 29.9990000  0  4G 3G16G17G23
  20238860.269    -2444030.557 7                        24.250
  23917597.870     8372024.713 2   6523648.15821         4.500           0.281
  20154135.573    -4909386.601 7  -3825494.80724        27.000           3.563
  21823792.480   -11633214.647 6  -8831307.12722        17.500           1.594
 91  7 11  2 36 44.9990000  0  4G 3G16G17G23
  20238884.776    -2443891.525 7                        24.500
  23925263.034     8412324.842 2   6555050.78821         4.250           0.188
  20151574.605    -4922849.844 7  -3835985.64324        27.250           3.750
  21814004.901   -11684651.919 6  -8871388.09122        17.750           1.531
 91  7 11  2 36 59.9990000  0  4G 3G16G17G23
  20238932.245    -2443646.610 7                        24.250
  23932930.105     8452648.211 1   6586471.56421         3.500           0.094
  20149024.433    -4936249.034 7  -3846426.55724        26.750           3.625
  21804232.730   -11736017.218 6  -8911412.97022        18.750           1.656
 91  7 11  2 37 14.9990000  0  3G 3G17G23
  20238996.714    -2443296.595 7  -1903867.42622        24.250           2.281
  20146486.425    -4949585.052 7  -3856818.25024        26.750           3.688
  21794470.253   -11787310.975 6  -8951382.10622        18.500           1.625
 91  7 11  2 37 29.9990000  0  3G 3G17G23
  20239086.948    -2442842.333 7  -1903513.45922        23.750           2.281
  20143960.276    -4962858.705 7  -3867161.35124        27.000           3.500
  21784724.081   -11838534.023 6  -8991296.13522        19.250           1.656
 91  7 11  2 37 44.9990000  0  3G 3G17G23
  20239193.690    -2442281.277 7  -1903076.28323        23.500           2.500
  20141446.901    -4976067.593 7  -3877453.98624        27.000           3.594
  21774988.659   -11889683.629 6  -9031152.95222        19.250           1.719
 91  7 11  2 37 59.9990000  0  3G 3G17G23
  20239317.659    -2441612.827 7  -1902555.41822        22.750           2.469
  20138945.042    -4989211.563 7  -3887696.03424        26.500           3.500
  21765270.542   -11940759.468 7  -9070952.28422        20.750           1.563
 91  7 11  2 38 14.9990000  0  3G 3G17G23
  20239466.581    -2440829.060 7  -1901944.70022        23.250           2.469
  20136458.417    -5002282.688 7  -3897881.32224        27.000           3.563
  21755567.112   -11991753.297 7  -9110687.71522        20.750           1.594
 91  7 11  2 38 29.9990000  0  3G 3G17G23
  20239639.526    -2439937.838 7  -1901250.24822        24.000           2.375
  20133983.003    -5015288.860 7  -3908015.99223        26.500           3.469
  21745876.401   -12042672.592 7  -9150365.05522        20.750           1.688
 91  7 11  2 38 44.9990000  0  3G 3G17G23
  20239828.433    -2438937.483 7  -1900470.76022        24.500           2.469
  20131521.222    -5028228.702 7  -3918098.98023        26.750           3.375
  21736201.808   -12093516.266 7  -9189983.48022        21.500           1.625
 91  7 11  2 38 59.9990000  0  3G 3G17G23
  20240040.784    -2437828.638 7  -1899606.72422        24.750           2.438
  20129072.151    -5041102.954 7  -3928130.86323        27.000           3.313
  21726541.206   -12144284.571 7  -9229543.17922        21.500           1.688
 91  7 11  2 39 14.9990000  0  3G 3G17G23
  20240271.112    -2436610.958 7  -1898657.88723        24.750           2.500
  20126632.925    -5053911.292 7  -3938111.38123        26.750           3.469
  21716894.073   -12194976.796 7  -9269043.59022        21.500           1.813
 91  7 11  2 39 29.9990000  0  3G 3G17G23
  20240522.784    -2435283.761 7  -1897623.71322        24.750           2.313
  20124209.464    -5066653.344 7  -3948040.24423        27.250           3.406
  21707263.206   -12245592.372 7  -9308484.27722        21.750           1.938
 91  7 11  2 39 44.9990000  0  3G 3G17G23
  20240798.894    -2433844.565 7  -1896502.25522        25.750           2.375
  20121797.519    -5079326.952 7  -3957915.78423        26.750           3.406
  21697644.987   -12296129.080 7  -9347863.51122        21.250           1.938
 91  7 11  2 39 59.9990000  0  3G 3G17G23
  20241092.042    -2432296.094 7  -1895295.66122        25.250           2.313
  20119398.956    -5091934.598 7  -3967739.91923        26.750           3.438
  21688043.222   -12346589.116 7  -9387182.99322        21.500           1.906
 91  7 11  2 40 14.9990000  0  3G 3G17G23
  20241408.597    -2430635.034 7  -1894001.33722        25.000           2.313
  20117012.737    -5104473.264 7  -3977510.30423        27.000           3.469
  21678457.151   -12396969.177 7  -9426440.15022        21.750           1.938
 91  7 11  2 40 29.9990000  0  3G 3G17G23
  20241745.214    -2428868.041 7  -1892624.45822        25.000           2.281
  20114637.737    -5116950.023 7  -3987232.44323        26.750           3.344
  21668883.065   -12447276.111 7  -9465640.33722        21.500           1.906
 91  7 11  2 40 44.9990000  0  3G 3G17G23
  20242101.964    -2426990.527 7  -1891161.46322        24.750           2.219
  20112275.831    -5129359.934 7  -3996902.50223        26.750           3.313
  21659324.175   -12497504.899 7  -9504779.63222        21.250           1.938
 91  7 11  2 40 59.9990000  0  3G 3G17G23
  20242480.136    -2425005.045 7  -1889614.33322        24.000           2.219
  20109928.128    -5141705.737 7  -4006522.59823        27.750           3.406
  21649779.737   -12547658.189 7  -9543860.09722        20.750           1.938
 91  7 11  2 41 14.9990000  0  3G 3G17G23
  20242878.792    -2422908.322 7  -1887980.52422        24.250           2.250
  20107590.839    -5153984.252 7  -4016090.26723        27.500           3.313
  21640252.183   -12597732.417 7  -9582878.95022        20.750           2.063
 91  7 11  2 41 29.9990000  0  3G 3G17G23
  20243298.690    -2420701.458 7  -1886260.89322        24.500           2.188
  20105266.862    -5166197.176 7  -4025606.82423        27.750           3.375
  21630738.300   -12647728.907 7  -9621837.23222        20.250           2.094
 91  7 11  2 41 44.9990000  0  3G 3G17G23
  20243740.448    -2418381.042 7  -1884452.78322        25.250           2.156
  20102955.503    -5178340.783 7  -4035069.37423        27.000           3.375
  21621239.675   -12697643.848 7  -9660731.96722        20.000           2.125
 91  7 11  2 41 59.9990000  0  3G 3G17G23
  20244203.448    -2415946.104 7  -1882555.43322        25.500           2.219
  20100657.519    -5190414.391 7  -4044477.37423        26.750           3.344
  21611756.425   -12747476.417 7  -9699562.51222        20.000           2.000
 91  7 11  2 42 14.9990000  0  3G 3G17G23
  20244688.073    -2413399.731 7  -1880571.23822        25.250           2.094
  20098373.355    -5202421.349 7  -4053833.44423        26.750           3.344
  21602289.862   -12797229.743 7  -9738331.31822        20.250           2.000
 91  7 11  2 42 29.9990000  0  3G 3G17G23
  20245193.753    -2410745.642 7  -1878503.12222        25.250           2.156
  20096100.800    -5214365.458 7  -4063140.53824        27.250           3.500
  21592832.980   -12846907.143 6  -9777040.95822        19.500           1.906
 91  7 11  2 42 44.9990000  0  3G 3G17G23
  20245718.792    -2407977.877 7  -1876346.42622        24.750           2.000
  20093841.714    -5226240.721 7  -4072393.98723        27.500           3.375
  21583396.730   -12896502.608 6  -9815686.75422        19.750           1.906
 91  7 11  2 42 59.9990000  0  3G 3G17G23
  20246268.503    -2405096.733 7  -1874101.39922        24.750           2.000
  20091592.940    -5238047.786 7  -4081594.29623        27.250           3.313
  21573976.159   -12946016.525 7  -9854269.00522        20.500           1.844
 91  7 11  2 43 14.9990000  0  3G 3G17G23
  20246838.261    -2402102.900 7  -1871768.54822        24.500           2.000
  20089360.433    -5249787.386 8  -4090742.03823        28.000           3.375
  21564569.808   -12995449.532 7  -9892788.21022        21.000           1.875
 91  7 11  2 43 29.9990000  0  3G 3G17G23
  20247429.839    -2398997.986 7  -1869349.13922        24.750           2.031
  20087139.706    -5261461.300 8  -4099838.59623        28.250           3.219
  21555177.558   -13044803.017 7  -9931245.45222        20.750           1.906
 91  7 11  2 43 44.9990000  0  3G 3G17G23
  20248040.042    -2395781.874 7  -1866843.08422        24.250           2.031
  20084930.308    -5273069.309 8  -4108883.79423        28.250           3.219
  21545799.987   -13094076.827 7  -9969640.60622        20.250           1.969
 91  7 11  2 43 59.9990000  0  3G 3G17G23
  20248673.253    -2392454.602 7  -1864250.41122        24.250           2.188
  20082733.620    -5284611.467 7  -4117877.68323        27.250           3.219
  21536438.722   -13143270.695 7 -10007973.46322        21.000           1.969
 91  7 11  2 44 14.9990000  0  3G 3G17G23
  20249329.823    -2389011.599 7  -1861567.55722        24.500           2.219
  20080549.917    -5296083.882 7  -4126817.23123        26.500           3.281
  21527094.394   -13192380.226 7 -10046240.61422        21.750           1.938
 91  7 11  2 44 29.9990000  0  3G 3G17G23
  20250006.042    -2385456.448 7  -1858797.31522        23.750           2.031
  20078379.073    -5307489.986 7  -4135705.10123        26.250           3.125
  21517765.300   -13241408.866 7 -10084444.72622        22.750           2.000
 91  7 11  2 44 44.9990000  0  3G 3G17G23
  20250703.628    -2381787.249 7  -1855938.20922        24.000           1.938
  20076222.659    -5318827.864 7  -4144539.81323        26.500           3.250
  21508450.534   -13290354.540 7 -10122584.19922        22.250           2.031
 91  7 11  2 44 59.9990000  0  3G 3G17G23
  20251421.886    -2378006.837 7  -1852992.43722        23.500           2.000
  20074077.011    -5330100.480 7  -4153323.67523        27.000           3.281
  21499149.792   -13339219.963 7 -10160661.13522        22.000           2.063
 91  7 11  2 45 14.9990000  0  3G 3G17G23
  20252163.550    -2374115.597 7  -1849960.30522        23.750           2.031
  20071943.315    -5341308.327 7  -4162057.06923        26.250           3.438
  21489866.644   -13388005.377 7 -10198675.72122        22.250           2.156
 91  7 11  2 45 29.9990000  0  3G 3G17G23
  20252926.440    -2370110.026 7  -1846839.08522        24.000           2.188
  20069824.323    -5352448.062 7  -4170737.38323        26.500           3.406
  21480601.831   -13436707.346 7 -10236625.28722        22.250           2.063
 91  7 11  2 45 44.9990000  0  3G 3G17G23
  20253710.487    -2365989.816 7  -1843628.53722        24.000           2.188
  20067717.487    -5363519.892 7  -4179364.78123        27.000           3.438
  21471349.019   -13485325.756 7 -10274509.73322        21.750           2.188
 91  7 11  2 45 59.9990000  0  3G 3G17G23
  20254514.651    -2361756.083 7  -1840329.53022        24.250           2.125
  20065623.261    -5374524.502 7  -4187939.80623        27.250           3.375
  21462112.808   -13533861.294 7 -10312329.61422        21.750           2.156
 91  7 11  2 46 14.9990000  0  3G 3G17G23
  20255342.378    -2357410.334 7  -1836943.23222        25.000           2.188
  20063541.589    -5385463.686 7  -4196463.84723        27.000           3.375
  21452890.269   -13582315.196 7 -10350085.88622        21.000           2.219
 91  7 11  2 46 29.9990000  0  3G 3G17G23
  20256191.542    -2352949.157 7  -1833466.99322        25.000           2.156
  20061473.675    -5396334.220 7  -4204934.39623        27.250           3.281
  21443687.690   -13630684.041 7 -10387775.88122        20.500           2.125
 91  7 11  2 46 44.9990000  0  3G 3G17G23
  20257063.206    -2348371.817 7  -1829900.24622        24.750           2.250
  20059418.284    -5407135.541 7  -4213351.00623        27.500           3.344
  21434499.581   -13678967.410 7 -10425399.25922        20.250           2.094
 91  7 11  2 46 59.9990000  0  3G 3G17G23
  20257956.003    -2343676.103 7  -1826241.26422        24.000           2.219
  20057376.776    -5417865.184 7  -4221711.76623        27.750           3.281
  21425326.730   -13727162.832 7 -10462954.11422        20.250           2.125
 91  7 11  2 47 14.9990000  0  3G 3G17G23
  20258871.300    -2338863.917 7  -1822491.51322        23.750           2.156
  20055347.909    -5428525.449 7  -4230018.47224        27.000           3.500
  21416173.550   -13775271.850 7 -10500441.63622        21.000           2.094
 91  7 11  2 47 29.9990000  0  3G 3G17G23
  20259808.940    -2333938.204 7  -1818653.30322        24.250           2.188
  20053330.519    -5439119.449 7  -4238273.54023        26.500           3.375
  21407032.761   -13823297.556 7 -10537864.24622        21.500           2.219
 91  7 11  2 47 44.9990000  0  3G 3G17G23
  20260769.503    -2328896.563 7  -1814724.76022        24.750           2.250
  20051328.167    -5449644.981 7  -4246475.26523        26.750           3.438
  21397912.214   -13871237.334 7 -10575219.90622        21.750           2.188
 91  7 11  2 47 59.9990000  0  3G 3G17G23
  20261751.011    -2323741.384 7  -1810707.74822        25.250           2.188
  20049338.253    -5460104.547 7  -4254625.57723        26.750           3.438
  21388805.308   -13919093.546 7 -10612510.43822        22.250           2.281
 91  7 11  2 48 14.9990000  0  3G 3G17G23
  20262752.183    -2318473.492 7  -1806602.90622        25.500           2.250
  20047359.940    -5470499.034 7  -4262725.17623        26.000           3.438
  21379714.644   -13966867.069 7 -10649736.54622        22.250           2.344
 91  7 11  2 48 29.9990000  0  3G 3G17G23
  20263776.386    -2313091.793 7  -1802409.37722        25.500           2.094
  20045394.605    -5480826.838 7  -4270772.81824        25.750           3.594
  21370638.753   -14014556.270 7 -10686896.94322        22.500           2.406
 91  7 11  2 48 44.9990000  0  3G 3G17G23
  20264824.214    -2307592.554 7  -1798124.26722        25.500           2.125
  20043442.987    -5491085.020 7  -4278766.20524        26.750           3.656
  21361581.605   -14062157.725 7 -10723988.97022        22.000           2.406
 91  7 11  2 48 59.9990000  0  3G 3G17G23
  20265892.401    -2301979.081 7  -1793750.14322        25.500           2.125
  20041503.448    -5501276.815 7  -4286707.86824        27.000           3.688
  21352536.644   -14109674.581 7 -10761015.08222        21.250           2.438
 91  7 11  2 49 14.9990000  0  3G 3G17G23
  20266981.730    -2296247.536 7  -1789284.00622        25.000           2.063
  20039577.503    -5511398.438 7  -4294594.85224        27.500           3.625
  21343512.448   -14157102.773 7 -10797972.09922        20.750           2.469
 91  7 11  2 49 29.9990000  0  3G 3G17G23
  20268093.690    -2290400.848 7  -1784728.14922        24.500           2.156
  20037663.964    -5521453.050 7  -4302429.61724        27.000           3.625
  21334504.550   -14204445.409 7 -10834862.44823        21.250           2.500
 91  7 11  2 49 44.9990000  0  3G 3G17G23
  20269228.909    -2284439.624 7  -1780083.04922        24.250           2.094
  20035762.386    -5531441.154 7  -4310212.55424        26.500           3.531
  21325511.495   -14251702.598 7 -10871686.21623        20.750           2.531
 91  7 11  2 49 59.9990000  0  3G 3G17G23
  20270385.300    -2278358.203 7  -1775344.29322        24.250           2.063
  20033876.769    -5541357.485 7  -4317939.56423        27.000           3.438
  21316536.394   -14298869.103 7 -10908439.31423        20.750           2.531
 91  7 11  2 50 14.9990000  0  3G 3G17G23
  20271564.901    -2272161.422 7  -1770515.63622        24.250           2.000
  20032002.480    -5551206.673 7  -4325614.26023        27.250           3.375
  21307577.409   -14345949.139 7 -10945125.03423        20.750           2.563
 91  7 11  2 50 29.9990000  0  3G 3G17G23
  20272766.401    -2265849.555 7  -1765597.31322        24.000           2.031
  20030140.198    -5560989.136 7  -4333236.95723        27.000           3.375
  21298634.581   -14392942.938 7 -10981743.55723        20.500           2.531
 91  7 11  2 50 44.9990000  0  3G 3G17G23
  20273990.394    -2259417.333 7  -1760585.20822        24.000           2.063
  20028292.011    -5570699.748 7  -4340803.66323        27.250           3.469
  21289706.964   -14439845.543 6 -11018291.02022        19.750           2.438
 91  7 11  2 50 59.9990000  0  3G 3G17G23
  20275235.933    -2252870.026 7  -1755483.41522        24.000           2.094
  20026456.964    -5580343.926 7  -4348318.60624        27.500           3.531
  21280801.245   -14486661.900 7 -11054771.28122        20.500           2.406
 91  7 11  2 51 14.9990000  0  3G 3G17G23
  20276504.972    -2246203.280 7  -1750288.55122        24.000           2.031
  20024636.105    -5589917.314 7  -4355778.39224        27.750           3.594
  21271910.292   -14533387.667 7 -11091180.94622        21.500           2.438
 91  7 11  2 51 29.9990000  0  3G 3G17G23
  20277796.456    -2239417.401 7  -1745000.85922        24.250           2.000
  20022826.698    -5599420.364 7  -4363183.36724        27.000           3.781
  21263035.073   -14580022.843 7 -11127520.02423        21.750           2.500
 91  7 11  2 51 44.9990000  0  3G 3G17G23
  20279111.253    -2232513.136 7  -1739620.91122        24.500           1.969
  20021030.456    -5608853.809 7  -4370534.10924        26.500           3.750
  21254177.948   -14626568.039 7 -11163788.99023        22.250           2.563
 91  7 11  2 51 59.9990000  0  3G 3G17G23
  20280447.042    -2225490.815 7  -1734148.97822        24.750           1.906
  20019250.972    -5618218.104 7  -4377830.96624        26.500           3.625
  21245335.433   -14673023.597 7 -11199988.11323        21.750           2.625
 91  7 11  2 52 14.9990000  0  3G 3G17G23
  20281804.542    -2218350.850 7  -1728585.36722        24.250           1.906
  20017481.144    -5627513.897 7  -4385074.44924        26.250           3.594
  21236512.862   -14719390.117 7 -11236117.86123        22.250           2.625
 91  7 11  2 52 29.9990000  0  3G 3G17G23
  20283187.042    -2211090.625 7  -1722928.05222        24.500           1.969
  20015724.190    -5636738.743 7  -4392262.64223        25.250           3.375
  21227707.605   -14765664.524 7 -11272175.82423        23.250           2.656
 91  7 11  2 52 44.9990000  0  3G 3G17G23
  20284589.909    -2203712.209 7  -1717178.64022        24.000           1.938
  20013984.440    -5645894.889 7  -4399397.30923        26.000           3.313
  21218919.323   -14811849.191 7 -11308163.86823        23.500           2.656
 91  7 11  2 52 59.9990000  0  3G 3G17G23
  20286017.276    -2196214.940 7  -1711336.61422        24.500           1.969
  20012255.011    -5654981.485 7  -4406477.78123        25.500           3.063
  21210149.503   -14857943.083 7 -11344081.16923        24.000           2.563
 91  7 11  2 53 14.9990000  0  3G 3G17G23
  20287466.651    -2188600.396 7  -1705403.21222        25.000           2.000
  20010538.769    -5664000.134 7  -4413505.30323        26.500           3.156
  21201392.972   -14903947.517 7 -11379928.76223        22.750           2.500
 91  7 11  2 53 29.9990000  0  3G 3G17G23
  20288937.331    -2180867.170 7  -1699377.33022        24.250           2.031
  20008834.370    -5672949.563 7  -4420478.89123        26.500           3.063
  21192655.870   -14949861.048 7 -11415705.52523        22.750           2.563
 91  7 11  2 53 44.9990000  0  3G 3G17G23
  20290431.448    -2173019.566 7  -1693262.31322        24.000           2.281
  20007144.253    -5681834.218 7  -4427401.99923        26.250           3.125
  21183935.519   -14995688.008 7 -11451414.82523        23.250           2.563
 91  7 11  2 53 59.9990000  0  3G 3G17G23
  20291947.409    -2165052.706 7  -1687054.38522        23.500           2.094
  20005466.839    -5690649.367 7  -4434270.94623        26.250           3.156
  21175232.026   -15041423.472 7 -11487052.83323        23.000           2.563
 91  7 11  2 54 14.9990000  0  3G 3G17G23
  20293485.175    -2156970.423 7  -1680756.50322        23.250           2.156
  20003801.644    -5699398.780 7  -4441088.67323        26.750           3.219
  21166545.190   -15087070.904 7 -11522622.25123        22.750           2.594
 91  7 11  2 54 29.9990000  0  3G 3G17G23
  20295045.886    -2148767.801 7  -1674364.85122        23.000           2.031
  20002150.855    -5708077.551 7  -4447851.34823        27.000           3.250
  21157877.105   -15132625.461 7 -11558119.29323        22.750           2.719
 91  7 11  2 54 44.9990000  0  3G 3G17G23
  20296630.589    -2140444.867 7  -1667879.45022        23.250           1.906
  20000512.792    -5716686.011 7  -4454559.25523        27.500           3.406
  21149224.519   -15178087.116 7 -11593543.94223        21.500           2.844
 91  7 11  2 54 59.9980000  0  3G 3G17G23
  20298235.959    -2132001.582 7  -1661300.27322        23.000           1.969
  19998888.068    -5725223.008 7  -4461211.46524        27.250           3.531
  21140593.342   -15223452.328 7 -11628893.43623        22.000           2.906
 91  7 11  2 55 14.9980000  0  3G 3G17G23
  20299867.725    -2123433.302 7  -1654623.70422        24.000           1.844
  19997277.475    -5733686.226 7  -4467806.18624        27.250           3.563
  21131978.482   -15268723.208 7 -11664169.43223        21.000           2.938
 91  7 11  2 55 29.9980000  0  3G 3G17G23
  20301521.897    -2114745.336 7  -1647853.86922        24.250           1.844
  19995680.311    -5742079.761 7  -4474346.60624        26.750           3.625
  21123379.717   -15313901.353 7 -11699373.15723        21.250           2.906
 91  7 11  2 55 44.9980000  0  3G 3G17G23
  20303197.092    -2105937.827 7  -1640990.88022        24.000           1.781
  19994095.717    -5750403.914 7  -4480832.96224        26.750           3.625
  21114803.100   -15358986.809 7 -11734504.67123        22.000           2.813
 91  7 11  2 55 59.9980000  0  3G 3G17G23
  20304895.600    -2097009.057 7  -1634033.39422        23.750           1.844
  19992525.115    -5758656.949 7  -4487263.90424        27.000           3.719
  21106239.998   -15403977.741 7 -11769562.52423        21.500           2.813
 91  7 11  2 56 14.9980000  0  3G 3G17G23
  20306619.029    -2087958.903 7  -1626981.32822        25.000           1.906
  19990968.607    -5766839.041 7  -4493639.55724        27.000           3.594
  21097694.748   -15448874.107 7 -11804546.68823        20.500           2.906
 91  7 11  2 56 29.9980000  0  3G 3G17G23
  20308362.357    -2078786.453 7  -1619833.97422        24.250           1.938
  19989426.350    -5774949.381 7  -4499959.30624        27.250           3.625
  21089171.428   -15493674.927 7 -11839456.40723        21.500           2.875
 91  7 11  2 56 44.9980000  0  3G 3G17G23
  20310132.240    -2069492.185 7  -1612591.69222        24.250           1.906
  19987894.693    -5782988.384 7  -4506223.46024        27.000           3.625
  21080665.631   -15538380.496 7 -11874291.90123        21.750           3.156
 91  7 11  2 56 59.9980000  0  3G 3G17G23
  20311924.881    -2060075.337 7  -1605253.88622        24.000           1.844
  19986378.834    -5790955.325 7  -4512431.47024        26.750           3.563
  21072177.662   -15582989.881 7 -11909052.42723        22.000           3.031
 91  7 11  2 57 14.9980000  0  3G 3G17G23
  20313738.014    -2050544.516 7  -1597827.28022        24.250           1.875
  19984875.225    -5798858.732 7  -4518589.96824        26.250           3.594
  21063703.084   -15627511.588 7 -11943744.65123        22.000           3.063
 91  7 11  2 57 29.9980000  0  3G 3G17G23
  20315575.600    -2040888.474 7  -1590303.10222        24.000           1.844
  19983384.959    -5806687.612 7  -4524690.39424        26.500           3.531
  21055249.186   -15671934.443 7 -11978359.84923        22.250           3.125
 91  7 11  2 57 44.9980000  0  3G 3G17G23
  20317435.287    -2031111.718 7  -1582684.85422        23.750           1.875
  19981908.545    -5814446.784 7  -4530736.50824        26.500           3.625
  21046814.154   -15716262.832 7 -12012901.44223        21.500           3.125
 91  7 11  2 57 59.9980000  0  3G 3G17G23
  20319319.897    -2021210.170 7  -1574969.36922        24.000           1.875
  19980447.084    -5822131.794 7  -4536724.83524        27.000           3.594
  21038396.748   -15760492.258 7 -12047365.91123        21.500           3.125
 91  7 11  2 58 14.9980000  0  3G 3G17G23
  20321228.748    -2011186.307 7  -1567158.56322        24.750           1.844
  19978996.857    -5829745.386 7  -4542657.50423        26.500           3.469
  21029999.334   -15804625.421 7 -12081755.37423        21.500           3.063
 91  7 11  2 58 29.9980000  0  3G 3G17G23
  20323157.943    -2001042.861 7  -1559254.58422        23.750           1.938
  19977562.904    -5837290.290 7  -4548536.65424        27.750           3.750
  21021618.342   -15848664.842 7 -12116071.79523        21.500           3.000
 91  7 11  2 58 44.9980000  0  3G 3G17G23
  20325108.818    -1990781.876 7  -1551259.01722        22.750           1.750
  19976139.545    -5844768.656 8  -4554363.95024        28.000           3.750
  21013255.975   -15892612.536 7 -12150316.73523        21.750           3.000
 91  7 11  2 58 59.9980000  0  3G 3G17G23
  20327085.365    -1980398.312 7  -1543167.92522        23.500           1.656
  19974730.154    -5852175.278 7  -4560135.34524        27.250           3.656
  21004911.248   -15936463.072 7 -12184485.97523        22.000           2.875
 91  7 11  2 59 14.9980000  0  3G 3G17G23
  20329085.350    -1969892.940 7  -1534981.93322        24.000           1.750
  19973333.936    -5859511.334 7  -4565851.75524        27.500           3.500
  20996584.334   -15980217.418 7 -12218580.24923        22.000           2.906
 91  7 11  2 59 29.9980000  0  3G 3G17G23
  20331106.068    -1959266.401 7  -1526701.51522        23.250           1.781
  19971951.279    -5866777.452 8  -4571513.66923        28.000           3.375
  20988277.787   -16023875.999 7 -12252599.90323        22.500           2.844
 91  7 11  2 59 44.9980000  0  3G 3G17G23
  20333152.209    -1948517.164 7  -1518325.49022        24.000           2.031
  19970582.709    -5873972.335 7  -4577120.07023        27.250           3.250
  20979987.967   -16067437.282 7 -12286543.74423        21.750           3.000
 91  7 11  2 59 59.9980000  0  3G 3G17G23
  20335221.990    -1937642.513 7  -1509851.73822        24.000           1.969
  19969226.264    -5881092.911 7  -4582668.56923        27.000           3.281
  20971716.881   -16110898.191 7 -12320409.36923        21.500           2.813
 91  7 11  3  0 14.9980000  0  3G 3G17G23
  20337314.428    -1926647.869 7  -1501284.48922        23.750           2.156
  19967884.772    -5888144.996 7  -4588163.70523        26.750           3.250
  20963464.834   -16154264.346 7 -12354201.17023        21.750           2.906
 91  7 11  3  0 29.9980000  0  3G 3G17G23
  20339427.951    -1915535.841 7  -1492625.76322        24.000           2.125
  19966555.068    -5895131.080 7  -4593607.40723        26.250           3.281
  20955230.693   -16197537.987 7 -12387920.87223        22.250           2.719
 91  7 11  3  0 44.9980000  0  3G 3G17G23
  20341568.037    -1904301.354 7  -1483871.62822        25.250           2.156
  19965239.607    -5902045.991 7  -4598995.65223        26.500           3.406
  20947015.295   -16240713.774 7 -12421564.32223        22.000           2.656
 91  7 11  3  0 59.9980000  0  3G 3G17G23
  20343728.998    -1892945.307 7  -1475022.77222        25.000           2.031
  19963937.756    -5908891.179 7  -4604329.56424        27.000           3.563
  20938817.092   -16283793.100 7 -12455132.62123        21.750           2.656
 91  7 11  3  1 14.9980000  0  3G 3G17G23
  20345912.373    -1881468.007 7  -1466079.42922        24.250           1.969
  19962646.928    -5915666.637 7  -4609609.14224        27.250           3.688
  20930637.607   -16326775.916 7 -12488625.70623        21.500           2.656
 91  7 11  3  1 29.9980000  0  3G 3G17G23
  20348119.303    -1869868.386 7  -1457040.77722        23.500           1.875
  19961372.068    -5922371.034 7  -4614833.34924        27.750           3.563
  20922474.982   -16369661.015 7 -12522042.64923        21.250           2.531
 91  7 11  3  1 44.9980000  0  3G 3G17G23
  20350350.131    -1858146.699 7  -1447907.01022        23.750           1.875
  19960108.748    -5929004.948 7  -4620002.63724        27.250           3.719
  20914334.076   -16412448.414 7 -12555383.47123        21.500           2.500
 91  7 11  3  1 59.9980000  0  3G 3G17G23
  20352605.311    -1846302.065 7  -1438677.42922        25.000           1.844
  19958860.717    -5935567.544 7  -4625116.35024        26.000           3.719
  20906212.107   -16455137.248 7 -12588647.48622        22.250           2.438
 91  7 11  3  2 14.9980000  0  3G 3G17G23
  20354882.334    -1834330.905 7  -1429349.25122        24.000           1.875
  19957625.654    -5942055.428 7  -4630171.85024        25.750           3.688
  20898107.936   -16497723.768 7 -12621831.77423        22.500           2.500
 91  7 11  3  2 29.9980000  0  3G 3G17G23
  20357185.725    -1822231.415 7  -1419921.08422        24.500           1.906
  19956404.912    -5948466.743 7  -4635167.68724        25.750           3.594
  20890022.193   -16540205.982 7 -12654934.78723        21.500           2.500
 91  7 11  3  2 44.9980000  0  3G 3G17G23
  20359511.037    -1810012.518 7  -1410399.87522        24.000           1.688
  19955198.904    -5954810.191 7  -4640110.63824        25.750           3.594
  20881957.115   -16582592.657 7 -12687963.34923        22.250           2.719
 91  7 11  3  2 59.9980000  0  3G 3G17G23
  20361858.756    -1797670.761 7  -1400782.92922        23.250           1.781
  19954004.857    -5961082.751 7  -4644998.34224        26.250           3.719
  20873910.053   -16624880.547 7 -12720914.93123        21.750           2.594
 91  7 11  3  3 14.9980000  0  3G 3G17G23
  20364231.561    -1785204.957 7  -1391069.32122        23.000           1.844
  19952824.350    -5967283.156 7  -4649829.82824        26.750           3.563
  20865881.951   -16667068.058 7 -12753788.29723        22.000           2.625
 91  7 11  3  3 29.9980000  0  3G 3G17G23
  20366627.623    -1772614.056 7  -1381258.23422        22.750           1.875
  19951660.576    -5973410.306 7  -4654604.23424        27.250           3.500
  20857872.342   -16709154.131 7 -12786582.63423        21.500           2.563
 91  7 11  3  3 44.9980000  0  3G 3G17G23
  20369043.678    -1759899.467 7  -1371350.77622        21.750           1.781
  19950508.272    -5979465.748 8  -4659322.75723        28.000           3.406
  20849882.967   -16751140.118 7 -12819298.97623        21.500           2.688
 91  7 11  3  3 59.9980000  0  3G 3G17G23
  20371487.279    -1747060.389 7  -1361346.31422        22.000           1.750
  19949368.842    -5985448.677 7  -4663984.78223        27.250           3.438
  20841913.873   -16793025.121 7 -12851936.63223        22.000           2.719
 91  7 11  3  4 14.9980000  0  3G 3G17G23
  20373956.365    -1734097.899 7  -1351245.68922        23.250           1.875
  19948242.748    -5991360.258 7  -4668591.20423        26.500           3.469
  20833959.865   -16834809.899 7 -12884496.19223        21.750           2.719
 91  7 11  3  4 29.9980000  0  3G 3G17G23
  20376446.115    -1721009.622 7  -1341047.03422        23.250           1.875
  19947132.115    -5997197.932 7  -4673140.03323        26.250           3.375
  20826029.865   -16876492.101 7 -12916975.81923        22.500           2.813
 91  7 11  3  4 44.9980000  0  3G 3G17G23
  20378960.537    -1707797.527 7  -1330751.90522        23.250           1.781
  19946034.842    -6002963.858 7  -4677632.96423        25.500           3.406
  20818117.553   -16918073.571 7 -12949376.94323        23.750           2.875
 91  7 11  3  4 59.9980000  0  3G 3G17G23
  20381497.654    -1694460.266 7  -1320359.24822        23.500           1.875
  19944951.584    -6008656.572 7  -4682068.85024        25.000           3.500
  20810223.717   -16959553.000 7 -12981698.55623        24.000           2.906
 91  7 11  3  5 14.9980000  0  3G 3G17G23
  20384060.178    -1680996.233 7  -1309867.80222        24.000           1.750
  19943882.037    -6014274.726 7  -4686446.63823        24.500           3.438
  20802351.537   -17000928.416 7 -13013939.12923        24.250           2.844
 91  7 11  3  5 29.9980000  0  3G 3G17G23
  20386645.647    -1667412.405 7  -1299283.01622        24.500           1.813
  19942826.639    -6019825.618 7  -4690772.00824        25.250           3.500
  20794495.889   -17042207.044 7 -13046104.28223        23.500           2.844
 91  7 11  3  5 44.9980000  0  3G 3G17G23
  20389255.272    -1653703.636 7  -1288600.86522        25.250           1.750
  19941783.717    -6025303.705 7  -4695040.65323        24.750           3.438
  20786659.232   -17083383.483 7 -13078189.80523        23.250           2.844
 91  7 11  3  5 59.9980000  0  3G 3G17G23
  20391886.725    -1639872.314 7  -1277823.22422        24.750           1.688
  19940756.029    -6030711.288 7  -4699254.36323        26.000           3.375
  20778841.889   -17124459.960 7 -13110197.44123        22.500           2.938
 91  7 11  3  6 14.9980000  0  3G 3G17G23
  20394539.107    -1625917.050 7  -1266948.99622        22.250           1.719
  19939740.311    -6036047.140 7  -4703412.17323        26.750           3.250
  20771046.904   -17165434.813 7 -13142125.88723        24.000           3.031
 91  7 11  3  6 29.9980000  0  3G 3G17G23
  20397220.139    -1611838.159 7  -1255978.44722        22.500           1.656
  19938738.459    -6041311.777 7  -4707514.48523        27.250           3.375
  20763267.990   -17206308.305 7 -13173975.33923        23.250           2.969
 91  7 11  3  6 44.9980000  0  3G 3G17G23
  20399923.209    -1597635.390 7  -1244911.35722        23.250           1.656
  19937750.943    -6046504.645 7  -4711560.87623        27.500           3.375
  20755509.029   -17247080.112 7 -13205745.56123        22.500           3.063
 91  7 11  3  6 59.9980000  0  3G 3G17G23
  20402649.592    -1583310.791 7  -1233749.34622        23.750           1.688
  19936774.654    -6051628.073 7  -4715553.15123        27.000           3.375
  20747770.529   -17287752.275 7 -13237438.14823        23.250           3.031
 91  7 11  3  7 14.9980000  0  3G 3G17G23
  20405398.334    -1568860.667 7  -1222489.51822        23.250           1.531
  19935814.217    -6056678.049 7  -4719488.19323        26.750           3.406
  20740050.498   -17328320.694 7 -13269049.88523        23.750           3.063
 91  7 11  3  7 29.9980000  0  3G 3G17G23
  20408172.178    -1554283.087 7  -1211130.38022        23.000           1.594
  19934869.076    -6061652.901 7  -4723364.70123        26.750           3.344
  20732351.943   -17368783.619 7 -13300579.42323        24.250           3.000
 91  7 11  3  7 44.9980000  0  3G 3G17G23
  20410970.350    -1539583.926 7  -1199676.48822        23.250           1.563
  19933932.998    -6066558.845 7  -4727187.51023        25.750           3.406
  20724670.045   -17409146.920 7 -13332031.33323        23.750           2.875
 91  7 11  3  7 59.9980000  0  3G 3G17G23
  20413789.647    -1524760.221 7  -1188125.55522        22.500           1.656
  19933014.428    -6071392.267 7  -4730953.81524        26.250           3.656
  20717009.967   -17449406.931 7 -13363402.75223        23.500           2.875
 91  7 11  3  8 14.9980000  0  3G 3G17G23
  20416634.092    -1509811.499 7  -1176477.21722        23.750           1.750
  19932107.475    -6076153.223 7  -4734663.65124        25.000           3.625
  20709367.061   -17489563.637 7 -13394693.67323        23.250           2.938
 91  7 11  3  8 29.9980000  0  3G 3G17G23
  20419503.725    -1494736.626 7  -1164730.56822        24.000           1.688
  19931216.318    -6080840.525 7  -4738316.09824        25.250           3.594
  20701743.623   -17529615.482 7 -13425902.88623        22.750           2.906
 91  7 11  3  8 44.9980000  0  3G 3G17G23
  20422397.022    -1479538.197 7  -1152887.64422        24.750           1.656
  19930337.959    -6085456.780 7  -4741913.17624        24.750           3.531
  20694142.209   -17569565.095 7 -13457032.43823        23.250           2.938
 91  7 11  3  8 59.9980000  0  3G 3G17G23
  20425313.693    -1464211.103 7  -1140944.45222        24.500           1.656
  19929473.412    -6089996.711 7  -4745450.78324        24.500           3.531
  20686560.584   -17609407.288 7 -13488078.28423        23.750           3.000
 91  7 11  3  9 14.9980000  0  3G 3G17G23
  20428254.029    -1448758.730 7  -1128903.64622        24.500           1.594
  19928623.084    -6094463.493 7  -4748931.39724        24.000           3.594
  20679000.045   -17649144.944 7 -13519042.68023        24.000           2.875
 91  7 11  3  9 29.9980000  0  3G 3G17G23
  20431217.428    -1433182.547 7  -1116766.36922        24.250           1.688
  19927786.865    -6098859.067 7  -4752356.51524        24.500           3.750
  20671455.264   -17688779.835 7 -13549926.98823        23.500           2.938
 91  7 11  3  9 44.9980000  0  3G 3G17G23
  20434205.373    -1417488.707 7  -1104537.40722        24.250           1.750
  19926962.857    -6103189.495 7  -4755730.87424        25.000           3.625
  20663932.803   -17728317.870 7 -13580735.82923        23.750           3.031
 91  7 11  3  9 59.9980000  0  3G 3G17G23
  20437216.053    -1401669.611 7  -1092210.83922        24.250           1.688
  19926152.225    -6107447.184 7  -4759048.55424        25.000           3.563
  20656429.537   -17767751.483 7 -13611463.30223        24.250           3.000
 91  7 11  3 10 14.9980000  0  3G 3G17G23
  20440249.834    -1385724.330 7  -1079785.95022        23.500           1.688
  19925356.389    -6111631.185 7  -4762308.81624        25.250           3.656
  20648944.397   -17807079.424 7 -13642108.43523        24.000           2.813
 91  7 11  3 10 29.9980000  0  3G 3G17G23
  20443305.381    -1369655.314 7  -1067264.64622        22.500           1.688
  19924574.107    -6115743.807 7  -4765513.46024        25.750           3.594
  20641479.053   -17846303.899 7 -13672672.94823        23.500           2.844
 91  7 11  3 10 44.9980000  0  3G 3G17G23
  20446386.365    -1353460.896 7  -1054645.62622        21.750           1.656
  19923805.568    -6119783.440 7  -4768661.22423        26.250           3.469
  20634035.022   -17885423.299 7 -13703155.58023        24.250           3.031
 91  7 11  3 10 59.9980000  0  3G 3G17G23
  20449492.881    -1337142.245 7  -1041929.79622        22.500           1.750
  19923049.811    -6123751.531 7  -4771753.24124        26.000           3.531
  20626611.615   -17924438.773 7 -13733557.23423        24.500           3.188
 91  7 11  3 11 14.9980000  0  3G 3G17G23
  20452622.232    -1320699.565 7  -1029117.31922        22.750           1.844
  19922307.639    -6127647.987 7  -4774789.44124        26.000           3.688
  20619209.787   -17963350.079 7 -13763877.70723        25.000           3.313
 91  7 11  3 11 29.9980000  0  3G 3G17G23
  20455774.350    -1304134.661 7  -1016209.60122        23.250           1.938
  19921579.412    -6131474.615 7  -4777771.23224        25.250           3.781
  20611822.412   -18002159.309 7 -13794118.64023        24.500           3.375
 91  7 11  3 11 44.9980000  0  3G 3G17G23
  20458950.553    -1287446.043 7  -1003205.49122        24.250           1.906
  19920866.365    -6135229.877 7  -4780697.40924        25.000           3.594
  20604456.248   -18040864.544 7 -13824278.54423        23.750           3.375
 91  7 11  3 11 59.9980000  0  3G 3G17G23
  20462149.803    -1270634.776 7   -990105.80022        24.250           2.000
  19920163.686    -6138914.951 7  -4783568.89224        24.500           3.594
  20597111.256   -18079466.757 7 -13854358.17423        24.250           3.188
 91  7 11  3 12 14.9980000  0  3G 3G17G23
  20465372.529    -1253698.729 7   -976908.88922        23.750           1.844
  19919476.936    -6142527.723 7  -4786384.03724        25.250           3.719
  20589783.959   -18117963.795 7 -13884355.85723        23.750           3.313
 91  7 11  3 12 29.9980000  0  3G 3G17G23
  20468619.264    -1236639.826 7   -963616.23722        24.500           1.875
  19918803.436    -6146069.770 7  -4789144.07724        25.000           3.719
  20582479.568   -18156357.542 7 -13914273.04723        24.000           3.250
 91  7 11  3 12 44.9980000  0  3G 3G17G23
  20471889.506    -1219454.218 7   -950224.85322        23.750           1.781
  19918143.139    -6149537.360 7  -4791846.09824        24.250           3.781
  20575195.084   -18194643.926 7 -13944106.57323        24.500           3.219
 91  7 11  3 12 59.9980000  0  3G 3G17G23
  20475185.537    -1202137.666 7   -936731.43822        23.750           1.781
  19917497.951    -6152926.589 7  -4794487.05924        24.250           3.750
  20567929.350   -18232818.714 7 -13973853.13723        24.500           3.281
 91  7 11  3 13 14.9980000  0  3G 3G17G23
  20478504.514    -1184694.412 7   -923139.30022        23.500           1.719
  19916867.170    -6156241.392 7  -4797070.01424        24.000           3.688
  20560684.670   -18270885.710 7 -14003515.71923        24.750           3.281
 91  7 11  3 13 29.9980000  0  3G 3G17G23
  20481847.334    -1167126.126 7   -909449.73622        23.500           1.875
  19916251.131    -6159483.758 7  -4799596.52424        24.500           3.781
  20553462.287   -18308846.611 7 -14033095.63323        24.250           3.063
 91  7 11  3 13 44.9980000  0  3G 3G17G23
  20485213.201    -1149433.310 7   -895663.13422        23.000           1.750
  19915647.834    -6162654.017 7  -4802066.85724        25.750           3.719
  20546258.990   -18346702.030 7 -14062593.33923        24.250           3.031
 91  7 11  3 13 59.9980000  0  3G 3G17G23
  20488603.537    -1131612.391 7   -881776.70322        22.500           1.844
  19915059.951    -6165748.564 7  -4804478.19124        26.000           3.781
  20539075.795   -18384448.053 7 -14092005.81023        24.500           3.000
 91  7 11  3 14 14.9980000  0  3G 3G17G23
  20492019.248    -1113668.685 7   -867794.59822        22.250           1.781
  19914483.857    -6168772.559 7  -4806834.54924        26.000           3.813
  20531911.787   -18422089.834 7 -14121337.05523        24.250           2.969
 91  7 11  3 14 29.9980000  0  3G 3G17G23
  20495457.334    -1095601.383 7   -853716.19622        22.500           1.750
  19913923.248    -6171725.307 7  -4809135.39224        26.750           3.906
  20524767.670   -18459626.551 7 -14150586.42623        23.750           3.031
 91  7 11  3 14 44.9980000  0  3G 3G17G23
  20498918.889    -1077407.950 7   -839539.49222        22.250           1.750
  19913374.662    -6174603.930 7  -4811378.47024        26.750           3.938
  20517645.006   -18497055.279 7 -14179751.65623        23.750           2.906
 91  7 11  3 14 59.9980000  0  3G 3G17G23
  20502406.740    -1059088.698 7   -825264.75322        23.000           1.750
  19912839.357    -6177409.300 7  -4813564.47924        25.750           3.938
  20510543.842   -18534376.664 7 -14208833.24123        24.000           3.000
 91  7 11  3 15 14.9980000  0  3G 3G17G23
  20505917.006    -1040644.438 7   -810892.61022        23.000           1.813
  19912319.881    -6180141.981 7  -4815693.84524        25.750           3.906
  20503462.514   -18571591.214 7 -14237831.57323        24.500           2.938
 91  7 11  3 15 29.9980000  0  3G 3G17G23
  20509448.631    -1022076.750 7   -796424.28522        22.500           1.750
  19911812.897    -6182803.333 7  -4817767.62624        25.750           3.875
  20496400.568   -18608700.093 7 -14266747.56823        24.500           2.938
 91  7 11  3 15 44.9980000  0  3G 3G17G23
  20513004.873    -1003384.172 7   -781858.64522        21.500           1.781
  19911320.459    -6185392.086 7  -4819784.83524        25.500           3.844
  20489361.568   -18645702.078 7 -14295580.26623        25.250           2.813
 91  7 11  3 15 59.9980000  0  3G 3G17G23
  20516585.334     -984567.708 7   -767196.47722        21.250           1.719
  19910841.756    -6187909.100 7  -4821746.14524        26.250           3.781
  20482340.467   -18682597.967 7 -14324330.29223        25.250           2.906
 91  7 11  3 16 14.9980000  0  3G 3G17G23
  20520191.240     -965626.247 7   -752436.91322        22.000           1.688
  19910377.678    -6190353.122 7  -4823650.58024        26.250           3.781
  20475337.725   -18719386.383 7 -14352996.57423        24.750           2.875
 91  7 11  3 16 29.9980000  0  3G 3G17G23
  20523820.272     -946558.792 7   -737579.15422        22.750           1.750
  19909925.842    -6192723.620 7  -4825497.72124        26.000           3.750
  20468357.928   -18756066.365 7 -14381578.36223        24.500           2.938
 91  7 11  3 16 44.9980000  0  3G 3G17G23
  20527472.264     -927366.863 7   -722624.41222        22.750           1.750
  19909488.053    -6195021.566 7  -4827288.33024        25.500           3.750
  20461399.693   -18792639.107 7 -14410076.59123        24.750           3.031
 91  7 11  3 16 59.9980000  0  3G 3G17G23
  20531146.881     -908049.456 7   -707571.88222        21.750           1.813
  19909065.209    -6197246.223 7  -4829021.82524        26.000           3.750
  20454458.920   -18829103.630 7 -14438490.48723        24.000           3.031
 91  7 11  3 17 14.9980000  0  3G 3G17G23
  20534847.561     -888605.237 7   -692420.55022        22.250           1.813
  19908656.490    -6199396.071 7  -4830697.02924        24.750           3.656
  20447541.420   -18865458.310 7 -14466818.80123        24.750           3.063
 91  7 11  3 17 29.9980000  0  3G 3G17G23
  20538571.748     -869034.911 7   -677170.95622        22.500           1.781
  19908260.818    -6201472.016 7  -4832314.65824        24.750           3.750
  20440644.506   -18901704.153 7 -14495062.30223        25.750           3.000
 91  7 11  3 17 44.9980000  0  3G 3G17G23
  20542320.670     -849336.222 7   -661821.33322        22.750           1.719
  19907881.686    -6203471.347 7  -4833872.57524        25.000           3.625
  20433767.420   -18937838.288 7 -14523218.75623        24.750           3.031
 91  7 11  3 17 59.9980000  0  3G 3G17G23
  20546092.764     -829511.999 7   -646373.88822        22.000           1.688
  19907513.857    -6205397.092 7  -4835373.15824        25.000           3.906
  20426912.654   -18973863.422 7 -14551290.27423        25.500           3.125
 91  7 11  3 18 14.9980000  0  3G 3G17G23
  20549887.381     -809566.276 7   -630831.76822        21.750           1.719
  19907159.842    -6207253.261 7  -4836819.52324        24.500           3.781
  20420078.428   -19009783.707 7 -14579280.08923        26.000           3.125
 91  7 11  3 18 29.9980000  0  3G 3G17G23
  20553707.029     -789496.615 7   -615193.08322        21.750           1.625
  19906821.272    -6209037.451 7  -4838209.80324        25.500           3.813
  20413261.482   -19045596.520 7 -14607186.16723        25.000           3.125
 91  7 11  3 18 44.9980000  0  3G 3G17G23
  20557549.068     -769302.783 7   -599457.63322        21.500           1.563
  19906494.334    -6210749.235 7  -4839543.66124        25.250           3.781
  20406468.678   -19081301.321 7 -14635008.08123        26.000           3.281
 91  7 11  3 18 59.9980000  0  3G 3G17G23
  20561414.803     -748989.087 7   -583628.78322        22.250           1.750
  19906181.264    -6212392.792 7  -4840824.35124        25.500           3.750
  20399692.897   -19116902.274 7 -14662749.07523        24.750           3.219
 91  7 11  3 19 14.9980000  0  3G 3G17G23
  20565304.615     -728550.851 7   -567702.88722        22.250           1.625
  19905884.022    -6213963.749 7  -4842048.47324        26.250           3.688
  20392938.256   -19152394.997 7 -14690405.73223        24.250           3.313
 91  7 11  3 19 29.9980000  0  3G 3G17G23
  20569216.647     -707988.027 7   -551679.91322        21.500           1.688
  19905599.068    -6215461.697 7  -4843215.70224        26.500           3.750
  20386206.584   -19187779.109 7 -14717977.76023        25.000           3.344
 91  7 11  3 19 44.9980000  0  3G 3G17G23
  20573154.186     -687303.901 7   -535562.42322        22.500           1.719
  19905327.443    -6216890.115 7  -4844328.75424        26.500           3.750
  20379493.217   -19223057.638 7 -14745467.50623        25.000           3.406
 91  7 11  3 19 59.9980000  0  3G 3G17G23
  20577113.881     -666492.857 7   -519346.03722        23.250           1.719
  19905069.678    -6218243.245 7  -4845383.14124        26.500           3.813
  20372801.037   -19258224.828 7 -14772870.49324        24.750           3.500
 91  7 11  3 20 14.9980000  0  3G 3G17G23
  20581097.272     -645556.235 7   -503031.77922        23.500           1.625
  19904825.225    -6219522.472 7  -4846379.94924        25.750           3.844
  20366130.303   -19293281.965 7 -14800187.72823        24.500           3.375
 91  7 11  3 20 29.9980000  0  3G 3G17G23
  20585105.654     -624494.595 7   -486620.11622        23.000           1.625
  19904597.779    -6220728.036 7  -4847319.35024        26.500           3.781
  20359479.592   -19328229.608 7 -14827419.64224        24.250           3.500
 91  7 11  3 20 44.9980000  0  3G 3G17G23
  20589137.350     -603309.637 7   -470112.35622        23.250           1.563
  19904381.389    -6221861.513 7  -4848202.57624        26.500           3.844
  20352850.693   -19363069.036 7 -14854567.23523        24.250           3.469
 91  7 11  3 20 59.9980000  0  3G 3G17G23
  20593192.951     -581998.811 7   -453506.51921        23.500           1.469
  19904178.522    -6222920.824 7  -4849028.00924        26.500           3.813
  20346238.912   -19397797.697 7 -14881628.52023        23.500           3.344
 91  7 11  3 21 14.9980000  0  3G 3G17G23
  20597272.373     -560563.704 7   -436803.84321        23.500           1.469
  19903991.975    -6223907.177 7  -4849796.59924        26.000           3.969
  20339651.990   -19432417.153 7 -14908604.69723        24.250           3.281
 91  7 11  3 21 29.9980000  0  3G 3G17G23
  20601374.279     -539003.268 7   -420003.51022        22.750           1.500
  19903817.928    -6224819.426 7  -4850507.43524        25.750           3.906
  20333086.404   -19466926.132 7 -14935494.80023        25.500           3.188
 91  7 11  3 21 44.9980000  0  3G 3G17G23
  20605501.732     -517318.116 7   -403105.99422        22.250           1.625
  19903659.397    -6225658.162 7  -4851160.99124        25.000           3.781
  20326540.717   -19501324.971 7 -14962299.08423        25.750           3.156
 91  7 11  3 21 59.9980000  0  3G 3G17G23
  20609650.725     -495513.406 7   -386115.32322        21.250           1.719
  19903512.334    -6226428.825 7  -4851761.51324        25.500           3.688
  20320015.982   -19535619.123 7 -14989021.79023        26.250           3.094
 91  7 11  3 22 14.9980000  0  3G 3G17G23
  20613824.029     -473583.017 7   -369026.71422        21.750           1.656
  19903378.561    -6227124.764 7  -4852303.80424        25.500           3.656
  20313510.240   -19569802.087 7 -15015657.85023        26.000           3.031
 91  7 11  3 22 29.9980000  0  3G 3G17G23
  20618020.998     -451527.079 7   -351840.27322        21.250           1.719
  19903260.654    -6227746.310 7  -4852788.12224        25.250           3.688
  20307025.904   -19603873.910 7 -15042207.31423        26.000           3.094
 91  7 11  3 22 44.9980000  0  3G 3G17G23
  20622239.842     -429349.938 7   -334559.38922        20.500           1.688
  19903154.592    -6228297.774 7  -4853217.83624        25.500           3.594
  20300563.670   -19637838.574 7 -15068673.27623        26.250           3.125
 91  7 11  3 22 59.9980000  0  4G 3G21G17G23
  20626482.490     -407052.743 7   -317184.95722        20.250           1.594
  23878451.647          -0.94812                         4.750
  19903065.404    -6228780.183 7  -4853593.74124        25.500           3.625
  20294119.162   -19671697.133 7 -15095056.55023        25.500           3.094
 91  7 11  3 23 14.9980000  0  4G 3G21G17G23
  20630751.443     -384628.506 7   -299711.52222        21.750           1.531
  23866672.498      -61885.598 3                         5.000
  19902987.475    -6229186.378 7  -4853910.25824        25.750           3.656
  20287696.107   -19705442.528 7 -15121351.65423        24.500           3.094
 91  7 11  3 23 29.9980000  0  4G 3G21G17G23
  20635041.732     -362080.275 7   -282141.48022        21.500           1.500
  23854906.764     -123734.207 3                         5.500
  19902926.482    -6229519.172 7  -4854169.58724        27.000           3.688
  20281296.803   -19739077.719 7 -15147560.88623        24.250           3.031
 91  7 11  3 23 44.9980000  0  4G 3G21G17G23
  20639356.389     -339405.111 7   -264472.53322        21.000           1.531
  23843141.178     -185543.746 3                         5.500
  19902875.818    -6229775.823 7  -4854369.56924        26.250           3.875
  20274918.209   -19772599.698 7 -15173681.88823        25.000           3.188
 91  7 11  3 23 59.9980000  0  4G 3G21G17G23
  20643695.600     -316606.755 7   -246707.60022        21.000           1.531
  23831385.475     -247317.800 4                         6.250
  19902840.420    -6229960.121 7  -4854513.17324        26.250           3.906
  20268558.584   -19806011.945 7 -15199717.39923        24.750           3.125
 91  7 11  3 24 14.9980000  0  4G 3G21G17G23
  20648057.139     -293686.013 7   -228847.28121        20.500           1.406
  23819643.061     -309056.844 4        -0.48231         7.000           0.156
  19902818.467    -6230072.752 7                        26.000
  20262222.623   -19839315.173 7 -15225667.96223        25.500           3.188
 91  7 11  3 24 29.9980000  0  4G 3G21G17G23
  20652441.857     -270641.388 7   -210890.43422        20.250           1.500
  23807897.381     -370758.920 5    -48079.97321         7.500           0.219
  19902812.334    -6230112.055 7                        25.750
  20255907.732   -19872507.694 7 -15251532.25623        26.000           3.188
 91  7 11  3 24 44.9980000  0  4G 3G21G17G23
  20656852.201     -247466.436 7   -192832.03321        21.000           1.469
  23796166.482     -432417.434 5    -96125.50321         7.500           0.156
  19902818.147    -6230071.549 7                        27.000
  20249610.740   -19905582.960 7 -15277305.17623        24.250           3.344
 91  7 11  3 24 59.9980000  0  4G 3G21G17G23
  20661287.639     -224164.061 7   -174674.34422        22.000           1.500
  23784441.381     -494035.231 5   -144139.31321         7.750           0.094
  19902841.740    -6229954.303 7                        26.000
  20243340.498   -19938543.974 7 -15302989.07323        25.250           3.469
 91  7 11  3 25 14.9980000  0  4G 3G21G17G23
  20665744.365     -200739.147 7   -156421.16622        21.750           1.563
  23772721.943     -555616.806 5   -192124.84221         8.000           0.094
  19902879.834    -6229764.789 7                        26.250
  20237089.647   -19971395.287 7 -15328587.48124        25.500           3.500
 91  7 11  3 25 29.9980000  0  4G 3G21G17G23
  20670224.287     -177192.504 7   -138073.13822        20.750           1.500
  23761011.732     -617162.562 5   -240082.50421         8.250           0.063
  19902927.303    -6229503.806 7                        26.500
  20230858.061   -20004137.441 7 -15354100.83824        25.750           3.531
 91  7 11  3 25 44.9980000  0  4G 3G21G17G23
  20674730.592     -153518.239 7   -119625.66521        20.750           1.469
  23749308.686     -678666.433 5   -288007.51621         8.250           0.031
  19902993.561    -6229165.317 7  -4853893.86424        26.750           3.844
  20224650.451   -20036764.582 7 -15379524.57123        25.750           3.469
 91  7 11  3 25 59.9980000  0  4G 3G21G17G23
  20679258.045     -129721.697 7   -101082.90422        20.500           1.500
  23737612.584     -740133.441 5   -335903.82721         8.250           0.125
  19903070.545    -6228754.836 7  -4853574.00724        26.750           3.844
  20218462.186   -20069281.706 7 -15404862.57924        25.250           3.625
 91  7 11  3 26 14.9980000  0  4G 3G21G17G23
  20683807.756     -105805.874 6    -82447.21322        19.500           1.500
  23725921.209     -801566.400 5   -383773.63321         8.750           0.125
  19903158.975    -6228275.229 7  -4853200.28024        26.500           3.688
  20212292.740   -20101691.844 7 -15430117.21424        25.000           3.719
 91  7 11  3 26 29.9980000  0  4G 3G21G17G23
  20688383.232      -81770.492 7    -63718.35122        20.500           1.563
  23714237.772     -862964.713 5   -431616.37421         8.750           0.063
  19903263.514    -6227725.938 7  -4852772.26224        26.000           3.844
  20206147.154   -20133994.564 7 -15455288.15324        25.250           3.594
 91  7 11  3 26 44.9980000  0  4G 3G21G17G23
  20692980.326      -57611.063 7    -44892.83621        21.000           1.469
  23702557.225     -924323.697 5   -479428.50821         7.500           0.063
  19903381.647    -6227102.515 7  -4852286.47424        25.750           3.938
  20200021.232   -20166185.125 7 -15480371.69524        25.500           3.563
 91  7 11  3 26 59.9980000  0  4G 3G21G17G23
  20697602.178      -33326.352 7    -25969.69321        20.500           1.438
  23690888.936     -985641.909 4   -527208.84621         6.500           0.188
  19903515.779    -6226403.649 7  -4851741.90224        26.000           3.875
  20193918.076   -20198262.408 7 -15505366.96824        26.000           3.594
 91  7 11  3 27 14.9980000  0  4G 3G21G17G23
  20702246.326       -8922.787 7     -6953.94421        21.000           1.344
  23679227.022    -1046925.474 3   -574962.20321         5.750           0.188
  19903663.357    -6225635.751 7  -4851143.53924        26.250           3.906
  20187833.154   -20230232.744 7 -15530278.90623        25.250           3.469
 91  7 11  3 27 29.9980000  0  4G 3G21G17G23
  20706914.498       15606.319 7     12159.64421        21.250           1.281
  23667573.303    -1108167.323 3   -622683.03121         6.000           0.156
  19903822.561    -6224791.881 7  -4850485.97724        26.000           4.031
  20181770.584   -20262089.016 7 -15555101.95923        25.250           3.469
 91  7 11  3 27 44.9980000  0  4G 3G21G17G23
  20711602.170       40254.204 7     31365.77822        20.000           1.500
  23655926.568    -1169374.023 3   -670376.50621         5.750           0.188
  19903996.600    -6223878.883 7  -4849774.55724        27.000           4.094
  20175729.107   -20293837.793 7 -15579841.25523        25.250           3.219
 91  7 11  3 27 59.9980000  0  4G 3G21G17G23
  20716319.022       65028.073 7     50670.08822        21.250           1.625
  23644292.522    -1230537.989 3   -718036.63821         5.750           0.250
  19904185.240    -6222889.301 7  -4849003.45924        26.000           4.250
  20169710.365   -20325471.967 7 -15604491.24823        25.750           3.313
 91  7 11  3 28 14.9980000  0  4G 3G21G17G23
  20721056.428       89927.928 7     70072.55221        21.500           1.438
  23632654.326    -1291659.081 3   -765663.39121         5.750           0.281
  19904388.514    -6221823.244 7  -4848172.76624        25.500           4.031
  20163713.147   -20356991.409 7 -15629051.84523        26.250           3.281
 91  7 11  3 28 29.9980000  0  4G 3G21G17G23
  20725818.139      114949.925 7     89570.20621        21.500           1.469
  23621035.248    -1352740.562 4   -813259.25821         6.250           0.219
  19904605.873    -6220684.310 7  -4847285.28624        25.750           3.969
  20157735.240   -20388399.475 7 -15653525.65323        25.500           3.344
 91  7 11  3 28 44.9980000  0  4G 3G21G17G23
  20730603.631      140096.819 7    109165.19021        21.250           1.438
  23609418.975    -1413779.791 4   -860822.22621         7.000           0.219
  19904835.264    -6219469.999 7  -4846339.07624        25.000           4.000
  20151779.904   -20419693.767 7 -15677910.80124        25.750           3.500
 91  7 11  3 28 59.9980000  0  4G 3G21G17G23
  20735411.365      165364.493 7    128854.28321        21.000           1.375
  23597810.397    -1474780.333 4   -908355.03721         6.750           0.313
  19905080.264    -6218183.990 7  -4845336.99724        25.250           3.906
  20145846.811   -20450877.959 7 -15702210.16224        26.250           3.531
 91  7 11  3 29 14.9980000  0  4G 3G21G17G23
  20740242.420      190759.223 7    148642.38521        20.500           1.344
  23586206.053    -1535735.934 4   -955852.83321         6.250           0.219
  19905340.529    -6216820.154 7  -4844274.27024        26.000           3.906
  20139933.826   -20481945.871 7 -15726418.90923        25.750           3.469
 91  7 11  3 29 29.9980000  0  4G 3G21G17G23
  20745100.693      216273.341 7    168523.51221        21.500           1.344
  23574613.709    -1596653.756 3  -1003321.20121         6.000           0.250
  19905612.639    -6215385.496 7  -4843156.35124        25.500           3.656
  20134041.506   -20512904.643 7 -15750542.60723        25.250           3.281
 91  7 11  3 29 44.9980000  0  4G 3G21G17G23
  20749978.240      241907.746 7    188498.36021        21.750           1.344
  23563029.826    -1657532.606 3  -1050759.17921         5.500           0.438
  19905898.553    -6213879.489 7  -4841982.84524        25.500           3.594
  20128172.225   -20543753.538 7 -15774580.69823        25.500           3.281
 91  7 11  3 29 59.9980000  0  4G 3G21G17G23
  20754880.412      267664.947 7    208568.89821        21.750           1.344
  23551454.389    -1718369.837 3  -1098164.72721         5.750           0.313
  19906200.951    -6212299.711 7  -4840751.85224        26.000           3.531
  20122322.936   -20574489.795 7 -15798531.01023        25.500           3.156
 91  7 11  3 30 14.9980000  0  4G 3G21G17G23
  20759803.264      293549.289 6    228738.51621        19.750           1.375
  23539879.639    -1779160.655 3  -1145534.15121         5.500           0.313
  19906516.803    -6210641.636 7  -4839459.84423        26.750           3.469
  20116496.475   -20605108.776 7 -15822389.94423        25.250           3.031
 91  7 11  3 30 29.9980000  0  4G 3G21G17G23
  20764752.561      319552.677 7    249000.87921        20.500           1.250
  23528319.592    -1839913.113 3  -1192873.66321         5.750           0.344
  19906844.389    -6208913.166 7  -4838112.98624        26.000           3.531
  20110691.404   -20635618.685 7 -15846163.88823        25.000           3.156
 91  7 11  3 30 44.9980000  0  4G 3G21G17G23
  20769723.967      345674.658 7    269355.66321        20.750           1.250
  23516767.443    -1900627.165 3  -1240183.26921         5.250           0.344
  19907188.201    -6207114.488 7  -4836711.42023        26.500           3.469
  20104904.482   -20666019.615 7 -15869852.90923        24.500           3.063
 91  7 11  3 30 59.9980000  0  4G 3G21G17G23
  20774716.537      371918.310 6    289805.25621        19.500           1.438
  23505218.225    -1961299.494 3  -1287460.34021         5.750           0.438
  19907543.529    -6205242.623 7  -4835252.83423        26.000           3.438
  20099141.998   -20696308.537 7 -15893454.65023        25.500           3.281
 91  7 11  3 31 14.9980000  0  4G 3G21G17G23
  20779733.709      398283.858 6    310349.83521        19.500           1.406
  23493687.389    -2021929.677 3  -1334704.56921         6.000           0.469
  19907913.764    -6203297.354 7  -4833737.03623        26.500           3.344
  20093399.061   -20726485.023 7 -15916968.77723        25.750           3.156
 91  7 11  3 31 29.9980000  0  4G 3G21G17G23
  20784776.178      424771.143 7    330989.26922        21.000           1.500
  23482159.522    -2082517.401 4  -1381915.72121         6.750           0.406
  19908299.725    -6201278.569 7  -4832163.95723        27.000           3.406
  20087677.326   -20756548.887 7 -15940395.14723        24.500           3.125
 91  7 11  3 31 44.9980000  0  4G 3G21G17G23
  20789838.920      451382.774 7    351725.60522        21.000           1.563
  23470637.545    -2143059.698 4  -1429091.48021         7.000           0.438
  19908696.037    -6199183.486 7  -4830531.42824        25.750           3.531
  20081979.826   -20786497.590 7 -15963731.78623        24.750           3.125
 91  7 11  3 31 59.9980000  0  4G 3G21G17G23
  20794928.295      478116.958 7    372557.42521        21.750           1.469
  23459121.568    -2203558.278 4  -1476233.16321         6.750           0.406
  19909108.834    -6197013.864 7  -4828840.81624        25.750           3.531
  20076301.912   -20816332.798 7 -15986979.99023        24.250           3.000
 91  7 11  3 32 14.9980000  0  4G 3G21G17G23
  20800037.209      504973.317 7    393484.44621        21.000           1.344
  23447616.045    -2264013.171 4  -1523340.79621         6.500           0.563
  19909537.303    -6194769.896 7  -4827092.26924        26.250           3.656
  20070646.537   -20846054.540 7 -16010139.78123        25.000           3.125
 91  7 11  3 32 29.9970000  0  4G 3G21G17G23
  20805170.517      531948.092 7    414503.75022        20.750           1.500
  23436124.274    -2324421.979 4  -1570412.54321         7.250           0.563
  19909977.196    -6192453.541 7  -4825287.32224        26.000           3.531
  20065012.360   -20875662.842 7 -16033211.17623        24.750           3.156
 91  7 11  3 32 44.9970000  0  4G 3G21G17G23
  20810326.282      559044.175 7    435617.58221        20.250           1.313
  23424635.907    -2384793.355 5  -1617455.12921         7.750           0.500
  19910429.993    -6190065.372 7  -4823426.40824        26.250           3.563
  20059398.798   -20905162.168 7 -16056197.64923        24.500           3.094
 91  7 11  3 32 59.9970000  0  4G 3G21G17G23
  20815506.181      586261.036 7    456825.52021        20.500           1.313
  23413159.688    -2445121.784 5  -1664464.22321         8.500           0.563
  19910901.446    -6187604.070 7  -4821508.50524        26.750           3.625
  20053804.438   -20934549.382 7 -16079096.76423        23.500           3.063
 91  7 11  3 33 14.9970000  0  4G 3G21G17G23
  20820708.845      613600.469 7    478128.97621        20.500           1.281
  23401688.618    -2505404.959 5  -1711438.05921         8.750           0.500
  19911383.399    -6185067.477 7  -4819531.94324        26.000           3.719
  20048235.899   -20963822.147 7 -16101906.69623        24.750           3.125
 91  7 11  3 33 29.9970000  0  4G 3G21G17G23
  20825935.251      641060.721 7    499526.56821        21.000           1.250
  23390223.688    -2565644.419 5  -1758377.84121         9.000           0.469
  19911878.845    -6182457.317 7  -4817498.05424        25.000           3.719
  20042687.306   -20992982.084 7 -16124628.70223        25.000           3.219
 91  7 11  3 33 44.9970000  0  4G 3G21G17G23
  20831181.985      668640.317 7    521017.14921        20.250           1.156
  23378770.728    -2625841.381 5  -1805284.49021         9.250           0.531
  19912390.306    -6179775.198 7  -4815408.08824        25.000           3.781
  20037159.321   -21022030.698 7 -16147263.97523        24.750           3.250
 91  7 11  3 33 59.9970000  0  4G 3G21G17G23
  20836453.868      696340.978 7    542602.07621        20.500           1.156
  23367320.524    -2685993.771 5  -1852156.41721         9.000           0.500
  19912913.860    -6177019.179 7  -4813260.54624        25.000           3.719
  20031652.696   -21050966.214 7 -16169811.12123        24.750           3.375
 91  7 11  3 34 14.9970000  0  4G 3G21G17G23
  20841746.665      724161.880 7    564280.70421        20.500           1.219
  23355882.837    -2746102.105 5  -1898994.02321         9.250           0.438
  19913453.634    -6174189.946 7  -4811055.95224        25.250           3.781
  20026166.649   -21079789.164 7 -16192270.54623        24.500           3.156
 91  7 11  3 34 29.9970000  0  4G 3G21G17G23
  20847063.876      752100.268 7    586050.87421        20.250           1.250
  23344451.978    -2806168.946 5  -1945799.29521         9.000           0.313
  19914004.720    -6171290.019 7  -4808796.26524        24.750           3.813
  20020704.001   -21108502.234 7 -16214644.35623        24.500           3.063
 91  7 11  3 34 44.9970000  0  4G 3G21G17G23
  20852401.743      780157.789 6    607913.86721        18.750           1.250
  23333028.728    -2866192.200 5  -1992570.60521         9.250           0.344
  19914570.251    -6168317.907 7  -4806480.32924        25.250           3.875
  20015260.501   -21137103.617 7 -16236931.13623        24.750           3.125
 91  7 11  3 34 59.9970000  0  4G 3G21G17G23
  20857765.306      808335.154 7    629870.25721        20.000           1.250
  23321618.540    -2926170.614 5  -2039306.98921         9.250           0.344
  19915149.142    -6165272.566 7  -4804107.34324        25.250           4.063
  20009839.188   -21165592.258 7 -16259130.06123        24.500           3.219
 91  7 11  3 35 14.9970000  0  4G 3G21G17G23
  20863150.509      836636.152 7    651922.98321        20.500           1.281
  23310215.931    -2986100.592 5  -2086005.64021         9.500           0.406
  19915745.415    -6162150.149 7  -4801674.29624        25.500           4.031
  20004439.853   -21193964.381 7 -16281238.19823        24.000           3.188
 91  7 11  3 35 29.9970000  0  4G 3G21G17G23
  20868559.501      865055.857 7    674068.20821        20.750           1.313
  23298819.321    -3045986.680 5  -2132670.05621        10.250           0.375
  19916351.696    -6158955.536 7  -4799184.98824        25.500           3.969
  19999063.970   -21222224.886 7 -16303259.35323        24.750           3.219
 91  7 11  3 35 44.9970000  0  4G 3G21G17G23
  20873991.774      893596.758 7    696307.85321        21.000           1.188
  23287432.579    -3105825.983 5  -2179298.03921        10.500           0.375
  19916974.423    -6155686.061 7  -4796637.34624        25.250           3.906
  19993705.446   -21250371.030 7 -16325191.39423        24.000           3.063
 91  7 11  3 35 59.9970000  0  4G 3G21G17G23
  20879443.024      922256.213 7    718639.89521        20.250           1.188
  23276052.251    -3165620.576 5  -2225891.17821        10.750           0.250
  19917610.673    -6152343.762 7  -4794032.96024        25.500           3.875
  19988371.743   -21278405.011 7 -16347036.03923        24.250           2.969
 91  7 11  3 36 14.9970000  0  4G 3G21G17G23
  20884919.774      951034.244 7    741064.33121        20.000           1.156
  23264682.931    -3225370.513 5  -2272449.51021        11.000           0.344
  19918261.079    -6148929.293 7  -4791372.33724        25.750           3.844
  19983059.868   -21306327.069 7 -16368793.47823        25.250           2.938
 91  7 11  3 36 29.9970000  0  4G 3G21G17G23
  20890418.751      979933.031 7    763582.86021        20.000           1.156
  23253324.142    -3285073.240 5  -2318971.07421        11.500           0.313
  19918924.118    -6145440.158 7  -4788653.54324        25.000           3.844
  19977767.259   -21334134.793 7 -16390461.81923        25.500           3.000
 91  7 11  3 36 44.9970000  0  4G 3G21G17G23
  20895941.767     1008950.133 7    786193.57821        20.750           1.125
  23241967.962    -3344731.086 5  -2365457.65221        11.500           0.375
  19919599.735    -6141878.814 7  -4785878.45924        24.500           3.750
  19972496.642   -21361830.521 7 -16412042.89423        25.250           3.125
 91  7 11  3 36 59.9970000  0  4G 3G21G17G23
  20901486.196     1038085.042 7    808896.09321        21.250           1.219
  23230624.415    -3404343.878 5  -2411909.13821        10.750           0.188
  19920293.212    -6138245.219 7  -4783047.09024        25.000           3.719
  19967247.657   -21389414.427 7 -16433536.83623        24.750           3.031
 91  7 11  3 37 14.9970000  0  4G 3G21G17G23
  20907051.251     1067337.757 7    831690.40321        20.250           1.281
  23219289.501    -3463911.395 5  -2458325.32321        10.750           0.188
  19920998.462    -6134539.235 7  -4780159.31124        25.250           3.625
  19962020.649   -21416886.321 7 -16454943.49823        25.250           3.063
 91  7 11  3 37 29.9970000  0  4G 3G21G17G23
  20912640.478     1096710.765 7    854578.45121        20.250           1.250
  23207964.571    -3523430.826 5  -2504704.05421        10.250           0.313
  19921718.485    -6130758.438 7  -4777213.23324        25.000           3.500
  19956814.009   -21444243.659 7 -16476260.89223        25.250           3.094
 91  7 11  3 37 44.9970000  0  4G 3G21G17G23
  20918252.712     1126202.694 7    877559.16721        20.500           1.125
  23196642.962    -3582903.485 5  -2551046.33621         9.250           0.219
  19922452.220    -6126903.991 7  -4774209.77224        25.500           3.500
  19951629.907   -21471487.795 7 -16497490.07923        25.250           3.156
 91  7 11  3 37 59.9970000  0  4G 3G21G17G23
  20923887.095     1155814.471 6    900633.28121        19.000           1.250
  23185334.681    -3642327.777 5  -2597350.94121         9.000           0.375
  19923196.603    -6122974.716 7  -4771148.00724        25.250           3.500
  19946467.884   -21498617.571 7 -16518630.14923        26.250           3.188
 91  7 11  3 38 14.9970000  0  4G 3G21G17G23
  20929545.642     1185544.300 7    923799.37021        20.000           1.125
  23174034.837    -3701705.595 5  -2643619.33221         9.000           0.219
  19923960.321    -6118972.468 7  -4768029.37324        25.500           3.500
  19941324.868   -21525634.656 7 -16539682.41423        25.750           3.156
 91  7 11  3 38 29.9970000  0  4G 3G21G17G23
  20935227.712     1215391.350 7    947056.80821        20.500           1.031
  23162746.454    -3761037.159 5  -2689851.65821         9.250           0.406
  19924733.407    -6114897.774 7  -4764854.28424        24.000           3.594
  19936207.563   -21552539.538 7 -16560647.24923        26.500           3.125
 91  7 11  3 38 44.9970000  0  4G 3G21G17G23
  20940927.321     1245356.808 7    970406.50521        20.000           1.000
  23151463.360    -3820321.160 5  -2736046.95021         9.750           0.313
  19925524.024    -6110749.460 7  -4761621.83024        24.500           3.563
  19931107.993   -21579331.058 7 -16581523.75023        26.000           2.969
 91  7 11  3 38 59.9970000  0  4G 3G21G17G23
  20946649.657     1275440.668 6    993848.46321        19.750           0.938
  23140190.993    -3879557.261 5  -2782204.90021         9.750           0.375
  19926327.610    -6106527.582 7  -4758332.05324        24.500           3.563
  19926031.415   -21606009.054 7 -16602311.79423        25.750           3.031
 91  7 11  3 39 14.9970000  0  4G 3G21G17G23
  20952398.884     1305640.906 6   1017381.10721        19.750           1.000
  23128931.556    -3938747.008 5  -2828326.73121        10.000           0.406
  19927145.243    -6102234.095 7  -4754986.48224        24.250           3.688
  19920977.157   -21632575.328 7 -16623012.77123        26.500           3.063
 91  7 11  3 39 29.9970000  0  4G 3G21G17G23
  20958167.470     1335957.292 6   1041004.24421        19.750           1.031
  23117674.743    -3997890.285 5  -2874412.35021         9.250           0.344
  19927975.743    -6097868.760 7  -4751584.92024        24.500           3.688
  19915942.610   -21659029.936 7 -16643626.74023        27.000           3.094
 91  7 11  3 39 44.9970000  0  4G 3G21G17G23
  20963958.446     1366396.692 6   1064723.25821        19.750           0.969
  23106427.946    -4056980.196 5  -2920456.41121         8.500           0.469
  19928821.759    -6093424.639 7  -4748121.96724        24.500           3.688
  19910930.962   -21685366.012 7 -16664148.34223        27.250           3.125
 91  7 11  3 39 59.9970000  0  4G 3G21G17G23
  20969776.860     1396952.918 7   1088533.30521        21.000           1.063
  23095189.618    -4116022.471 5  -2966463.33121         8.250           0.469
  19929680.915    -6088907.682 7  -4744602.26124        24.250           3.750
  19905939.642   -21711589.560 7 -16684582.26723        26.500           3.094
 91  7 11  3 40 14.9970000  0  4G 3G21G17G23
  20975612.290     1427627.641 7   1112435.68121        20.250           1.000
  23083969.595    -4175015.167 5  -3012431.62221         8.750           0.375
  19930554.892    -6084316.172 7  -4741024.45824        24.500           3.875
  19900970.454   -21737698.694 7 -16704927.03623        26.000           3.031
 91  7 11  3 40 29.9970000  0  4G 3G21G17G23
  20981471.501     1458419.213 6   1136429.09821        19.750           1.063
  23072750.407    -4233959.564 5  -3058362.27921         8.500           0.500
  19931442.985    -6079651.541 7  -4737389.68324        25.250           3.906
  19896025.134   -21763694.830 7 -16725183.75323        26.500           2.938
 91  7 11  3 40 44.9970000  0  4G 3G21G17G23
  20987352.165     1489327.364 7   1160513.36521        20.000           1.031
  23061538.829    -4292855.719 5  -3104255.36221         8.000           0.500
  19932344.540    -6074914.081 7  -4733698.16024        25.500           3.844
  19891099.165   -21789578.259 7 -16745352.65123        26.250           3.063
 91  7 11  3 40 59.9970000  0  4G 3G21G17G23
  20993256.399     1520348.811 7   1184685.92721        20.000           1.125
  23050341.228    -4351706.501 5  -3150113.06721         8.250           0.563
  19933259.181    -6070106.893 7  -4729952.30224        24.750           3.719
  19886194.688   -21815351.995 7 -16765436.07923        26.500           3.094
 91  7 11  3 41 14.9970000  0  4G 3G21G17G23
  20999181.407     1551489.548 6   1208951.42121        19.250           1.188
  23039155.438    -4410505.594 5  -3195930.51621         9.250           0.500
  19934188.728    -6065223.754 7  -4726147.25824        24.250           3.688
  19881312.204   -21841009.772 7 -16785429.14623        27.000           3.125
 91  7 11  3 41 29.9970000  0  4G 3G21G17G23
  21005130.274     1582749.370 6   1233309.71621        18.750           1.125
  23027981.181    -4469252.966 5  -3241707.66321        10.500           0.500
  19935130.603    -6060264.605 7  -4722282.99024        24.000           3.719
  19876451.681   -21866551.843 7 -16805332.05123        27.000           3.063
 91  7 11  3 41 44.9970000  0  4G 3G21G17G23
  21011102.517     1614124.272 6   1257757.67521        18.500           1.250
  23016808.853    -4527952.280 5  -3287447.33521        10.500           0.531
  19936089.938    -6055233.435 7  -4718362.59424        24.750           3.531
  19871612.079   -21891982.068 7 -16825147.79623        27.000           3.156
 91  7 11  3 41 59.9970000  0  4G 3G21G17G23
  21017095.681     1645617.834 6   1282298.09821        18.500           1.219
  23005643.110    -4586599.570 5  -3333146.46721        10.500           0.531
  19937060.063    -6050126.485 7  -4714383.15624        25.250           3.500
  19866794.517   -21917296.658 7 -16844873.43923        26.250           3.000
 91  7 11  3 42 14.9970000  0  4G 3G21G17G23
  21023108.876     1677228.605 6   1306929.85221        18.000           1.125
  22994494.751    -4645195.996 5  -3378805.97121        10.750           0.469
  19938046.228    -6044945.130 7  -4710345.73023        25.250           3.469
  19861999.181   -21942496.807 7 -16864509.90423        26.500           3.094
 91  7 11  3 42 29.9970000  0  4G 3G21G17G23
  21029143.806     1708951.627 6   1331649.07521        17.250           1.000
  22983356.540    -4703746.306 6  -3424429.55421        12.250           0.469
  19939046.704    -6039694.331 7  -4706254.19923        25.250           3.438
  19857225.087   -21967587.471 7 -16884061.06323        26.750           3.031
 91  7 11  3 42 44.9970000  0  4G 3G21G17G23
  21035207.595     1740792.286 6   1356459.97821        17.750           0.969
  22972223.673    -4762244.737 6  -3470012.69521        12.500           0.344
  19940059.399    -6034368.410 7  -4702104.13123        25.250           3.406
  19852471.970   -21992563.210 7 -16903522.66623        26.500           3.000
 91  7 11  3 42 59.9970000  0  4G 3G21G17G23
  21041285.603     1772752.245 6   1381363.83621        17.000           1.031
  22961102.376    -4820689.225 6  -3515553.78821        12.750           0.375
  19941087.165    -6028965.351 7  -4697893.95624        25.750           3.563
  19847741.220   -22017422.082 7 -16922893.20723        25.750           2.906
 91  7 11  3 43 14.9970000  0  4G 3G21G17G23
  21047391.478     1804829.101 6   1406358.76821        18.000           1.125
  22949986.853    -4879081.775 5  -3561054.43021        11.500           0.375
  19942130.493    -6023487.593 7  -4693625.56724        25.000           3.594
  19843032.884   -22042166.230 7 -16942174.35223        26.250           3.031
 91  7 11  3 43 29.9970000  0  4G 3G21G17G23
  21053517.478     1837021.139 6   1431443.46321        19.000           1.063
  22938887.079    -4937423.954 5  -3606515.81621        11.000           0.438
  19943186.126    -6017936.680 7  -4689300.17924        24.750           3.688
  19838346.056   -22066797.355 7 -16961367.41823        26.750           2.906
 91  7 11  3 43 44.9970000  0  4G 3G21G17G23
  21059666.103     1869331.985 6   1456620.73821        19.250           1.031
  22927795.603    -4995711.780 5  -3651934.83921        11.500           0.469
  19944258.446    -6012308.857 7  -4684914.86824        25.250           3.719
  19833680.829   -22091311.529 7 -16980469.35923        27.000           2.969
 91  7 11  3 43 59.9970000  0  4G 3G21G17G23
  21065835.298     1901758.085 6   1481887.82421        18.750           0.938
  22916713.985    -5053948.375 6  -3697313.92721        12.000           0.500
  19945341.384    -6006607.484 7  -4680472.23524        25.000           3.719
  19829038.470   -22115712.184 7 -16999482.84923        27.500           2.969
 91  7 11  3 44 14.9970000  0  4G 3G21G17G23
  21072029.485     1934300.929 6   1507245.88521        18.750           1.000
  22905642.204    -5112132.048 6  -3742651.79721        12.250           0.438
  19946442.173    -6000830.932 7  -4675971.02424        25.000           3.719
  19824416.649   -22139997.542 7 -17018406.49623        27.250           2.813
 91  7 11  3 44 29.9970000  0  4G 3G21G17G23
  21078243.790     1966956.678 6   1532691.91521        19.250           0.938
  22894578.399    -5170266.208 5  -3787951.07221        11.250           0.406
  19947555.313    -5994982.794 7  -4671414.03624        25.500           3.625
  19819815.493   -22164171.506 7 -17037243.34423        26.500           2.750
 91  7 11  3 44 44.9970000  0  4G 3G21G17G23
  21084478.493     1999725.916 6   1558226.38521        19.250           0.938
  22883525.735    -5228350.122 5  -3833211.20321        11.000           0.406
  19948679.899    -5989062.663 7  -4666800.93624        25.000           3.625
  19815236.767   -22188233.434 7 -17055992.89023        26.500           2.688
 91  7 11  3 44 59.9970000  0  4G 3G21G17G23
  21090737.001     2032609.563 6   1583850.01021        19.500           1.031
  22872485.837    -5286382.328 5  -3878431.04521        11.000           0.406
  19949822.118    -5983068.896 7  -4662130.47024        25.250           3.750
  19810680.790   -22212182.036 7 -17074654.13023        26.750           2.844
 91  7 11  3 45 14.9970000  0  4G 3G21G17G23
  21097017.728     2065607.245 7   1609562.48721        20.500           1.094
  22861449.204    -5344362.974 5  -3923610.70521        10.250           0.500
  19950976.212    -5977002.057 7  -4657403.06224        25.250           3.656
  19806144.720   -22236017.721 7 -17093227.38123        26.500           2.813
 91  7 11  3 45 29.9970000  0  4G 3G21G17G23
  21103318.087     2098720.090 7   1635364.69121        20.500           1.063
  22850426.603    -5402290.587 5  -3968749.05121         9.500           0.375
  19952145.298    -5970860.841 7  -4652617.69724        26.250           3.750
  19801629.243   -22259739.127 7 -17111711.58523        25.750           2.875
 91  7 11  3 45 44.9970000  0  4G 3G21G17G23
  21109640.899     2131947.936 6   1661256.52021        19.750           1.000
  22839408.188    -5460164.980 5  -4013845.91321         8.250           0.375
  19953327.571    -5964645.287 7  -4647774.40324        26.250           3.844
  19797138.985   -22283346.174 7 -17130106.67823        27.000           2.750
 91  7 11  3 45 59.9970000  0  4G 3G21G17G23
  21115985.603     2165289.773 6   1687237.15621        19.750           1.000
  22828407.306    -5517986.780 5  -4058901.80621         7.750           0.375
  19954525.774    -5958356.002 7  -4642873.65424        26.250           3.688
  19792667.384   -22306839.730 7 -17148413.33423        26.750           2.906
 91  7 11  3 46 14.9970000  0  4G 3G21G17G23
  21122352.470     2198743.869 7   1713305.28121        20.000           0.906
  22817412.462    -5575757.581 5  -4103917.97521         8.000           0.375
  19955735.173    -5951994.884 7  -4637916.93424        26.250           3.844
  19788217.360   -22330221.537 7 -17166632.91823        26.000           2.844
 91  7 11  3 46 29.9970000  0  4G 3G21G17G23
  21128738.946     2232311.281 6   1739461.70521        19.000           0.938
  22806431.954    -5633475.854 5  -4148893.19421         8.500           0.375
  19956958.915    -5945560.259 7  -4632902.93424        26.000           3.844
  19783789.806   -22353490.227 7 -17184764.35123        26.000           2.844
 91  7 11  3 46 44.9970000  0  4G 3G21G17G23
  21135148.853     2265992.086 6   1765706.47621        18.750           0.938
  22795457.259    -5691141.359 5  -4193827.29921         7.750           0.406
  19958197.579    -5939052.426 7  -4627831.88924        25.750           3.719
  19779383.540   -22376645.569 7 -17202807.46723        26.500           2.813
 91  7 11  3 46 59.9970000  0  4G 3G21G17G23
  21141578.696     2299784.545 6   1792038.26021        17.750           1.094
  22784492.235    -5748755.397 5  -4238721.31321         7.500           0.406
  19959448.938    -5932472.630 7  -4622704.76524        26.000           3.781
  19774998.212   -22399689.040 7 -17220763.40623        26.250           2.781
 91  7 11  3 47 14.9970000  0  4G 3G21G17G23
  21148030.524     2333689.982 6   1818458.07021        17.750           1.063
  22773535.860    -5806316.177 5  -4283573.82721         7.500           0.313
  19960714.954    -5925819.556 7  -4617520.54924        25.500           3.875
  19770636.103   -22422619.388 7 -17238631.20323        26.750           2.750
 91  7 11  3 47 29.9970000  0  4G 3G21G17G23
  21154504.392     2367705.286 6   1844963.50521        18.000           1.063
  22762596.048    -5863826.711 4  -4328387.21121         7.250           0.375
  19961995.649    -5919095.873 7  -4612281.31024        26.000           3.938
  19766292.009   -22445439.488 7 -17256413.08523        26.000           2.813
 91  7 11  3 47 44.9970000  0  4G 3G21G17G23
  21160997.173     2401832.306 6   1871555.97921        17.750           1.063
  22751659.540    -5921284.696 5  -4373159.58721         8.000           0.500
  19963288.353    -5912299.428 7  -4606985.38324        25.000           3.938
  19761971.149   -22468147.223 7 -17274107.41123        26.500           2.813
 91  7 11  3 47 59.9970000  0  4G 3G21G17G23
  21167512.563     2436071.801 6   1898236.09921        17.500           0.938
  22740741.329    -5978689.059 5  -4417890.24521         8.500           0.531
  19964595.024    -5905429.662 7  -4601632.31124        24.750           3.969
  19757672.751   -22490741.820 7 -17291713.57723        27.000           2.656
 91  7 11  3 48 14.9970000  0  4G 3G21G17G23
  21174049.517     2470423.613 6   1925003.74921        17.500           0.938
  22729825.837    -6036039.574 5  -4462578.91321         8.750           0.469
  19965915.946    -5898486.411 7  -4596221.98124        25.000           3.875
  19753393.181   -22513223.248 7 -17309231.55923        27.250           2.563
 91  7 11  3 48 29.9970000  0  4G 3G21G17G23
  21180609.399     2504884.463 6   1951856.35121        17.500           1.000
  22718921.212    -6093339.196 5  -4507227.91321         9.500           0.531
  19967252.345    -5891473.011 7  -4590756.98424        25.750           3.938
  19749137.345   -22535594.472 7 -17326663.67523        27.000           2.500
 91  7 11  3 48 44.9970000  0  4G 3G21G17G23
  21187187.431     2539458.421 6   1978797.09221        17.500           0.938
  22708026.313    -6150583.558 5  -4551833.86221         9.250           0.438
  19968600.743    -5884385.122 7  -4585233.95724        26.000           3.875
  19744901.626   -22557851.418 7 -17344006.74322        26.750           2.438
 91  7 11  3 48 59.9970000  0  4G 3G21G17G23
  21193787.470     2574141.752 6   2005823.05221        17.250           0.906
  22697148.048    -6207775.950 5  -4596399.31621         9.750           0.438
  19969963.353    -5877225.999 7  -4579655.41224        26.500           3.844
  19740686.759   -22579997.514 7 -17361263.43623        26.750           2.594
 91  7 11  3 49 14.9970000  0  4G 3G21G17G23
  21200407.907     2608935.940 6   2032935.39021        17.500           0.906
  22686271.962    -6264914.657 5  -4640922.95321         9.500           0.563
  19971339.048    -5869994.316 7  -4574020.32024        25.750           3.813
  19736493.938   -22602031.194 7 -17378432.53123        27.000           2.625
 91  7 11  3 49 29.9970000  0  4G 3G21G17G23
  21207052.493     2643841.149 6   2060134.24621        17.750           0.906
  22675408.556    -6321999.128 5  -4685404.31421         9.500           0.563
  19972730.290    -5862689.466 7  -4568328.22724        26.250           3.719
  19732322.899   -22623951.930 7 -17395513.61323        27.750           2.719
 91  7 11  3 49 44.9970000  0  4G 3G21G17G23
  21213713.743     2678857.415 6   2087419.64421        17.250           0.844
  22664557.556    -6379029.088 5  -4729843.20421        10.250           0.594
  19974134.071    -5855311.537 7  -4562579.18024        27.500           3.719
  19728172.118   -22645759.968 7 -17412506.87923        26.750           2.563
 91  7 11  3 49 59.9970000  0  4G 3G21G17G23
  21220397.353     2713984.867 6   2114791.67021        17.250           1.000
  22653716.212    -6436003.997 5  -4774239.19421        10.750           0.656
  19975552.095    -5847859.957 7  -4556772.75324        27.750           3.594
  19724043.306   -22667454.945 7 -17429412.04523        26.250           2.594
 91  7 11  3 50 14.9970000  0  4G 3G21G17G23
  21227102.860     2749219.415 6   2142247.15221        17.250           1.000
  22642883.556    -6492927.398 5  -4818595.04821        11.250           0.813
  19976983.431    -5840338.553 7  -4550911.91023        27.750           3.469
  19719935.712   -22689040.612 7 -17446232.03722        25.750           2.438
 91  7 11  3 50 29.9970000  0  4G 3G21G17G23
  21233829.806     2784566.232 6   2169790.12421        17.000           1.063
  22632062.571    -6549793.980 5  -4862906.63021        11.500           0.719
  19978428.126    -5832742.121 7  -4544992.61123        27.750           3.375
  19715850.493   -22710511.701 7 -17462962.75023        26.500           2.563
 91  7 11  3 50 44.9970000  0  4G 3G21G17G23
  21240575.782     2820024.274 6   2197419.75721        16.250           1.031
  22621255.454    -6606604.306 6  -4907174.37721        12.750           0.750
  19979887.009    -5825071.639 7  -4539015.60723        27.250           3.406
  19711787.165   -22731869.076 7 -17479604.84923        26.750           2.563
 91  7 11  3 50 59.9970000  0  4G 3G21G17G23
  21247343.157     2855590.048 6   2225133.33721        16.250           1.094
  22610449.329    -6663361.750 6  -4951400.93021        12.250           0.813
  19981360.462    -5817330.280 7  -4532983.36923        27.500           3.250
  19707742.899   -22753116.079 7 -17496160.94723        26.000           2.625
 91  7 11  3 51 14.9970000  0  4G 3G21G17G23
  21254133.181     2891262.439 6   2252929.99421        16.500           1.031
  22599662.212    -6720067.155 6  -4995586.91321        12.250           0.750
  19982848.509    -5809518.978 7  -4526896.63023        27.500           3.375
  19703720.798   -22774253.797 7 -17512631.89123        26.750           2.594
 91  7 11  3 51 29.9970000  0  4G 3G21G17G23
  21260941.079     2927041.603 6   2280809.83721        16.500           1.000
  22588883.657    -6776719.840 6  -5039731.81621        12.250           0.656
  19984347.017    -5801637.289 7  -4520755.04923        26.500           3.375
  19699719.813   -22795281.744 7 -17529017.28923        27.500           2.563
 91  7 11  3 51 44.9970000  0  4G 3G21G17G23
  21267772.532     2962933.510 6   2308777.56321        16.750           0.969
  22578109.329    -6833313.776 6  -5083830.94821        12.000           0.844
  19985859.821    -5793679.381 7  -4514554.07324        25.750           3.531
  19695740.587   -22816193.912 7 -17545312.48223        27.750           2.594
 91  7 11  3 51 59.9970000  0  4G 3G21G17G23
  21274622.899     2998934.332 6   2336830.12821        16.750           1.000
  22567351.704    -6889852.145 6  -5127886.79221        12.500           0.656
  19987387.774    -5785648.784 7  -4508296.46324        25.500           3.594
  19691781.548   -22836993.676 7 -17561520.07423        27.500           2.531
 91  7 11  3 52 14.9970000  0  4G 3G21G17G23
  21281491.110     3035041.756 6   2364965.78021        15.750           0.844
  22556603.978    -6946336.941 6  -5171900.88321        12.750           0.719
  19988930.610    -5777547.711 7  -4501983.93724        26.250           3.625
  19687844.204   -22857683.308 7 -17577641.85623        26.750           2.625
 91  7 11  3 52 29.9970000  0  4G 3G21G17G23
  21288386.399     3071254.120 6   2393183.19421        17.250           0.906
  22545866.899    -7002769.373 6  -5215874.16821        13.000           0.563
  19990485.876    -5769377.197 7  -4495617.30524        26.750           3.719
  19683927.954   -22878264.295 7 -17593678.97923        25.750           2.625
 91  7 11  3 52 44.9970000  0  4G 3G21G17G23
  21295296.634     3107571.943 6   2421482.78921        17.750           0.906
  22535133.751    -7059148.873 5  -5259806.22521        11.250           0.781
  19992053.915    -5761136.917 7  -4489196.30024        27.250           3.656
  19680033.056   -22898736.132 7 -17609631.05623        25.500           2.625
 91  7 11  3 52 59.9970000  0  4G 3G21G17G23
  21302227.142     3143995.590 6   2449864.83021        18.250           0.813
  22524414.829    -7115474.640 5  -5303696.40421        10.750           0.688
  19993636.235    -5752826.240 7  -4482720.44324        27.250           3.813
  19676158.603   -22919098.134 7 -17625497.53523        25.750           2.656
 91  7 11  3 53 14.9970000  0  4G 3G21G17G23
  21309178.712     3180525.571 6   2478329.75621        17.500           0.781
  22513706.274    -7171745.591 5  -5347543.86721        10.500           0.531
  19995229.642    -5744444.246 7  -4476189.01424        27.000           3.875
  19672304.915   -22939349.782 7 -17641278.02923        26.500           2.688
 91  7 11  3 53 29.9970000  0  4G 3G21G17G23
  21316149.603     3217160.425 6   2506876.38021        17.000           0.813
  22503008.634    -7227962.945 5  -5391349.57521        11.000           0.531
  19996838.595    -5735992.424 7  -4469603.17124        27.250           3.875
  19668470.774   -22959492.251 7 -17656973.45223        26.250           2.563
 91  7 11  3 53 44.9970000  0  4G 3G21G17G23
  21323142.196     3253902.623 6   2535506.66221        16.750           0.781
  22492323.603    -7284123.962 5  -5435111.39821        11.250           0.688
  19998462.181    -5727468.159 7  -4462960.88024        27.750           3.875
  19664659.493   -22979522.899 7 -17672581.73423        27.000           2.563
 91  7 11  3 53 59.9970000  0  4G 3G21G17G23
  21330152.110     3290749.119 6   2564218.20921        16.250           0.750
  22481647.649    -7340231.407 5  -5478831.44721        11.250           0.594
  20000096.571    -5718874.221 7  -4456264.29724        27.750           3.813
  19660868.384   -22999444.783 7 -17688105.27023        27.250           2.625
 91  7 11  3 54 14.9970000  0  4G 3G21G17G23
  21337185.970     3327700.607 6   2593011.55621        17.250           0.719
  22470977.142    -7396284.135 5  -5522508.88821        10.250           0.625
  20001744.103    -5710209.649 7  -4449512.68324        27.000           3.781
  19657098.532   -23019256.937 7 -17703543.30223        27.250           2.625
 91  7 11  3 54 29.9970000  0  4G 3G21G17G23
  21344237.063     3364757.746 6   2621887.23021        17.000           0.750
  22460323.188    -7452281.088 5  -5566142.85121        10.000           0.531
  20003407.446    -5701473.565 7  -4442705.33924        26.750           3.813
  19653350.040   -23038958.453 7 -17718895.12623        27.500           2.594
 91  7 11  3 54 44.9970000  0  4G 3G21G17G23
  21351308.267     3401920.661 6   2650845.32621        17.000           0.688
  22449678.993    -7508221.747 5  -5609732.94321        10.250           0.594
  20005084.235    -5692665.577 7  -4435841.96524        26.750           3.656
  19649621.720   -23058549.066 7 -17734160.53023        27.000           2.500
 91  7 11  3 54 59.9970000  0  4G 3G21G17G23
  21358399.931     3439189.819 6   2679886.22621        15.500           0.906
  22439043.587    -7564105.494 5  -5653278.70421        10.000           0.594
  20006774.079    -5683785.347 7  -4428922.30324        26.250           3.844
  19645915.040   -23078028.413 7 -17749339.23823        27.750           2.531
 91  7 11  3 55 14.9970000  0  4G 3G21G17G23
  21365510.399     3476561.847 6   2709007.25021        16.250           0.813
  22428421.845    -7619935.016 5  -5696782.18921         9.750           0.531
  20008476.681    -5674835.577 7  -4421948.45524        25.750           3.688
  19642228.876   -23097399.175 7 -17764433.31722        27.750           2.438
 91  7 11  3 55 29.9970000  0  4G 3G21G17G23
  21372643.329     3514035.999 6   2738207.87921        16.000           0.875
  22417805.415    -7675711.120 5  -5740244.06921         9.750           0.531
  20010191.993    -5665817.180 7  -4414921.13624        25.500           3.719
  19638562.392   -23116662.430 7 -17779443.63822        27.500           2.438
 91  7 11  3 55 44.9970000  0  4G 3G21G17G23
  21379794.884     3551617.863 6   2767492.42421        16.500           0.906
  22407205.618    -7731427.699 5  -5783659.55221        10.500           0.531
  20011923.360    -5656724.308 7  -4407835.77924        25.250           3.813
  19634918.142   -23135812.162 7 -17794365.49922        27.750           2.406
 91  7 11  3 55 59.9970000  0  4G 3G21G17G23
  21386965.610     3589305.597 6   2796859.47421        16.500           0.750
  22396612.899    -7787086.276 5  -5827029.84021        10.500           0.563
  20013666.657    -5647558.478 7  -4400693.56824        25.500           3.688
  19631295.595   -23154850.216 7 -17809200.33723        26.750           2.625
 91  7 11  3 56 14.9970000  0  4G 3G21G17G23
  21394157.970     3627097.903 6   2826308.01721        16.750           0.844
  22386033.478    -7842687.677 5  -5870355.56021        10.250           0.563
  20015423.985    -5638320.865 7  -4393495.43124        25.500           3.813
  19627693.993   -23173777.605 7 -17823948.93923        27.000           2.781
 91  7 11  3 56 29.9970000  0  4G 3G21G17G23
  21401368.407     3664994.932 6   2855838.16921        16.000           0.844
  22375463.017    -7898231.580 5  -5913636.48121        11.250           0.531
  20017196.056    -5629011.204 7  -4386241.14624        25.750           3.813
  19624112.774   -23192594.096 7 -17838611.13423        26.500           2.938
 91  7 11  3 56 44.9970000  0  4G 3G21G17G23
  21408599.431     3702995.255 6   2885448.80721        16.000           0.844
  22364905.517    -7953718.917 6  -5956873.31921        12.500           0.438
  20018981.173    -5619630.575 7  -4378931.56324        26.250           3.656
  19620553.056   -23211300.780 7 -17853187.76623        26.000           2.844
 91  7 11  3 56 59.9970000  0  4G 3G21G17G23
  21415851.985     3741098.933 6   2915139.95921        16.500           0.844
  22354358.532    -8009149.236 6  -6000065.75921        12.500           0.531
  20020779.978    -5610178.704 7  -4371566.45824        26.000           3.719
  19617015.454   -23229897.535 7 -17867678.73923        26.500           2.750
 91  7 11  3 57 14.9970000  0  4G 3G21G17G23
  21423122.704     3779307.314 6   2944912.69921        16.500           0.813
  22343818.079    -8064520.775 6  -6043212.37021        12.250           0.469
  20022591.353    -5600654.051 7  -4364144.64124        25.500           3.719
  19613498.024   -23248382.915 7 -17882082.92723        27.000           2.750
 91  7 11  3 57 29.9970000  0  4G 3G21G17G23
  21430414.267     3817618.342 6   2974765.43421        17.750           0.813
  22333289.962    -8119835.451 6  -6086314.67621        12.500           0.469
  20024417.188    -5591058.611 7  -4356667.66924        24.750           3.656
  19610000.017   -23266758.937 7 -17896401.89723        27.000           2.656
 91  7 11  3 57 44.9970000  0  4G 3G21G17G23
  21437724.728     3856032.165 6   3004698.25321        18.000           0.844
  22322776.579    -8175092.703 6  -6129372.22621        13.000           0.563
  20026256.720    -5581392.041 7  -4349135.27224        24.500           3.563
  19606523.954   -23285025.058 7 -17910635.23523        26.500           2.594
 91  7 11  3 57 59.9970000  0  4G 3G21G17G23
  21445054.173     3894550.996 6   3034712.90121        18.250           0.844
  22312277.142    -8230289.852 6  -6172382.95721        13.750           0.500
  20028111.032    -5571651.751 7  -4341545.42224        24.750           3.625
  19603069.821   -23303178.792 7 -17924780.99323        26.500           2.563
 91  7 11  3 58 14.9970000  0  4G 3G21G17G23
  21452404.009     3933171.724 6   3064806.96221        18.000           0.813
  22301784.017    -8285429.719 6  -6215349.03921        14.000           0.688
  20029978.478    -5561840.895 7  -4333900.59424        25.000           3.531
  19599636.868   -23321223.382 7 -17938841.70023        26.250           2.625
 91  7 11  3 58 29.9970000  0  4G 3G21G17G23
  21459769.384     3971893.049 6   3094979.40121        17.000           0.719
  22291301.243    -8340513.305 6  -6258271.26621        13.500           0.656
  20031858.353    -5551960.283 7  -4326201.41124        26.000           3.594
  19596221.978   -23339159.879 7 -17952818.18123        25.500           2.719
 91  7 11  3 58 44.9970000  0  4G 3G21G17G23
  21467159.595     4010718.587 6   3125233.06021        18.000           0.688
  22280829.259    -8395536.552 6  -6301146.48321        12.500           0.688
  20033751.860    -5542006.182 7  -4318444.96223        25.750           3.469
  19592831.228   -23356984.439 7 -17966707.44723        25.250           2.719
 91  7 11  3 58 59.9970000  0  4G 3G21G17G23
  21474568.063     4049646.958 6   3155566.83021        19.000           0.844
  22270369.618    -8450500.428 6  -6343975.42921        12.250           0.688
  20035658.673    -5531979.686 7  -4310632.10423        25.000           3.375
  19589459.907   -23374698.468 7 -17980510.58323        25.500           2.656
 91  7 11  3 59 14.9970000  0  4G 3G21G17G23
  21481994.579     4088674.409 6   3185977.81021        18.500           0.688
  22259921.063    -8505408.318 6  -6386760.76221        12.750           0.594
  20037581.032    -5521884.181 7  -4302765.47223        25.000           3.406
  19586110.103   -23392305.171 7 -17994230.08223        26.000           2.656
 91  7 11  3 59 29.9970000  0  4G 3G21G17G23
  21489440.470     4127802.873 6   3216467.51821        19.000           0.594
  22249482.954    -8560258.099 6  -6429500.80521        12.250           0.594
  20039515.837    -5511717.559 7  -4294843.42923        25.000           3.375
  19582779.743   -23409802.667 7 -18007864.48823        26.000           2.625
 91  7 11  3 59 44.9970000  0  4G 3G21G17G23
  21496905.751     4167033.844 6   3247037.08321        19.000           0.563
  22239054.688    -8615047.982 5  -6472194.19421        11.250           0.531
  20041463.978    -5501478.278 7  -4286864.76023        25.000           3.188
  19579471.103   -23427189.373 7 -18021412.56423        26.250           2.594
 91  7 11  3 59 59.9970000  0  4G 3G21G17G23
  21504391.220     4206365.715 6   3277685.28121        18.250           0.688
  22228641.556    -8669779.000 5  -6514841.70321        10.500           0.563
  20043426.235    -5491167.859 7  -4278830.66423        26.250           3.281
  19576183.712   -23444466.488 7 -18034875.24123        26.000           2.500
 91  7 11  4  0 14.9970000  0  4G 3G21G17G23
  21511892.868     4245794.444 6   3308408.95621        17.250           0.719
  22218238.907    -8724454.761 5  -6557446.15621        11.000           0.594
  20045400.938    -5480790.040 7  -4270744.04223        26.500           3.375
  19572916.345   -23461637.922 7 -18048255.57922        26.000           2.406
 91  7 11  4  0 29.9970000  0  4G 3G21G17G23
  21519416.267     4285329.122 6   3339215.18421        17.000           0.688
  22207844.095    -8779065.993 5  -6600000.30421        11.000           0.656
  20047390.720    -5470335.662 7  -4262597.76923        26.250           3.250
  19569668.485   -23478694.675 7 -18061546.55222        25.500           2.469
 91  7 11  4  0 44.9970000  0  4G 3G21G17G23
  21526958.962     4324967.619 6   3370102.32021        16.250           0.719
  22197461.149    -8833614.386 5  -6642505.49921        11.000           0.625
  20049394.962    -5459806.421 7  -4254393.16523        26.250           3.406
  19566445.798   -23495638.738 7 -18074749.71122        26.000           2.469
 91  7 11  4  0 59.9970000  0  4G 3G21G17G23
  21534520.071     4364703.531 6   3401065.35521        15.500           0.656
  22187095.087    -8888105.929 5  -6684966.41421        11.500           0.656
  20051412.603    -5449208.403 7  -4246134.96823        26.750           3.469
  19563241.579   -23512476.055 7 -18087869.69323        26.000           2.500
 91  7 11  4  1 14.9970000  0  4G 3G21G17G23
  21542099.017     4404539.696 6   3432106.50921        14.500           0.594
  22176736.095    -8942537.631 5  -6727380.68921        11.500           0.688
  20053442.493    -5438538.458 7  -4237820.71424        26.750           3.531
  19560059.157   -23529203.865 7 -18100904.33923        26.500           2.563
 91  7 11  4  1 29.9970000  0  4G 3G21G17G23
  21549698.423     4444476.160 6   3463225.80921        14.750           0.594
  22166389.782    -8996909.005 5  -6769747.95421        11.750           0.688
  20055486.431    -5427796.534 7  -4229450.38624        26.250           3.656
  19556896.056   -23545821.784 7 -18113853.36722        26.750           2.438
 91  7 11  4  1 44.9970000  0  4G 3G21G17G23
  21557317.790     4484512.130 6   3494422.66221        14.750           0.563
  22156056.688    -9051220.384 6  -6812068.47521        12.500           0.719
  20057543.813    -5416983.306 7  -4221024.49024        25.750           3.594
  19553755.665   -23562330.404 7 -18126717.22722        27.250           2.469
 91  7 11  4  1 59.9970000  0  4G 3G21G17G23
  21564957.345     4524650.333 6   3525699.17421        14.000           0.469
  22145731.212    -9105468.893 6  -6854340.00921        12.250           0.750
  20059613.884    -5406095.816 7  -4212540.72924        26.000           3.531
  19550634.907   -23578727.059 7 -18139493.83822        27.500           2.469
 91  7 11  4  2 14.9970000  0  4G 3G21G17G23
  21572611.485     4564886.202 6   3557051.77521        13.750           0.500
  22135417.860    -9159658.459 5  -6896565.60821        11.750           0.938
  20061701.157    -5395138.213 7  -4204002.33224        27.250           3.625
  19547536.110   -23595015.739 7 -18152186.31522        27.500           2.344
 91  7 11  4  2 29.9970000  0  4G 3G21G17G23
  21580287.509     4605221.032 6   3588481.50921        13.500           0.500
  22125118.462    -9213787.691 6  -6938744.17921        12.750           0.781
  20063799.353    -5384109.101 7  -4195408.21523        26.750           3.375
  19544456.845   -23611195.470 7 -18164793.89522        27.250           2.375
 91  7 11  4  2 44.9970000  0  4G 3G21G17G23
  21587983.212     4645654.750 6   3619988.28821        13.750           0.438
  22114832.267    -9267856.169 6  -6980875.41921        13.250           0.813
  20065912.798    -5373008.424 7  -4186758.33223        27.750           3.469
  19541398.267   -23627266.059 7 -18177316.42522        26.500           2.375
 91  7 11  4  2 59.9970000  0  4G 3G21G17G23
  21595697.993     4686187.468 6   3651572.20121        13.750           0.594
  22104552.165    -9321863.230 6  -7022958.80121        13.500           0.875
  20068037.673    -5361835.500 7  -4178052.16123        27.250           3.438
  19538359.860   -23643226.968 7 -18189753.49022        26.000           2.344
 91  7 11  4  3 14.9970000  0  4G 3G21G17G23
  21603429.782     4726819.087 6   3683233.18721        14.250           0.438
  22094288.751    -9375808.749 6  -7064994.22521        13.750           0.844
  20070177.368    -5350590.560 7  -4169289.86924        26.500           3.625
  19535344.704   -23659078.350 7 -18202105.21222        27.000           2.313
 91  7 11  4  3 29.9970000  0  4G 3G21G17G23
  21611181.017     4767547.970 6   3714969.96721        14.000           0.438
  22084035.813    -9429694.110 6  -7106982.78021        14.250           0.781
  20072330.540    -5339274.713 7  -4160472.32024        26.500           3.625
  19532348.923   -23674821.684 7 -18214372.73422        26.750           2.281
 91  7 11  4  3 44.9970000  0  4G 3G21G17G23
  21618948.774     4808375.839 6   3746783.86121        12.750           0.531
  22073793.899    -9483516.849 6  -7148922.52421        15.000           0.688
  20074499.103    -5327885.925 7  -4151597.93324        26.500           3.750
  19529373.798   -23690454.741 7 -18226554.33122        26.750           2.219
 91  7 11  4  3 59.9970000  0  4G 3G21G17G23
  21626736.938     4849300.928 6   3778673.53221        13.000           0.563
  22063562.907    -9537278.576 6  -7190814.74221        15.000           0.719
  20076680.063    -5316426.061 7  -4142668.17024        26.750           3.688
  19526419.126   -23705979.346 7 -18238651.42622        27.000           2.281
 91  7 11  4  4 14.9970000  0  4G 3G21G17G23
  21634541.806     4890319.044 6   3810635.67821        12.750           0.563
  22053343.384    -9590983.395 6  -7232662.61221        15.250           0.625
  20078873.063    -5304899.242 7  -4133686.23124        26.250           3.719
  19523485.063   -23721399.733 7 -18250667.30222        27.250           2.406
 91  7 11  4  4 29.9970000  0  4G 3G21G17G23
  21642365.142     4931434.291 6   3842673.52021        13.000           0.563
  22043132.493    -9644626.669 6  -7274462.54121        15.250           0.594
  20081079.103    -5293300.839 7  -4124648.51024        25.750           3.625
  19520570.368   -23736711.273 7 -18262598.37522        27.500           2.438
 91  7 11  4  4 44.9970000  0  4G 3G21G17G23
  21650209.915     4972649.118 6   3874788.96921        12.000           0.594
  22032938.032    -9698205.538 6  -7316212.27721        15.250           0.750
  20083300.353    -5281628.102 7  -4115552.86924        25.000           3.625
  19517678.009   -23751911.606 8 -18274442.78822        28.000           2.438
 91  7 11  4  4 59.9970000  0  4G 3G21G17G23
  21658071.212     5013962.592 5   3906981.26821        11.500           0.563
  22022753.649    -9751720.662 6  -7357912.34221        15.000           0.656
  20085535.860    -5269881.866 7  -4106399.95724        24.500           3.594
  19514806.970   -23767001.483 8 -18286201.12022        29.000           2.438
 91  7 11  4  5 14.9970000  0  4G 3G21G17G23
  21665950.923     5055368.445 5   3939245.57021        11.750           0.563
  22012580.688    -9805177.805 6  -7399567.21621        14.500           0.688
  20087784.228    -5258067.984 7  -4097194.33323        24.750           3.438
  19511956.423   -23781986.872 8 -18297878.04722        29.500           2.406
 91  7 11  4  5 29.9970000  0  4G 3G21G17G23
  21673845.337     5096871.241 5   3971585.38321        11.250           0.594
  22002421.446    -9858571.934 6  -7441172.98421        14.250           0.625
  20090045.673    -5246181.776 7  -4087932.34623        24.500           3.344
  19509125.407   -23796862.848 8 -18309469.71222        28.750           2.313
 91  7 11  4  5 44.9970000  0  4G 3G21G17G23
  21681763.056     5138469.427 5   4003999.55821        11.500           0.531
  21992273.720    -9911904.494 6  -7482730.79421        14.000           0.688
  20092321.813    -5234224.915 7  -4078615.30623        25.250           3.156
  19506314.329   -23811631.321 8 -18320977.60222        28.250           2.219
 91  7 11  4  5 59.9970000  0  4G 3G21G17G23
  21689697.149     5180162.843 6   4036487.92221        12.250           0.563
  21982134.384    -9965175.039 6  -7524240.26821        13.500           0.625
  20094610.181    -5222196.928 7  -4069242.84323        25.500           3.219
  19503524.626   -23826292.094 8 -18332401.57122        28.500           2.406
 91  7 11  4  6 14.9970000  0  4G 3G21G17G23
  21697651.228     5221951.528 6   4069050.51321        12.750           0.594
  21972011.259   -10018383.292 6  -7565701.21821        14.000           0.719
  20096912.954    -5210097.534 7  -4059814.74223        26.000           3.281
  19500754.751   -23840844.866 8 -18343741.38922        28.500           2.313
 91  7 11  4  6 29.9970000  0  4G 3G21G17G23
  21705618.946     5263840.219 5   4101691.02921        11.750           0.563
  21961896.688   -10071524.115 6  -7607109.63021        13.500           0.656
  20099229.384    -5197921.959 7  -4050327.27623        26.000           3.250
  19498006.970   -23855284.835 8 -18354993.30822        28.750           2.281
 91  7 11  4  6 44.9970000  0  4G 3G21G17G23
  21713607.813     5305823.415 6   4134405.19221        12.000           0.469
  21951798.235   -10124602.579 6  -7648469.44221        13.750           0.625
  20101559.501    -5185675.226 7  -4040784.35523        26.000           3.219
  19495281.548   -23869617.141 8 -18366161.33422        29.000           2.250
 91  7 11  4  6 59.9970000  0  4G 3G21G17G23
  21721617.790     5347903.390 6   4167194.77521        12.000           0.500
  21941708.712   -10177616.132 6  -7689778.68821        13.750           0.750
  20103906.431    -5173354.769 7  -4031184.00023        27.000           3.313
  19492574.298   -23883839.534 8 -18377243.71222        28.750           2.344
 91  7 11  4  7 14.9970000  0  4G 3G21G17G23
  21729643.196     5390079.700 5   4200059.41021        11.750           0.438
  21931632.173   -10230564.666 6  -7731037.26021        13.500           0.813
  20106263.798    -5160960.819 7  -4021526.37323        26.500           3.188
  19489887.860   -23897951.893 8 -18388240.34822        29.000           2.188
 91  7 11  4  7 29.9970000  0  4G 3G21G17G23
  21737686.595     5432349.092 6   4232996.60021        12.250           0.500
  21921568.884   -10283451.499 6  -7772247.75121        14.000           0.906
  20108635.313    -5148497.035 7  -4011814.32923        26.250           3.250
  19487223.329   -23911957.693 8 -18399153.95622        28.750           2.188
 91  7 11  4  7 44.9970000  0  4G 3G21G17G23
  21745749.173     5474713.812 6   4266008.03821        12.750           0.406
  21911518.735   -10336273.801 6  -7813407.95721        14.000           0.781
  20111020.759    -5135960.315 7  -4002045.45123        26.750           3.344
  19484577.774   -23925854.585 8 -18409982.69622        28.250           2.125
 91  7 11  4  7 59.9970000  0  4G 3G21G17G23
  21753829.063     5517171.449 6   4299091.90521        13.000           0.438
  21901475.321   -10389033.434 6  -7854519.32021        13.500           0.938
  20113418.743    -5123353.019 7  -3992221.57324        25.750           3.500
  19481954.009   -23939644.625 8 -18420728.17422        28.750           2.063
 91  7 11  4  8 14.9970000  0  4G 3G21G17G23
  21761927.056     5559723.858 6   4332249.62421        12.750           0.344
  21891448.751   -10441728.110 6  -7895580.07321        13.750           1.031
  20115831.931    -5110672.865 7  -3982340.92323        25.250           3.469
  19479351.188   -23953325.594 8 -18431388.66822        29.500           2.219
 91  7 11  4  8 29.9970000  0  4G 3G21G17G23
  21770041.743     5602370.111 6   4365480.45821        12.000           0.375
  21881432.634   -10494358.577 6  -7936590.80321        14.000           1.063
  20118259.149    -5097920.745 7  -3972404.20223        24.750           3.438
  19476768.251   -23966898.497 8 -18441964.95222        29.500           2.219
 91  7 11  4  8 44.9970000  0  4G 3G21G17G23
  21778173.688     5645109.697 5   4398784.01321        11.750           0.469
  21871431.196   -10546925.006 6  -7977551.63021        14.750           1.188
  20120699.024    -5085096.946 7  -3962411.63124        25.000           3.500
  19474205.853   -23980363.817 8 -18452457.39222        29.000           2.281
 91  7 11  4  8 59.9970000  0  4G 3G21G17G23
  21786322.181     5687939.947 5   4432158.20521        11.750           0.500
  21861442.165   -10599429.520 6  -8018464.21921        15.500           0.969
  20123153.868    -5072203.718 7  -3952364.95723        24.750           3.469
  19471662.134   -23993723.795 8 -18462867.76022        28.250           2.250
 91  7 11  4  9 14.9970000  0  4G 3G21G17G23
  21794495.446     5730860.287 6   4465602.60421        12.000           0.375
  21851462.876   -10651872.350 6  -8059328.74321        16.250           1.031
  20125619.798    -5059241.518 7  -3942264.55224        24.500           3.500
  19469140.962   -24006978.833 8 -18473196.35422        28.750           2.375
 91  7 11  4  9 29.9970000  0  4G 3G21G17G23
  21802676.579     5773877.505 5   4499122.49721        11.250           0.438
  21841497.196   -10704246.393 6  -8100139.66721        16.250           0.969
  20128100.134    -5046203.234 7  -3932104.83824        25.000           3.625
  19466639.931   -24020122.157 8 -18483437.89022        29.000           2.375
 91  7 11  4  9 44.9970000  0  4G 3G21G17G23
  21810881.618     5816987.016 6   4532714.32321        12.000           0.406
  21831540.798   -10756555.773 6  -8140900.20421        15.750           0.938
  20130595.540    -5033092.953 7  -3921889.03424        25.750           3.719
  19464159.829   -24033158.038 8 -18493595.71822        28.750           2.188
 91  7 11  4  9 59.9970000  0  4G 3G21G17G23
  21819104.579     5860192.322 5   4566380.79121        11.500           0.406
  21821599.423   -10808796.913 6  -8181607.54921        15.000           0.875
  20133104.001    -5019907.386 7  -3911614.56124        25.750           3.656
  19461699.204   -24046082.947 8 -18503667.07822        28.750           2.281
 91  7 11  4 10 14.9970000  0  4G 3G21G17G23
  21827341.970     5903492.148 5   4600120.89121        11.000           0.375
  21811667.392   -10860970.481 6  -8222262.26121        14.000           0.906
  20135627.235    -5006647.458 7  -3901282.14123        26.250           3.469
  19459260.774   -24058897.894 8 -18513652.74122        28.750           2.250
 91  7 11  4 10 29.9970000  0  4G 3G21G17G23
  21835598.501     5946878.378 5   4633928.31821        10.500           0.313
  21801752.313   -10913084.241 6  -8262870.37221        13.750           0.875
  20138164.681    -4993320.968 7  -3890897.85423        27.250           3.375
  19456841.978   -24071610.773 8 -18523558.87322        28.250           2.156
 91  7 11  4 10 44.9970000  0  4G 3G21G17G23
  21843869.978     5990350.628 5   4667802.79021         9.500           0.375
  21791848.103   -10965138.047 6  -8303431.76321        14.500           0.969
  20140713.907    -4979927.946 8  -3880461.72523        28.250           3.344
  19454442.782   -24084221.608 8 -18533385.49822        28.000           2.281
 91  7 11  4 10 59.9970000  0  4G 3G21G17G23
  21852161.134     6033913.401 5   4701747.75121        10.000           0.469
  21781954.681   -11017127.199 6  -8343942.77021        14.000           0.969
  20143275.220    -4966463.720 8  -3869970.11523        28.250           3.313
  19452062.931   -24096726.040 7 -18543129.20722        27.750           2.281
 91  7 11  4 11 14.9970000  0  4G 3G21G17G23
  21860467.313     6077566.860 5   4735763.43821        10.250           0.344
  21772074.204   -11069051.168 6  -8384402.96921        13.750           1.000
  20145851.056    -4952927.901 7  -3859422.72623        27.750           3.344
  19449703.056   -24109123.640 8 -18552789.66922        28.250           2.188
 91  7 11  4 11 29.9970000  0  4G 3G21G17G23
  21868792.228     6121312.326 5   4769850.77121        10.000           0.438
  21762206.345   -11120908.145 6  -8424810.98121        14.500           0.969
  20148440.063    -4939319.003 7  -3848818.38323        27.250           3.313
  19447364.860   -24121413.113 8 -18562365.88222        28.500           2.219
 91  7 11  4 11 44.9970000  0  4G 3G21G17G23
  21877133.243     6165148.806 5   4804009.05221        10.250           0.344
  21752351.657   -11172698.893 6  -8465167.38921        14.250           1.000
  20151044.798    -4925637.705 7  -3838157.63423        27.500           3.250
  19445046.563   -24133595.082 8 -18571858.32322        28.250           2.281
 91  7 11  4 11 59.9970000  0  4G 3G21G17G23
  21885494.665     6209073.050 5   4838235.70021        10.750           0.406
  21742509.079   -11224426.047 6  -8505474.23421        15.000           0.938
  20153660.267    -4911887.048 7  -3827442.83223        26.500           3.125
  19442748.790   -24145672.625 8 -18581269.37822        28.000           2.219
 91  7 11  4 12 14.9970000  0  4G 3G21G17G23
  21893866.009     6253087.069 5   4872532.31121         9.500           0.500
  21732676.290   -11276087.488 6  -8545729.88921        14.500           1.000
  20156289.884    -4898064.715 7  -3816672.17823        26.750           3.094
  19440470.282   -24157643.722 7 -18590597.50322        27.500           2.250
 91  7 11  4 12 29.9960000  0  4G 3G21G17G23
  21902257.504     6297190.771 5   4906898.80421         9.250           0.500
  21722858.254   -11327676.379 6  -8585928.99521        14.250           1.000
  20158934.574    -4884168.533 7  -3805843.98423        27.250           3.219
  19438213.301   -24169504.356 7 -18599839.55222        27.750           2.188
 91  7 11  4 12 44.9960000  0  4G 3G21G17G23
  21910672.863     6341387.352 5   4941337.65721        10.500           0.438
  21713056.770   -11379201.860 6  -8626078.70521        14.500           1.094
  20161592.231    -4870199.053 7  -3794958.67023        27.500           3.188
  19435976.059   -24181258.696 7 -18608998.77422        27.250           2.188
 91  7 11  4 12 59.9960000  0  4G 3G21G17G23
  21919100.512     6385670.695 5   4975844.11821        10.750           0.406
  21703263.801   -11430663.332 6  -8666178.52521        14.500           1.188
  20164265.723    -4856160.066 8  -3784019.19523        28.250           3.250
  19433758.316   -24192908.907 7 -18618076.85722        26.500           2.281
 91  7 11  4 13 14.9960000  0  4G 3G21G17G23
  21927544.012     6430048.563 5   5010424.23221        10.500           0.281
  21693479.504   -11482052.798 6  -8706222.24121        14.000           1.219
  20166950.277    -4842043.706 7  -3773019.43123        27.500           3.313
  19431564.465   -24204447.153 7 -18627067.69222        27.500           2.313
 91  7 11  4 13 29.9960000  0  4G 3G21G17G23
  21936002.371     6474516.953 5   5045074.91121        10.250           0.344
  21683716.035   -11533373.655 6  -8746212.49921        14.250           1.281
  20169651.863    -4827853.607 8  -3761962.20423        28.000           3.375
  19429388.691   -24215877.199 7 -18635974.21422        27.250           2.250
 91  7 11  4 13 44.9960000  0  4G 3G21G17G23
  21944483.988     6519070.823 5   5079792.17021        10.500           0.438
  21673964.215   -11584630.795 6  -8786153.09821        14.250           1.250
  20172365.363    -4813594.586 8  -3750851.27023        28.000           3.281
  19427232.707   -24227203.968 7 -18644800.26422        26.500           2.219
 91  7 11  4 13 59.9960000  0  4G 3G21G17G23
  21952981.910     6563717.425 6   5114581.70621        12.000           0.313
  21664223.707   -11635816.701 6  -8826038.18821        14.500           1.281
  20175094.332    -4799259.188 7  -3739680.83323        27.500           3.375
  19425099.301   -24238419.974 7 -18653540.00622        27.500           2.156
 91  7 11  4 14 14.9960000  0  4G 3G21G17G23
  21961495.809     6608453.940 6   5149441.30121        12.000           0.406
  21654494.137   -11686933.434 6  -8865869.38921        15.000           1.094
  20177834.941    -4784849.786 7  -3728452.72723        26.500           3.375
  19422984.879   -24249527.688 7 -18662195.35622        27.000           1.969
 91  7 11  4 14 29.9960000  0  4G 3G21G17G23
  21970024.965     6653280.120 5   5184370.77021        11.750           0.313
  21644780.207   -11737980.964 6  -8905646.65821        15.000           1.156
  20180590.184    -4770366.513 7  -3717167.05723        26.000           3.344
  19420892.363   -24260527.374 7 -18670766.53822        27.500           2.094
 91  7 11  4 14 44.9960000  0  4G 3G21G17G23
  21978571.832     6698186.802 6   5219362.96921        12.500           0.500
  21635075.770   -11788968.235 6  -8945376.97821        14.500           1.094
  20183357.863    -4755818.379 7  -3705830.84523        25.000           3.313
  19418817.699   -24271428.299 7 -18679260.75822        26.750           2.000
 91  7 11  4 14 59.9960000  0  4G 3G21G17G23
  21987132.590     6743182.023 6   5254424.15521        12.250           0.406
  21625386.887   -11839886.746 6  -8985053.72121        15.500           1.031
  20186140.293    -4741196.768 7  -3694437.38023        25.500           3.344
  19416762.223   -24282222.086 7 -18687671.49222        26.500           2.094
 91  7 11  4 15 14.9960000  0  4G 3G21G17G23
  21995708.473     6788265.483 5   5289554.08421        11.750           0.375
  21615713.129   -11890736.530 6  -9024676.92221        16.250           0.938
  20188937.598    -4726501.993 7  -3682986.91023        25.000           3.344
  19414730.191   -24292908.756 7 -18695998.76722        27.250           2.094
 91  7 11  4 15 29.9960000  0  4G 3G21G17G23
  22004305.082     6833433.666 5   5324750.05721        11.500           0.500
  21606050.301   -11941520.490 6  -9064248.82421        17.000           1.125
  20191748.566    -4711737.353 7  -3671481.99223        25.750           3.438
  19412716.395   -24303491.430 7 -18704245.00322        27.250           2.125
 91  7 11  4 15 44.9960000  0  4G 3G21G17G23
  22012919.535     6878689.243 5   5360014.11821        11.750           0.563
  21596401.699   -11992235.576 6  -9103767.05421        17.000           1.000
  20194570.629    -4696899.924 7  -3659920.35423        25.750           3.156
  19410722.473   -24313967.625 7 -18712408.26122        27.250           2.094
 91  7 11  4 15 59.9960000  0  4G 3G21G17G23
  22021547.801     6924031.188 5   5395345.49321        11.250           0.469
  21586759.629   -12042882.507 6  -9143232.17521        15.500           1.063
  20197408.113    -4681990.481 7  -3648302.60523        26.500           3.188
  19408749.715   -24324338.094 7 -18720489.13822        27.500           2.219
 91  7 11  4 16 14.9960000  0  4G 3G21G17G23
  22030187.363     6969458.964 5   5430743.73021         9.500           0.500
  21577135.988   -12093461.449 6  -9182644.31121        15.750           1.094
  20200259.770    -4667008.955 7  -3636628.68123        27.500           3.000
  19406795.926   -24334603.097 7 -18728487.83422        26.750           2.281
 91  7 11  4 16 29.9960000  0  4G 3G21G17G23
  22038849.535     7014967.245 5   5466204.70821        10.000           0.500
  21567520.981   -12143977.377 6  -9222007.36121        15.500           1.000
  20203122.535    -4651960.798 8  -3624902.84323        28.000           3.031
  19404861.762   -24344767.838 7 -18736408.40222        26.750           2.219
 91  7 11  4 16 44.9960000  0  4G 3G21G17G23
  22047526.246     7060562.575 5   5501733.52321        11.000           0.469
  21557923.566   -12194423.426 6  -9261315.93921        16.250           0.969
  20206000.121    -4636838.998 7  -3613119.61123        27.000           2.938
  19402948.168   -24354825.793 7 -18744245.76422        27.500           2.281
 91  7 11  4 16 59.9960000  0  4G 3G21G17G23
  22056217.512     7106239.956 5   5537326.26021        11.750           0.469
  21548336.379   -12244804.260 6  -9300573.71521        16.500           1.000
  20208892.066    -4621648.525 7  -3601282.87123        27.000           2.938
  19401053.848   -24364781.705 7 -18752003.60822        27.750           2.281
 91  7 11  4 17 14.9960000  0  4G 3G21G17G23
  22064927.051     7152000.637 6   5572983.90821        12.500           0.531
  21538761.613   -12295118.085 6  -9339779.27821        15.750           1.094
  20211795.566    -4606387.651 7  -3589391.27923        27.000           2.844
  19399178.434   -24374633.970 8 -18759680.69622        28.000           2.313
 91  7 11  4 17 29.9960000  0  4G 3G21G17G23
  22073651.957     7197846.150 6   5608707.68821        12.750           0.500
  21529201.137   -12345362.925 6  -9378931.06321        15.750           1.000
  20214713.731    -4591054.525 7  -3577443.38123        26.750           2.938
  19397324.481   -24384380.799 8 -18767275.62022        28.000           2.250
 91  7 11  4 17 44.9960000  0  4G 3G21G17G23
  22082392.691     7243776.081 6   5644497.22221        12.750           0.500
  21519651.340   -12395538.792 6  -9418029.11321        15.500           1.094
  20217644.981    -4575649.413 7  -3565439.38823        26.500           2.969
  19395489.168   -24394022.598 8 -18774788.70122        28.250           2.188
 91  7 11  4 17 59.9960000  0  4G 3G21G17G23
  22091148.535     7289787.525 6   5680350.27721        13.250           0.344
  21510114.746   -12445648.428 6  -9457075.55321        15.000           1.156
  20220589.129    -4560174.961 7  -3553381.36323        26.250           2.875
  19393673.051   -24403562.378 7 -18782222.28522        27.750           2.219
 91  7 11  4 18 14.9960000  0  4G 3G21G17G23
  22099919.840     7335881.643 6   5716267.76221        13.000           0.344
  21500593.113   -12495690.268 6  -9496069.17121        15.000           1.063
  20223547.762    -4544629.786 7  -3541268.23623        25.500           2.844
  19391878.277   -24412998.477 8 -18789575.09022        28.250           2.188
 91  7 11  4 18 29.9960000  0  4G 3G21G17G23
  22108703.871     7382058.551 6   5752249.74821        12.500           0.375
  21491083.004   -12545663.718 6  -9535009.51121        15.000           1.031
  20226518.574    -4529013.454 7  -3529099.66123        24.500           2.875
  19390102.496   -24422330.667 8 -18796846.91722        28.250           2.094
 91  7 11  4 18 44.9960000  0  4G 3G21G17G23
  22117508.988     7428318.289 6   5788296.26921        12.500           0.469
  21481587.949   -12595568.334 6  -9573896.19521        15.000           1.094
  20229502.293    -4513325.627 7  -3516875.37223        24.000           2.813
  19388346.004   -24431558.726 8 -18804037.60922        28.000           2.219
 91  7 11  4 18 59.9960000  0  4G 3G21G17G23
  22126327.801     7474660.552 5   5824407.11121        11.750           0.344
  21472102.981   -12645403.973 6  -9612729.12621        15.250           1.000
  20232502.191    -4497566.425 7  -3504595.47123        23.750           2.938
  19386610.293   -24440682.848 8 -18811147.30922        28.250           2.250
 91  7 11  4 19 14.9960000  0  4G 3G21G17G23
  22135161.902     7521083.566 5   5860580.84921        11.250           0.375
  21462632.512   -12695172.299 6  -9651509.62521        15.750           0.875
  20235514.926    -4481737.489 7  -3492261.23523        24.250           3.063
  19384893.168   -24449704.669 8 -18818177.29622        28.500           2.313
 91  7 11  4 19 29.9960000  0  4G 3G21G17G23
  22144010.410     7567586.785 5   5896817.10121        10.500           0.375
  21453172.676   -12744873.264 6  -9690237.61621        15.250           0.938
  20238539.699    -4465838.747 7  -3479872.60023        24.750           3.094
  19383195.824   -24458624.350 8 -18825127.69522        28.500           2.219
 91  7 11  4 19 44.9960000  0  4G 3G21G17G23
  22152871.207     7614175.460 5   5933119.95621         8.250           0.281
  21443729.582   -12794501.272 6  -9728908.75521        16.000           1.031
  20241580.293    -4449864.876 7  -3467425.42423        25.000           3.188
  19381519.637   -24467436.574 8 -18831994.35822        29.250           2.219
 91  7 11  4 19 59.9960000  0  4G 3G21G17G23
  22161756.098     7660844.651 5   5969485.52921         9.250           0.313
  21434300.606   -12844060.811 6  -9767526.55721        17.000           1.031
  20244632.832    -4433820.614 7  -3454923.40123        25.500           3.250
  19379860.426   -24476146.316 7 -18838781.16022        27.250           2.156
 91  7 11  4 20 14.9960000  0  4G 3G21G17G23
  22170654.887     7707594.194 5   6005913.72921         9.500           0.219
  21424883.582   -12893551.757 6  -9806090.90521        16.500           0.938
  20247699.738    -4417705.825 7  -3442366.42124        25.750           3.500
  19378223.152   -24484753.489 7 -18845488.04622        27.500           2.156
 91  7 11  4 20 29.9960000  0  4G 3G21G17G23
  22179565.887     7754426.113 5   6042406.12421         9.500           0.156
  21415476.793   -12942971.497 6  -9844599.75421        16.250           1.031
  20250779.574    -4401518.089 7  -3429752.59324        25.750           3.625
  19376604.621   -24493255.577 7 -18852113.04522        26.750           2.125
 91  7 11  4 20 44.9960000  0  4G 3G21G17G23
  22188492.496     7801341.956 5   6078963.90021         9.000           0.281
  21406085.887   -12992318.400 6  -9883051.85221        16.250           1.063
  20253873.379    -4385255.724 7  -3417080.62424        26.000           3.531
  19375007.332   -24501651.056 7 -18858654.97222        26.750           1.938
 91  7 11  4 20 59.9960000  0  4G 3G21G17G23
  22197434.457     7848335.302 5   6115582.07121         8.250           0.344
  21396710.012   -13041598.270 6  -9921451.72421        17.000           1.031
  20256982.004    -4368924.723 7  -3404355.16523        26.500           3.438
  19373429.504   -24509946.089 7 -18865118.63222        26.750           1.938
 91  7 11  4 21 14.9960000  0  4G 3G21G17G23
  22206391.684     7895409.900 5   6152263.51921         7.750           0.281
  21387345.785   -13090806.971 6  -9959796.14221        16.750           1.094
  20260104.402    -4352521.261 7  -3391573.23623        27.250           3.469
  19371870.395   -24518136.920 7 -18871501.09822        27.250           1.875
 91  7 11  4 21 29.9960000  0  4G 3G21G17G23
  22215368.496     7942559.376 5   6189003.35821         8.000           0.188
  21377995.691   -13139950.427 6  -9998089.70321        17.250           1.125
  20263237.629    -4336051.214 7  -3378739.42623        26.500           3.438
  19370330.559   -24526229.782 7 -18877807.22122        27.500           1.875
 91  7 11  4 21 44.9960000  0  4G 3G21G17G23
  22224351.856     7989787.870 5   6225804.74621         7.750           0.125
  21368656.121   -13189024.116 6 -10036328.91621        17.500           1.188
  20266384.754    -4319510.451 7  -3365850.51323        26.250           3.438
  19368809.941   -24534220.219 7 -18884033.53022        27.000           2.031
 91  7 11  4 21 59.9960000  0  4G 3G21G17G23
  22233355.246     8037094.643 5   6262667.17121         7.750           0.188
  21359332.137   -13238028.512 6 -10074514.12521        17.500           1.156
  20269545.504    -4302899.165 7  -3352906.65224        26.000           3.500
  19367307.676   -24542108.803 7 -18890180.47022        27.250           2.031
 91  7 11  4 22 14.9960000  0  4G 3G21G17G23
  22242373.113     8084479.006 5   6299590.04921         8.000           0.156
  21350019.027   -13286964.070 6 -10112645.70121        17.250           1.125
  20272720.621    -4286217.806 7  -3339908.18523        25.750           3.375
  19365827.879   -24549896.126 8 -18896248.50722        28.250           2.281
 91  7 11  4 22 29.9960000  0  4G 3G21G17G23
  22251403.629     8131941.737 5   6336573.96221         8.000           0.250
  21340719.816   -13335829.320 6 -10150722.48821        17.000           1.188
  20275910.074    -4269465.595 7  -3326854.50823        26.250           3.219
  19364364.754   -24557581.268 8 -18902236.92322        28.250           2.156
 91  7 11  4 22 44.9960000  0  4G 3G21G17G23
  22260448.254     8179483.251 5   6373619.27821         8.000           0.188
  21331435.637   -13384623.705 6 -10188744.06221        16.500           1.063
  20279110.465    -4252641.672 7  -3313744.94523        25.750           3.188
  19362922.621   -24565163.465 8 -18908145.12822        29.000           2.188
 91  7 11  4 22 59.9960000  0  4G 3G21G17G23
  22269515.957     8227103.307 5   6410725.77021         8.500           0.188
  21322160.668   -13433347.190 6 -10226710.38721        15.500           1.063
  20282324.246    -4235746.122 7  -3300579.57323        25.000           3.125
  19361498.301   -24572643.010 8 -18913973.33522        28.750           2.313
 91  7 11  4 23 14.9960000  0  4G 3G21G17G23
  22278591.324     8274799.171 5   6447891.36321         8.750           0.094
  21312904.551   -13482001.941 6 -10264623.16821        16.000           1.125
  20285553.316    -4218781.131 7  -3287360.09523        25.750           3.000
  19360094.566   -24580022.467 8 -18919723.55722        28.750           2.219
 91  7 11  4 23 29.9960000  0  4G 3G21G17G23
  22287681.668     8322571.039 5   6485116.18021         8.000           0.250
  21303658.965   -13530587.400 6 -10302481.93521        16.250           1.000
  20288795.434    -4201746.373 7  -3274086.25523        25.250           3.000
  19358708.871   -24587301.258 8 -18925395.33522        28.000           2.313
 91  7 11  4 23 44.9960000  0  4G 3G21G17G23
  22296785.113     8370418.808 4   6522400.09621         7.250           0.250
  21294426.332   -13579103.266 6 -10340286.48521        16.500           1.000
  20292050.285    -4184641.695 7  -3260757.93523        25.000           2.781
  19357342.590   -24594479.426 7 -18930988.71222        27.500           2.281
 91  7 11  4 23 59.9960000  0  4G 3G21G17G23
  22305904.082     8418343.130 5   6559743.70821         7.500           0.188
  21285208.238   -13627548.401 6 -10378035.91321        17.750           1.031
  20295317.840    -4167466.097 7  -3247374.34323        24.250           2.781
  19355996.223   -24601556.093 7 -18936502.99722        27.500           2.406
 91  7 11  4 24 14.9960000  0  4G 3G21G17G23
  22315034.871     8466343.104 4   6597146.26021         6.750           0.125
  21276003.027   -13675923.280 6 -10415730.58121        18.000           1.219
  20298599.199    -4150220.131 7  -3233935.92323        24.000           2.844
  19354669.020   -24608531.881 7 -18941938.66622        27.250           2.219
 91  7 11  4 24 29.9960000  0  4G 3G21G17G23
  22324183.613     8514417.577 4   6634606.85521         7.000           0.125
  21266810.652   -13724228.983 6 -10453371.35821        17.250           1.250
  20301896.676    -4132904.947 7  -3220443.56623        24.000           2.781
  19353360.340   -24615408.047 7 -18947296.70422        27.000           2.219
 91  7 11  4 24 44.9960000  0  4G 3G21G17G23
  22333350.434     8562565.756 5   6672124.91821         7.750           0.125
  21257631.059   -13772465.714 6 -10490958.38921        17.750           1.188
  20305201.910    -4115521.033 7  -3206897.66223        23.250           3.000
  19352070.871   -24622185.065 7 -18952577.50322        27.000           2.219
 91  7 11  4 24 59.9960000  0  4G 3G21G17G23
  22342525.871     8610792.635 5   6709704.28221         8.000           0.063
  21248466.418   -13820628.041 6 -10528487.44421        17.750           1.219
  20308525.145    -4098063.192 7  -3193294.14723        23.000           2.875
  19350801.637   -24628857.753 7 -18957776.99322        27.500           2.281
 91  7 11  4 25 14.9960000  0  4G 3G21G17G23
  22351718.996     8659096.670 5   6747343.76621         8.000           0.156
  21239316.027   -13868717.073 6 -10565959.38921        17.500           1.063
  20311860.988    -4080532.551 7  -3179633.90423        23.000           2.906
  19349550.613   -24635427.412 7 -18962896.20122        27.750           2.406
 91  7 11  4 25 29.9960000  0  4G 3G21G17G23
  22360924.129     8707479.284 4   6785044.48321         7.250           0.281
  21230177.918   -13916731.220 6 -10603372.97421        17.000           1.125
  20315211.395    -4062927.244 7  -3165915.48223        23.500           2.844
  19348320.770   -24641892.506 7 -18967933.92922        27.500           2.438
 91  7 11  4 25 44.9960000  0  4G 3G21G17G23
  22370145.043     8755933.003 4   6822800.61121         6.500           0.156
  21221052.301   -13964677.509 6 -10640733.68721        17.000           1.125
  20318573.551    -4045254.607 7  -3152144.59423        23.500           2.969
  19347108.645   -24648260.383 7 -18972895.90523        27.750           2.531
 91  7 11  4 25 59.9960000  0  4G 3G21G17G23
  22379380.348     8804458.044 4   6860612.25521         6.500           0.156
  21211944.168   -14012555.225 6 -10678040.95921        17.750           1.188
  20321951.582    -4027514.071 7  -3138320.79223        24.000           2.844
  19345915.996   -24654530.580 7 -18977781.75522        27.500           2.406
 91  7 11  4 26 14.9960000  0  4G 3G21G17G23
  22388626.598     8853054.870 4   6898479.86321         6.250           0.250
  21202845.332   -14060363.531 6 -10715294.15221        17.500           1.281
  20325341.098    -4009704.874 7  -3124443.49023        25.000           2.844
  19344741.652   -24660702.505 7 -18982591.03822        26.250           2.375
 91  7 11  4 26 29.9960000  0  4G 3G21G17G23
  22397890.879     8901726.035 4   6936405.42021         6.250           0.125
  21193761.879   -14108099.669 6 -10752491.11721        17.750           1.281
  20328742.535    -3991824.290 7  -3110510.56423        25.000           2.750
  19343585.371   -24666773.504 7 -18987321.68122        25.250           2.438
 91  7 11  4 26 44.9960000  0  4G 3G21G17G23
  22407163.387     8950468.569 3   6974386.57721         6.000           0.156
  21184692.129   -14155765.870 6 -10789633.58321        17.500           1.438
  20332157.754    -3973875.113 7  -3096524.18523        24.500           2.750
  19342448.496   -24672746.197 7 -18991975.71922        25.500           2.313
 91  7 11  4 26 59.9960000  0  4G 3G21G17G23
  22416453.457     8999282.131 3   7012423.11421         6.000           0.156
  21175631.395   -14203362.207 6 -10826721.60621        16.250           1.250
  20335586.949    -3955857.289 7  -3082484.31223        24.250           2.625
  19341330.731   -24678620.829 7 -18996553.34222        25.500           2.375
 91  7 11  4 27 14.9960000  0  4G 3G21G17G23
  22425754.113     9048168.656 3   7050516.44721         5.500           0.063
  21166587.816   -14250886.369 6 -10863753.38521        16.500           1.188
  20339028.645    -3937768.509 7  -3068389.15723        24.000           2.656
  19340233.598   -24684395.092 7 -19001052.75622        26.250           2.469
 91  7 11  4 27 29.9960000  0  4G 3G21G17G23
  22435066.418     9097126.793 2                         4.750
  21157561.871   -14298339.553 6 -10900729.86921        17.250           1.375
  20342484.754    -3919610.107 7  -3054239.75723        24.500           2.688
  19339152.598   -24690070.462 7 -19005475.11322        26.500           2.344
 91  7 11  4 27 44.9960000  0  4G 3G21G17G23
  22444400.879     9146158.640 3                         5.000
  21148544.777   -14345719.253 6 -10937649.08721        17.500           1.281
  20345953.160    -3901379.450 7  -3040034.04323        25.000           2.813
  19338091.512   -24695644.678 7 -19009818.65022        26.750           2.375
 91  7 11  4 27 59.9960000  0  4G 3G21G17G23
  22453745.566     9195258.325 3                         5.500
  21139542.098   -14393030.690 6 -10974515.12921        17.000           1.375
  20349434.145    -3883082.086 7  -3025776.36123        24.000           2.844
  19337049.410   -24701123.314 7 -19014087.70622        26.000           2.344
 91  7 11  4 28 14.9960000  0  4G 3G21G17G23
  22463101.012     9244430.942 3                         5.250
  21130552.691   -14440268.526 6 -11011323.81521        17.250           1.375
  20352929.738    -3864712.915 7  -3011462.71923        24.500           2.875
  19336026.496   -24706501.131 7 -19018278.20322        26.500           2.375
 91  7 11  4 28 29.9960000  0  4G 3G21G17G23
  22472472.316     9293673.644 3                         5.250
  21121575.902   -14487435.207 6 -11048077.05521        16.750           1.406
  20356439.293    -3846274.480 7  -2997095.10923        24.750           2.844
  19335020.676   -24711780.780 7 -19022392.20022        26.500           2.375
 91  7 11  4 28 44.9960000  0  4G 3G21G17G23
  22481856.004     9342987.031 2                         4.500
  21112613.676   -14534529.634 6 -11084773.99621        17.500           1.438
  20359961.574    -3827765.869 7  -2982672.81623        24.500           2.813
  19334035.152   -24716961.544 7 -19026429.15422        27.250           2.313
 91  7 11  4 28 59.9960000  0  4G 3G21G17G23
  22491245.613     9392369.211 1                         3.500
  21103666.254   -14581553.387 6 -11121415.87321        18.000           1.438
  20363496.145    -3809188.584 7  -2968197.01423        23.500           2.750
  19333069.848   -24722045.151 8 -19030390.40222        28.000           2.219
 91  7 11  4 29 14.9960000  0  4G 3G21G17G23
  22500660.152     9441824.112 2                         4.500
  21094733.691   -14628502.201 6 -11157999.33622        18.250           1.563
  20367044.535    -3790538.432 7  -2953664.42823        23.750           2.875
  19332119.543   -24727027.360 7 -19034272.63322        26.750           2.188
 91  7 11  4 29 29.9960000  0  4G 3G21G17G23
  22510088.754     9491349.598 3                         5.000
  21085812.957   -14675377.914 6 -11194525.83121        17.500           1.375
  20370608.254    -3771817.451 7  -2939076.64623        24.250           2.750
  19331191.379   -24731910.308 7 -19038077.51722        27.000           2.250
 91  7 11  4 29 44.9960000  0  4G 3G21G17G23
  22519526.793     9540941.151 2                         4.750
  21076903.707   -14722184.514 6 -11230998.48322        16.750           1.500
  20374183.762    -3753029.764 7  -2924436.89123        24.500           2.750
  19330279.574   -24736698.379 7 -19041808.47422        27.250           2.094
 91  7 11  4 29 59.9960000  0  4G 3G21G17G23
  22528977.926     9590599.746 3                         5.000
  21068011.434   -14768920.440 6 -11267416.07321        17.250           1.438
  20377769.941    -3734173.844 7  -2909743.96323        23.500           2.750
  19329386.152   -24741390.101 7 -19045464.35722        27.250           2.156
 91  7 11  4 30 14.9960000  0  4G 3G21G17G23
  22538443.027     9640326.856 3                         5.250
  21059129.699   -14815584.262 6 -11303777.46322        16.250           1.563
  20381374.316    -3715248.122 7  -2894996.64823        24.250           2.688
  19328512.168   -24745983.995 7 -19049044.00422        26.250           2.219
 91  7 11  4 30 29.9960000  0  4G 3G21G17G23
  22547915.231     9690121.961 2                         4.500
  21050264.129   -14862175.845 6 -11340082.58421        17.250           1.438
  20384986.731    -3696252.836 7  -2880195.12723        23.750           2.625
  19327657.473   -24750480.215 7 -19052547.55222        26.500           2.281
 91  7 11  4 30 44.9960000  0  4G 3G21G17G23
  22557404.754     9739986.070 3                         5.000
  21041415.559   -14908693.768 6 -11376330.30222        18.250           1.563
  20388616.793    -3677186.782 7  -2865338.46023        23.750           2.625
  19326821.754   -24754877.909 7 -19055974.32222        27.000           2.313
 91  7 11  4 30 59.9960000  0  4G 3G21G17G23
  22566907.652     9789914.817 3                         5.250
  21032573.191   -14955142.025 6 -11412523.71921        17.750           1.469
  20392257.004    -3658053.929 7  -2850429.74223        23.500           2.594
  19326002.004   -24759181.172 7 -19059327.51622        27.250           2.344
 91  7 11  4 31 14.9960000  0  4G 3G21G17G23
  22576421.340     9839912.181 2                         4.750
  21023748.879   -15001516.385 6 -11448659.55822        18.000           1.500
  20395910.207    -3638850.190 7  -2835465.78623        22.750           2.656
  19325201.215   -24763385.818 7 -19062603.85522        27.500           2.313
 91  7 11  4 31 29.9960000  0  4G 3G21G17G23
  22585943.863     9889981.439 1                         3.500
  21014939.981   -15047813.191 6 -11484734.97421        18.750           1.438
  20399579.785    -3619571.934 7  -2820443.76323        22.000           2.781
  19324420.301   -24767488.369 8 -19065800.64322        28.000           2.281
 91  7 11  4 31 44.9960000  0  5G 3G21G17G11G23
  22595480.285     9940117.386 1                         3.250
  21006141.754   -15094037.029 6 -11520753.54222        18.750           1.531
  20403259.246    -3600224.138 7  -2805367.55023        21.750           2.750
  23603799.973          -0.49215                         8.000
  19323658.004   -24771493.914 8 -19068921.83522        28.000           2.313
 91  7 11  4 31 59.9960000  0  4G21G17G11G23
  20997361.801   -15140188.075 6 -11556715.37422        18.750           1.500
  20406957.238    -3580806.686 7  -2790237.06823        22.750           2.813
  23591503.879      -64620.529 5                         7.750
  19322914.098   -24775402.669 7 -19071967.61922        27.750           2.188
 91  7 11  4 32 14.9960000  0  4G21G17G11G23
  20988591.152   -15186269.375 6 -11592622.86621        18.500           1.469
  20410662.684    -3561322.863 7  -2775054.86623        22.750           2.844
  23579209.387     -129225.610 5                         7.750
  19322189.215   -24779217.804 8 -19074940.44422        28.000           2.250
 91  7 11  4 32 29.9960000  0  4G21G17G11G23
  20979838.981   -15232278.043 6 -11628473.75921        19.750           1.469
  20414385.254    -3541769.740 7  -2759818.67223        23.250           2.938
  23566920.574     -193812.659 5                         7.750
  19321480.402   -24782936.755 7 -19077838.31322        26.500           2.219
 91  7 11  4 32 44.9960000  0  4G21G17G11G23
  20971095.723   -15278214.718 6 -11664268.55921        19.500           1.406
  20418116.738    -3522148.133 7  -2744529.11223        22.750           3.000
  23554635.082     -258382.074 5                         8.250
  19320790.543   -24786560.350 7 -19080661.89722        26.250           2.188
 91  7 11  4 32 59.9960000  0  5G 3G21G17G11G23
  22643374.965          -0.43613                         5.000
  20962369.520   -15324080.896 7 -11700008.41421        20.000           1.438
  20421864.106    -3502459.872 7  -2729187.60623        24.000           2.938
  23542352.137     -322935.024 5                         8.500
  19320118.285   -24790090.111 7 -19083412.35622        25.750           2.344
 91  7 11  4 33 14.9960000  0  5G 3G21G17G11G23
  22652986.699       50518.181 2                         4.750
  20953653.606   -15369877.249 6 -11735693.85721        19.250           1.438
  20425623.660    -3482705.538 7  -2713794.61923        23.750           2.906
  23530070.340     -387472.041 5        -0.37431         8.750           0.406
  19319463.660   -24793526.979 7 -19086090.43222        25.500           2.313
 91  7 11  4 33 29.9960000  0  5G 3G21G17G11G23
  22662620.387      101105.695 3                         5.000
  20944952.168   -15415595.874 6 -11771318.73921        18.250           1.375
  20429398.957    -3462877.432 7  -2698344.13923        24.500           2.938
  23517791.340     -451985.034 5    -50270.20221         8.500           0.313
  19318829.199   -24796863.578 7 -19088690.38322        25.500           2.438
 91  7 11  4 33 44.9960000  0  5G 3G21G17G11G23
  22672257.527      151757.728 2                         4.250
  20936266.762   -15461240.664 6 -11806886.07721        18.500           1.406
  20433185.231    -3442979.524 7  -2682839.27523        24.500           2.844
  23505517.863     -516477.614 5   -100524.10221         8.250           0.281
  19318212.481   -24800103.802 7 -19091215.22723        25.500           2.531
 91  7 11  4 33 59.9960000  0  5G 3G21G17G11G23
  22681903.215      202474.080 1                         3.500
  20927594.887   -15506811.556 6 -11842395.85321        18.750           1.469
  20436984.535    -3423011.929 7  -2667280.11223        23.500           2.844
  23493252.004     -580949.418 5   -150761.83221         8.750           0.250
  19317615.160   -24803247.744 7 -19093665.04823        26.250           2.563
 91  7 11  4 34 14.9960000  0  5G 3G21G17G11G23
  22691559.691      253253.386 1                         3.500
  20918936.215   -15552309.485 6 -11877848.77721        19.000           1.344
  20440794.848    -3402975.633 7  -2651667.41523        22.250           2.719
  23480988.348     -645401.208 5   -200983.94621         9.250           0.250
  19317034.316   -24806296.706 7 -19096040.85223        26.250           2.625
 91  7 11  4 34 29.9960000  0  5G 3G21G17G11G23
  22701239.785      304093.653 2                         3.750
  20910292.027   -15597736.017 6 -11913246.06921        19.000           1.469
  20444621.191    -3382872.333 7  -2636002.50123        23.250           2.781
  23468726.621     -709834.225 5   -251191.46121        10.000           0.219
  19316473.652   -24809252.270 7 -19098343.89123        27.250           2.563
 91  7 11  4 34 44.9960000  0  5G 3G21G17G11G23
  22710926.316      354999.662 2                         4.000
  20901663.020   -15643086.027 6 -11948583.73621        19.500           1.438
  20448462.840    -3362696.863 7  -2620281.35023        24.500           2.781
  23456470.668     -774243.154 5   -301380.20321        10.500           0.188
  19315929.793   -24812109.787 7 -19100570.52023        26.000           2.531
 91  7 11  4 34 59.9960000  0  5G 3G21G17G11G23
  22720629.059      405966.386 2                         4.000
  20893047.324   -15688364.019 6 -11983865.28521        19.750           1.375
  20452313.738    -3342454.071 7  -2604507.74023        25.500           2.719
  23444217.520     -838632.321 5   -351553.56821        11.000           0.250
  19315402.574   -24814873.942 7 -19102724.40722        25.250           2.469
 91  7 11  4 35 14.9960000  0  5G 3G21G17G11G23
  22730339.137      456994.283 2                         4.500
  20884445.574   -15733569.332 6 -12019090.19221        19.500           1.438
  20456180.168    -3322143.170 7  -2588681.06423        26.500           2.594
  23431969.496     -903000.776 5   -401710.74821        11.500           0.250
  19314894.254   -24817544.080 7 -19104805.02822        24.000           2.406
 91  7 11  4 35 29.9960000  0  5G 3G21G17G11G23
  22740059.027      508083.349 2                         4.500
  20875856.527   -15778701.543 6 -12054258.14521        18.750           1.469
  20460056.965    -3301763.918 7  -2572801.12523        26.500           2.781
  23419725.340     -967347.753 5   -451851.22321        11.750           0.156
  19314404.684   -24820119.945 7 -19106812.19523        24.250           2.531
 91  7 11  4 35 44.9960000  0  5G 3G21G17G11G23
  22749789.856      559233.251 2                         4.750
  20867282.129   -15823760.555 6 -12089369.05022        18.500           1.625
  20463946.371    -3281316.479 7  -2556868.04723        25.750           2.750
  23407483.699    -1031673.030 5   -501974.74721        11.500           0.219
  19313933.191   -24822601.934 7 -19108746.20822        24.250           2.469
 91  7 11  4 35 59.9960000  0  5G 3G21G17G11G23
  22759535.559      610444.803 2                         4.750
  20858721.777   -15868745.281 6 -12124422.08222        18.750           1.500
  20467851.621    -3260799.572 7  -2540880.84623        25.500           2.750
  23395245.871    -1095975.034 5   -552080.16621        11.500           0.313
  19313478.176   -24824989.001 7 -19110606.26522        25.000           2.469
 91  7 11  4 36 14.9960000  0  5G 3G21G17G11G23
  22769289.629      661715.609 2                         4.000
  20850175.606   -15913657.695 6 -12159418.77222        19.250           1.531
  20471769.113    -3240215.204 7  -2524841.07823        25.500           3.000
  23383014.121    -1160255.449 5   -602168.75621        11.250           0.375
  19313041.168   -24827283.257 7 -19112393.99423        24.750           2.563
 91  7 11  4 36 29.9960000  0  5G 3G21G17G11G23
  22779061.246      713047.814 2                         4.750
  20841642.316   -15958495.065 6 -12194356.99622        19.500           1.500
  20475698.949    -3219561.064 7  -2508746.93923        25.250           2.938
  23370786.707    -1224511.562 5   -652238.41221        11.000           0.281
  19312622.801   -24829482.507 7 -19114107.69623        24.500           2.625
 91  7 11  4 36 44.9960000  0  5G 3G21G17G11G23
  22788840.863      764441.464 2                         4.500
  20833125.527   -16003257.035 6 -12229236.44322        19.500           1.531
  20479643.957    -3198836.736 7  -2492598.11923        24.750           2.781
  23358564.152    -1288742.616 5   -702288.53321        10.750           0.375
  19312222.785   -24831586.334 7 -19115747.04423        25.500           2.563
 91  7 11  4 36 59.9960000  0  5G 3G21G17G11G23
  22798634.316      815892.871 2                         4.750
  20824617.887   -16047947.090 6 -12264059.83822        18.500           1.844
  20483599.449    -3178045.911 7  -2476397.47723        24.500           2.813
  23346344.106    -1352951.815 5   -752321.64321        10.250           0.313
  19311839.637   -24833598.360 7 -19117314.85022        26.000           2.469
 91  7 11  4 37 14.9960000  0  5G 3G21G17G11G23
  22808432.074      867400.564 2                         4.500
  20816129.152   -16092566.284 6 -12298828.02122        19.500           1.813
  20487568.012    -3157189.774 7  -2460145.94423        23.750           2.844
  23334128.324    -1417140.008 5   -802338.37521         9.750           0.406
  19311476.074   -24835520.058 7 -19118812.27423        27.000           2.594
 91  7 11  4 37 29.9960000  0  5G 3G21G17G11G23
  22818253.012      918967.237 3                         5.750
  20807653.871   -16137111.354 7 -12333538.45822        20.000           1.781
  20491550.496    -3136265.180 7  -2443841.06723        24.500           2.813
  23321923.559    -1481303.671 5   -852335.99621         9.750           0.438
  19311126.098   -24837348.435 7 -19120236.97623        25.250           2.531
 91  7 11  4 37 44.9960000  0  5G 3G21G17G11G23
  22828078.621      970593.052 4                         6.500
  20799192.895   -16181581.643 7 -12368190.61622        20.500           1.781
  20495545.301    -3115271.715 7  -2427482.51323        23.500           2.688
  23309716.988    -1545441.865 5   -902313.79321         9.000           0.406
  19310795.543   -24839082.607 7 -19121588.27423        24.750           2.563
 91  7 11  4 37 59.9960000  0  5G 3G21G17G11G23
  22837913.606     1022278.021 4                         6.750
  20790740.840   -16225976.902 6 -12402784.31522        19.750           1.656
  20499552.707    -3094208.920 7  -2411069.94923        24.000           2.688
  23297513.934    -1609554.164 5   -952271.37921         8.500           0.406
  19310483.301   -24840722.864 7 -19122866.40123        25.250           2.688
 91  7 11  4 38 14.9960000  0  5G 3G21G17G11G23
  22847757.074     1074021.418 3                         5.750
  20782307.621   -16270297.535 7 -12437319.87122        20.000           1.625
  20503573.832    -3073077.270 7  -2394603.72623        23.250           2.781
  23285317.262    -1673640.686 5  -1002208.89021         7.500           0.406
  19310190.363   -24842269.921 7 -19124071.90323        26.000           2.531
 91  7 11  4 38 29.9960000  0  5G 3G21G17G11G23
  22857612.762     1125822.972 3                         5.000
  20773888.434   -16314543.266 7 -12471797.04422        20.000           1.813
  20507608.551    -3051876.575 7  -2378083.69723        23.000           2.656
  23273127.309    -1737700.873 4  -1052125.89621         6.750           0.375
  19309913.051   -24843723.706 7 -19125204.70822        26.250           2.438
 91  7 11  4 38 44.9960000  0  5G 3G21G17G11G23
  22867480.090     1177677.606 2                         4.750
  20765482.121   -16358719.087 6 -12506219.73722        19.750           1.625
  20511655.918    -3030612.005 7  -2361513.90123        23.250           2.531
  23260941.496    -1801739.347 4  -1102025.96021         6.500           0.500
  19309652.809   -24845089.290 7 -19126268.79722        26.750           2.406
 91  7 11  4 38 59.9960000  0  5G 3G21G17G11G23
  22877353.738     1229593.721 2                         4.750
  20757091.613   -16402815.979 7 -12540580.93322        20.750           1.563
  20515714.684    -3009274.697 7  -2344887.43022        23.000           2.438
  23248761.051    -1865746.944 4  -1151901.96921         6.250           0.344
  19309413.168   -24846357.970 7 -19127257.38122        26.750           2.344
 91  7 11  4 39 14.9960000  0  5G 3G21G17G11G23
  22887247.606     1281569.185 3                         5.250
  20748713.207   -16446835.684 6 -12574881.99022        19.250           1.531
  20519789.309    -2987866.381 7  -2328205.62422        23.250           2.406
  23236582.566    -1929725.026 4  -1201754.98421         6.250           0.375
  19309189.129   -24847531.646 7 -19128171.92122        26.250           2.438
 91  7 11  4 39 29.9960000  0  5G 3G21G17G11G23
  22897148.332     1333599.572 3                         6.000
  20740351.316   -16490782.179 6 -12609125.98921        19.750           1.375
  20523875.949    -2966391.473 7  -2311471.92822        23.250           2.406
  23224413.856    -1993677.408 4  -1251587.97721         6.500           0.344
  19308982.301   -24848614.473 7 -19129015.68522        25.750           2.406
 91  7 11  4 39 44.9960000  0  5G 3G21G17G11G23
  22907066.027     1385687.191 3                         6.000
  20732002.895   -16534652.948 6 -12643310.99921        19.500           1.375
  20527975.668    -2944847.455 7  -2294684.37423        23.250           2.500
  23212248.027    -2057601.240 4  -1301398.72821         6.750           0.281
  19308795.496   -24849604.068 7 -19129786.79423        25.500           2.531
 91  7 11  4 39 59.9960000  0  5G 3G21G17G11G23
  22916992.035     1437836.247 3                         5.750
  20723671.316   -16578443.337 6 -12677433.35321        19.000           1.406
  20532089.223    -2923229.451 7  -2277839.17022        22.500           2.469
  23200092.152    -2121491.559 4  -1351183.35221         7.000           0.313
  19308623.137   -24850496.160 7 -19130481.92322        26.000           2.406
 91  7 11  4 40 14.9960000  0  5G 3G21G17G11G23
  22926923.473     1490040.803 3                         5.750
  20715351.566   -16622158.918 6 -12711497.40622        18.750           1.563
  20536215.152    -2901543.327 7  -2260940.89122        23.250           2.344
  23187936.770    -2185353.672 4  -1400946.01521         7.250           0.313
  19308470.965   -24851296.342 7 -19131105.43923        25.500           2.531
 91  7 11  4 40 29.9960000  0  5G 3G21G17G11G23
  22936861.004     1542300.676 3                         5.000
  20707047.996   -16665799.579 6 -12745503.09122        18.250           1.500
  20540355.059    -2879789.109 7  -2243989.55622        23.250           2.438
  23175791.207    -2249187.277 4  -1450686.45821         7.250           0.313
  19308336.551   -24852004.755 7 -19131657.45323        26.500           2.531
 91  7 11  4 40 44.9960000  0  5G 3G21G17G11G23
  22946819.934     1594619.167 3                         5.000
  20698757.191   -16709361.384 6 -12779447.33522        18.500           1.688
  20544509.660    -2857962.887 7  -2226982.11222        23.750           2.438
  23163653.176    -2312988.031 5  -1500401.30621         7.750           0.313
  19308219.223   -24852617.605 7 -19132134.99023        25.750           2.656
 91  7 11  4 40 59.9960000  0  5G 3G21G17G11G23
  22956789.027     1646991.812 3                         5.250
  20690482.356   -16752848.687 6 -12813333.53522        17.500           1.625
  20548676.145    -2836069.006 7  -2209921.95122        24.500           2.438
  23151519.324    -2376760.037 5  -1550093.74521         8.500           0.313
  19308120.145   -24853139.529 7 -19132541.68423        26.000           2.688
 91  7 11  4 41 14.9960000  0  5G 3G21G17G11G23
  22966765.856     1699418.305 3                         5.750
  20682218.934   -16796261.097 6 -12847161.36422        17.250           1.656
  20552853.465    -2814107.178 7  -2192808.83423        23.750           2.563
  23139389.160    -2440502.726 5  -1599763.30121         9.250           0.375
  19308037.996   -24853570.293 7 -19132877.33623        26.500           2.750
 91  7 11  4 41 29.9960000  0  5G 3G21G17G11G23
  22976751.879     1751893.509 4                         6.250
  20673969.809   -16839603.531 6 -12880934.66422        16.750           1.500
  20557046.676    -2792082.736 7  -2175646.93322        24.250           2.438
  23127264.715    -2504220.720 5  -1649413.66521         9.750           0.313
  19307973.363   -24853915.191 7 -19133146.08123        26.000           2.781
 91  7 11  4 41 44.9960000  0  5G 3G21G17G11G23
  22986744.035     1804421.195 3                         5.750
  20665737.020   -16882871.997 6 -12914650.32922        17.500           1.625
  20561249.785    -2769991.475 7  -2158432.96523        24.500           2.594
  23115147.277    -2567909.633 5  -1699041.36221        10.250           0.313
  19307925.121   -24854170.430 7 -19133344.97023        25.750           2.719
 91  7 11  4 41 59.9960000  0  4G21G17G11G23
  20657518.535   -16926062.584 6 -12948305.31821        18.250           1.469
  20565466.098    -2747829.657 7  -2141164.01923        24.000           2.563
  23103031.590    -2631565.426 5  -1748643.22421         9.750           0.375
  19307893.441   -24854332.219 7                        26.000
 91  7 11  4 42 14.9960000  0  4G21G17G11G23
  20649315.871   -16969177.816 6 -12981901.57722        19.750           1.563
  20569697.059    -2725599.975 7  -2123842.18922        23.500           2.406
  23090923.223    -2695190.311 5  -1798221.00621         9.500           0.219
  19307881.387   -24854403.335 7                        25.250
 91  7 11  4 42 29.9960000  0  4G21G17G11G23
  20641125.863   -17012218.398 6 -13015439.66322        19.750           1.531
  20573939.293    -2703303.086 7  -2106467.99522        23.250           2.250
  23078821.410    -2758784.544 5  -1847774.89721         9.500           0.250
  19307885.293   -24854384.599 7                        25.750
 91  7 11  4 42 44.9960000  0  4G21G17G11G23
  20632949.379   -17055183.829 6 -13048919.20222        19.750           1.563
  20578195.356    -2680938.770 7  -2089041.24622        23.250           2.156
  23066725.816    -2822347.603 5  -1897304.50521         9.750           0.281
  19307905.832   -24854275.825 7                        25.250
 91  7 11  4 42 59.9960000  0  4G21G17G11G23
  20624786.754   -17098075.532 6 -13082341.28522        19.750           1.719
  20582463.731    -2658508.587 7  -2071563.18522        24.000           2.219
  23054634.715    -2885880.457 5  -1946810.58621         9.500           0.344
  19307942.566   -24854078.582 7                        24.500
 91  7 11  4 43 14.9960000  0  4G21G17G11G23
  20616640.746   -17140890.285 7 -13115703.40922        20.250           1.875
  20586745.129    -2636009.479 7  -2054031.41922        23.750           2.313
  23042549.629    -2949379.649 5  -1996290.42521        10.000           0.375
  19307996.793   -24853789.820 7                        24.500
 91  7 11  4 43 29.9960000  0  4G21G17G11G23
  20608507.176   -17183628.064 6 -13149005.54922        19.250           1.813
  20591040.543    -2613441.221 7  -2036445.75522        24.250           2.250
  23030473.059    -3012844.837 5  -2045743.78021        10.000           0.375
  19308069.731   -24853409.856 7 -19132752.28923        25.000           2.656
 91  7 11  4 43 44.9960000  0  4G21G17G11G23
  20600386.902   -17226293.419 6 -13182251.25022        19.250           1.750
  20595346.043    -2590808.404 7  -2018809.80022        24.500           2.344
  23018405.184    -3076280.336 5  -2095173.97221        10.000           0.406
  19308158.051   -24852943.581 7 -19132388.95823        24.250           2.563
 91  7 11  4 43 59.9960000  0  4G21G17G11G23
  20592283.926   -17268884.824 7 -13215439.32322        20.250           1.813
  20599667.715    -2568109.636 7  -2001122.44522        24.250           2.281
  23006337.981    -3139684.406 5  -2144579.69521        10.000           0.563
  19308263.145   -24852389.457 7 -19131957.17023        25.000           2.500
 91  7 11  4 44 14.9960000  0  4G21G17G11G23
  20584193.856   -17311401.420 7 -13248569.12022        21.250           1.781
  20603998.434    -2545344.527 7  -1983383.39622        23.250           2.219
  22994280.699    -3203055.890 5  -2193959.99821        10.250           0.500
  19308388.606   -24851746.717 7 -19131456.33323        25.000           2.500
 91  7 11  4 44 29.9960000  0  4G21G17G11G23
  20576116.043   -17353842.052 7 -13281639.71122        20.750           1.750
  20608343.496    -2522511.649 7  -1965591.54622        23.750           2.125
  22982229.098    -3266393.194 5  -2243313.68121        10.500           0.563
  19308526.918   -24851014.629 7 -19130885.86823        25.250           2.500
 91  7 11  4 44 44.9960000  0  4G21G17G11G23
  20568054.738   -17396203.269 7 -13314648.43822        21.250           1.781
  20612701.309    -2499607.594 7  -1947744.22522        23.250           2.188
  22970181.098    -3329692.647 5  -2292637.86221        10.250           0.563
  19308682.395   -24850189.760 7 -19130243.10723        24.500           2.531
 91  7 11  4 44 59.9960000  0  4G21G17G11G23
  20560007.543   -17438487.404 7 -13347597.09622        20.250           1.750
  20617073.207    -2476635.030 7  -1929843.52222        24.750           2.125
  22958141.121    -3392956.372 5  -2341934.21821        10.250           0.531
  19308856.465   -24849274.734 7 -19129530.09222        24.500           2.469
 91  7 11  4 45 14.9960000  0  4G21G17G11G23
  20551976.176   -17480694.794 7 -13380485.95022        20.250           1.719
  20621458.004    -2453594.498 7  -1911889.84622        24.750           2.219
  22946108.996    -3456184.416 5  -2391202.75621        10.250           0.438
  19309048.637   -24848270.217 7 -19128747.33823        24.500           2.500
 91  7 11  4 45 29.9960000  0  4G21G17G11G23
  20543958.606   -17522827.011 7 -13413316.22122        20.500           1.844
  20625856.043    -2430487.578 7  -1893884.45422        24.500           2.156
  22934083.481    -3519378.118 5  -2440444.53821        10.250           0.500
  19309256.152   -24847178.055 7 -19127896.30122        25.000           2.469
 91  7 11  4 45 44.9960000  0  4G21G17G11G23
  20535957.145   -17564880.822 7 -13446085.39722        20.750           1.875
  20630265.348    -2407311.041 7  -1875824.81722        23.750           2.281
  22922068.512    -3582533.787 5  -2489656.69721        10.500           0.500
  19309480.621   -24845994.957 7 -19126974.39723        25.000           2.594
 91  7 11  4 45 59.9960000  0  4G21G17G11G23
  20527968.356   -17606859.937 7 -13478796.38522        21.000           1.875
  20634686.770    -2384068.612 7  -1857713.83922        24.250           2.219
  22910054.035    -3645654.787 5  -2538841.82921        10.000           0.469
  19309723.309   -24844724.791 7 -19125984.65323        25.250           2.500
 91  7 11  4 46 14.9960000  0  4G21G17G11G23
  20519995.035   -17648764.262 7 -13511449.08422        21.750           1.906
  20639123.465    -2360760.328 7  -1839551.53522        24.500           2.219
  22898051.566    -3708740.781 5  -2587999.70021         9.750           0.375
  19309979.840   -24843367.778 7 -19124927.23722        24.500           2.469
 91  7 11  4 46 29.9960000  0  4G21G17G11G23
  20512035.941   -17690591.242 7 -13544041.51522        22.000           1.781
  20643573.082    -2337383.915 7  -1821336.15222        25.000           2.094
  22886054.699    -3771789.054 5  -2637128.15021        10.000           0.344
  19310256.106   -24841921.504 7 -19123800.26523        24.500           2.531
 91  7 11  4 46 44.9960000  0  4G21G17G11G23
  20504090.613   -17732341.685 7 -13576574.31022        21.500           1.625
  20648032.527    -2313940.096 7  -1803068.24522        24.250           2.063
  22874062.902    -3834799.899 5  -2686227.45321        10.500           0.313
  19310547.613   -24840387.150 7 -19122604.66623        24.250           2.531
 91  7 11  4 46 59.9960000  0  4G21G17G11G23
  20496159.402   -17774015.905 7 -13609047.71222        20.500           1.781
  20652505.895    -2290429.139 7  -1784748.01522        22.500           2.031
  22862081.035    -3897773.249 5  -2735297.52221        11.500           0.469
  19310856.926   -24838765.181 7 -19121340.78923        25.750           2.625
 91  7 11  4 47 14.9960000  0  4G21G17G11G23
  20488243.473   -17815612.765 7 -13641460.83122        20.250           1.844
  20656993.449    -2266850.027 7  -1766374.67622        21.500           1.969
  22850105.168    -3960707.717 5  -2784337.32221        11.750           0.406
  19311183.106   -24837054.599 7 -19120007.85623        26.250           2.656
 91  7 11  4 47 29.9960000  0  4G21G17G11G23
  20480341.684   -17857133.062 7 -13673814.28722        20.000           1.844
  20661492.512    -2243203.761 7  -1747949.01522        21.250           1.969
  22838135.043    -4023603.987 5  -2833347.34021        11.750           0.406
  19311526.082   -24835256.500 7 -19118606.73823        26.500           2.688
 91  7 11  4 47 44.9960000  0  4G21G17G11G23
  20472457.316   -17898573.386 6 -13706105.42622        19.500           1.688
  20666006.504    -2219487.151 7  -1729468.53622        21.500           1.781
  22826176.426    -4086458.350 5  -2882324.71521        11.250           0.438
  19311883.934   -24833367.572 7 -19117134.84323        26.500           2.813
 91  7 11  4 47 59.9960000  0  4G21G17G11G23
  20464584.816   -17939938.778 6 -13738338.17122        19.500           1.750
  20670530.879    -2195705.180 7  -1710937.13322        22.000           1.906
  22814220.660    -4149275.489 5  -2931273.08021        11.250           0.438
  19312259.840   -24831393.066 7 -19115596.26523        26.000           2.781
 91  7 11  4 48 14.9960000  0  4G21G17G11G23
  20456729.684   -17981226.228 7 -13770510.19922        20.000           1.750
  20675070.324    -2171854.910 7  -1692352.50522        22.500           1.938
  22802273.863    -4212052.104 5  -2980189.86121        11.250           0.531
  19312652.254   -24829330.224 7 -19113988.84723        25.500           2.813
 91  7 11  4 48 29.9960000  0  4G21G17G11G23
  20448886.863   -18022439.673 6 -13802624.55322        19.750           1.750
  20679621.090    -2147940.738 7  -1673718.08222        23.000           1.750
  22790334.113    -4274791.701 5  -3029077.80721        11.000           0.406
  19313061.395   -24827183.129 7 -19112315.77923        25.500           2.906
 91  7 11  4 48 44.9960000  0  4G21G17G11G23
  20441054.590   -18063580.229 6 -13834682.10622        19.750           1.875
  20684183.754    -2123963.731 7  -1655034.69322        22.500           1.813
  22778402.043    -4337495.286 5  -3077937.69121        11.250           0.438
  19313485.449   -24824953.248 7 -19110578.20123        25.250           2.969
 91  7 11  4 48 59.9960000  0  4G21G17G11G23
  20433243.324   -18104645.299 7 -13866680.84322        21.000           1.875
  20688758.410    -2099921.181 7  -1636300.24522        22.500           1.750
  22766477.020    -4400159.797 5  -3126767.13421        11.500           0.469
  19313922.449   -24822638.279 7 -19108774.32523        24.000           3.031
 91  7 11  4 49 14.9960000  0  4G21G17G11G23
  20425443.316   -18145634.250 7 -13898620.26122        21.250           1.938
  20693346.949    -2075812.593 7  -1617514.33422        22.250           1.750
  22754561.902    -4462784.280 5  -3175565.38321        11.500           0.406
  19314383.270   -24820237.476 7 -19106903.56723        24.500           2.938
 91  7 11  4 49 29.9960000  0  4G21G17G11G23
  20417656.262   -18186546.643 7 -13930500.02222        21.000           1.938
  20697948.809    -2051637.636 7  -1598676.71022        22.500           1.781
  22742654.090    -4525368.100 5  -3224331.94821        11.500           0.469
  19314856.785   -24817750.680 7 -19104965.79023        24.000           2.813
 91  7 11  4 49 44.9960000  0  4G21G17G11G23
  20409887.074   -18227381.533 7 -13962319.38522        21.500           1.875
  20702560.184    -2027395.467 7  -1579786.70622        21.250           1.781
  22730752.621    -4587910.078 5  -3273065.91021        11.500           0.469
  19315345.051   -24815177.197 7 -19102960.48123        24.250           2.813
 91  7 11  4 49 59.9960000  0  4G21G17G11G23
  20402130.465   -18268140.514 7 -13994079.60522        21.500           1.969
  20707185.824    -2003087.776 7  -1560845.64422        20.750           1.781
  22718856.496    -4650411.443 5  -3321768.21921        11.000           0.406
  19315851.332   -24812518.942 7 -19100889.11823        24.500           2.875
 91  7 11  4 50 14.9960000  0  4G21G17G11G23
  20394388.348   -18308825.213 7 -14025781.94622        21.250           1.906
  20711824.402    -1978716.406 7  -1541854.97322        21.000           1.875
  22706971.160    -4712873.599 5  -3370439.98921        11.500           0.375
  19316372.488   -24809777.732 7 -19098753.10023        24.250           2.813
 91  7 11  4 50 29.9960000  0  4G21G17G11G23
  20386660.809   -18349428.797 7 -14057421.08822        22.000           1.938
  20716475.996    -1954274.545 7  -1522809.36822        21.250           1.781
  22695094.715    -4775289.249 5  -3419075.50521        11.750           0.531
  19316910.106   -24806946.780 7 -19096547.15723        24.000           2.781
 91  7 11  4 50 44.9960000  0  4G21G17G11G23
  20378948.848   -18389955.055 7 -14088999.98022        21.500           1.969
  20721140.129    -1929766.051 7  -1503711.85222        22.000           1.938
  22683225.574    -4837661.883 6  -3467677.51921        12.250           0.375
  19317466.262   -24804030.161 7 -19094274.45723        24.000           2.750
 91  7 11  4 50 59.9960000  0  4G21G17G11G23
  20371252.340   -18430400.551 7 -14120515.92922        20.750           1.906
  20725816.809    -1905187.994 7  -1484560.11522        22.250           1.813
  22671364.379    -4899987.802 5  -3516243.13421        11.750           0.469
  19318037.246   -24801024.757 7 -19091932.57923        24.500           2.813
 91  7 11  4 51 14.9960000  0  4G21G17G11G23
  20363571.262   -18470770.690 7 -14151973.16422        20.750           1.906
  20730505.676    -1880545.110 7  -1465357.86122        22.250           1.813
  22659511.660    -4962271.937 5  -3564776.18821        11.750           0.438
  19318625.402   -24797935.988 7 -19089525.74223        25.000           2.719
 91  7 11  4 51 29.9960000  0  4G21G17G11G23
  20355903.832   -18511064.033 7 -14183370.56522        21.250           1.906
  20735206.965    -1855836.243 7  -1446104.19722        21.750           1.688
  22647666.637    -5024512.582 5  -3613275.35921        11.750           0.375
  19319229.660   -24794762.585 7 -19087052.96023        25.000           2.688
 91  7 11  4 51 44.9960000  0  4G21G17G11G23
  20348252.199   -18551278.552 7 -14214706.53222        21.750           2.094
  20739921.957    -1831059.592 7  -1426797.71622        21.750           1.875
  22635831.590    -5086707.632 5  -3661738.99821        11.750           0.438
  19319850.363   -24791502.865 7 -19084512.91423        25.000           2.594
 91  7 11  4 51 59.9960000  0  4G21G17G11G23
  20340612.457   -18591412.742 7 -14245979.90522        20.750           2.031
  20744649.777    -1806213.718 7  -1407437.30322        21.500           1.906
  22624005.512    -5148855.043 5  -3710165.51721        11.500           0.500
  19320486.645   -24788155.451 7 -19081904.53923        25.250           2.625
 91  7 11  4 52 14.9960000  0  4G21G17G11G23
  20332990.309   -18631472.836 7 -14277195.53322        20.750           2.063
  20749390.231    -1781305.040 7  -1388027.93222        21.250           2.063
  22612184.590    -5210960.870 5  -3758559.62621        11.750           0.438
  19321139.137   -24784726.936 7 -19079232.95923        25.500           2.594
 91  7 11  4 52 29.9960000  0  4G21G17G11G23
  20325381.746   -18671459.462 7 -14308353.92122        20.500           2.031
  20754141.660    -1756334.088 7  -1368570.04322        21.500           1.938
  22600375.277    -5273025.338 6  -3806921.51421        12.250           0.406
  19321806.559   -24781218.009 7 -19076498.71923        25.250           2.656
 91  7 11  4 52 44.9960000  0  4G21G17G11G23
  20317785.691   -18711361.615 6 -14339446.49022        19.250           1.969
  20758907.316    -1731290.153 7  -1349055.28322        22.000           1.969
  22588578.941    -5335036.985 6  -3855242.24421        13.000           0.344
  19322493.504   -24777617.840 7 -19073693.38923        26.000           2.750
 91  7 11  4 52 59.9960000  0  4G21G17G11G23
  20310207.621   -18751186.708 6 -14370479.03222        18.750           1.969
  20763686.582    -1706180.709 7  -1329489.47722        23.000           1.969
  22576786.551    -5397002.985 6  -3903527.41821        13.000           0.406
  19323194.363   -24773934.029 7 -19070822.88223        26.000           2.813
 91  7 11  4 53 14.9960000  0  4G21G17G11G23
  20302646.543   -18790939.079 7 -14401454.89722        20.250           2.000
  20768477.090    -1681010.007 7  -1309875.94722        24.000           1.969
  22565002.934    -5458927.320 6  -3951780.11421        13.000           0.406
  19323909.379   -24770170.975 7 -19067890.63123        25.000           2.781
 91  7 11  4 53 29.9960000  0  4G21G17G11G23
  20295095.004   -18830614.569 7 -14432370.85822        20.250           2.000
  20773276.613    -1655773.891 7  -1290211.44522        22.750           2.063
  22553226.051    -5520805.564 6  -3999996.88521        13.000           0.469
  19324641.856   -24766324.841 7 -19064893.63723        25.250           2.875
 91  7 11  4 53 44.9960000  0  4G21G17G11G23
  20287558.785   -18870214.026 6 -14463227.56222        19.750           2.031
  20778091.191    -1630473.585 7  -1270496.93722        22.750           2.063
  22541462.176    -5582638.500 6  -4048178.37021        13.250           0.531
  19325389.598   -24762396.754 7 -19061832.78723        25.250           2.844
 91  7 11  4 53 59.9960000  0  4G21G17G11G23
  20280038.652   -18909735.114 6 -14494023.20522        19.750           2.063
  20782919.676    -1605106.955 7  -1250730.73522        22.500           1.906
  22529704.293    -5644423.348 6  -4096322.34721        13.000           0.438
  19326153.371   -24758384.745 7 -19058706.54523        25.750           2.813
 91  7 11  4 54 14.9960000  0  4G21G17G11G23
  20272531.988   -18949181.579 6 -14524760.69322        19.750           2.000
  20787757.816    -1579677.363 7  -1230915.47622        22.250           1.969
  22517954.129    -5706163.300 6  -4144431.37721        12.250           0.344
  19326931.527   -24754292.451 7 -19055517.73723        26.250           2.813
 91  7 11  4 54 29.9960000  0  4G21G17G11G23
  20265041.887   -18988549.304 7 -14555436.83122        20.000           1.969
  20792609.223    -1554180.950 7  -1211048.14122        22.250           1.969
  22506215.668    -5767853.883 6  -4192501.92021        12.000           0.438
  19327726.121   -24750116.042 7 -19052263.38623        26.500           2.750
 91  7 11  4 54 44.9960000  0  4G21G17G11G23
  20257564.668   -19027840.917 7 -14586053.65322        20.000           2.156
  20797474.098    -1528620.532 7  -1191130.93422        21.750           2.000
  22494483.090    -5829497.391 6  -4240535.77921        12.250           0.406
  19328536.004   -24745858.203 7 -19048945.58423        25.750           2.844
 91  7 11  4 54 59.9960000  0  4G21G17G11G23
  20250099.645   -19067055.495 7 -14616610.46322        20.250           2.156
  20802348.488    -1502995.633 7  -1171163.48022        21.000           2.031
  22482757.777    -5891092.839 6  -4288532.20321        12.250           0.500
  19329362.816   -24741518.474 7 -19045563.98223        26.250           2.844
 91  7 11  4 55 14.9960000  0  4G21G17G11G23
  20242654.723   -19106193.055 7 -14647107.25322        21.250           2.063
  20807239.074    -1477306.026 7  -1151145.61422        21.750           2.156
  22471049.066    -5952639.762 5  -4336490.81521        11.750           0.500
  19330203.949   -24737096.919 7 -19042118.60723        25.750           2.813
 91  7 11  4 55 29.9960000  0  4G21G17G11G23
  20235222.191   -19145250.321 7 -14677541.45922        22.250           2.031
  20812139.676    -1451548.419 7  -1131074.75022        21.250           2.156
  22459347.863    -6014134.554 5  -4384408.80221        11.750           0.594
  19331061.043   -24732590.593 7 -19038607.18023        25.250           2.719
 91  7 11  4 55 44.9960000  0  4G21G17G11G23
  20227802.777   -19184230.308 7 -14707915.45322        22.000           1.813
  20817054.840    -1425725.997 7  -1110953.38922        21.250           2.156
  22447654.184    -6075579.954 6  -4432288.30121        12.000           0.625
  19331933.520   -24728002.684 7 -19035032.17823        25.000           2.719
 91  7 11  4 55 59.9960000  0  4G21G17G11G23
  20220401.520   -19223131.745 7 -14738228.24422        22.000           2.000
  20821981.168    -1399837.562 7  -1090780.58522        21.500           2.063
  22435974.731    -6136974.305 5  -4480128.02221        11.750           0.531
  19332822.879   -24723332.147 7 -19031392.78923        25.250           2.781
 91  7 11  4 56 14.9960000  0  4G21G17G11G23
  20213014.723   -19261952.649 7 -14768478.28122        22.250           1.938
  20826921.410    -1373881.288 7  -1070554.91522        21.000           1.969
  22424299.582    -6198315.242 5  -4527926.11621        10.750           0.594
  19333728.106   -24718577.056 7 -19027687.51723        25.500           2.719
 91  7 11  4 56 29.9950000  0  4G21G17G11G23
  20205641.241   -19300695.402 7 -14798667.42922        22.250           2.031
  20831869.733    -1347863.861 7  -1050281.59422        20.000           2.031
  22412634.648    -6259603.416 5  -4575683.08921        10.000           0.594
  19334646.780   -24713742.884 7 -19023920.63023        25.500           2.781
 91  7 11  4 56 44.9950000  0  4G21G17G11G23
  20198281.773   -19339365.357 7 -14828799.84922        21.750           2.094
  20836834.327    -1321781.967 6  -1029958.05022        19.750           1.844
  22400978.538    -6320846.803 5  -4623405.15921         9.750           0.594
  19335581.804   -24708829.279 7 -19020091.84623        26.000           2.750
 91  7 11  4 56 59.9950000  0  4G21G17G11G23
  20190937.023   -19377958.199 7 -14858872.17722        21.250           2.250
  20841808.898    -1295636.025 7  -1009584.57722        20.000           1.844
  22389333.710    -6382039.382 5  -4671087.65121        10.500           0.594
  19336532.616   -24703835.137 7 -19016200.30423        26.250           2.875
 91  7 11  4 57 14.9950000  0  4G21G17G11G23
  20183609.233   -19416469.222 7 -14888880.75122        21.250           2.281
  20846799.835    -1269421.268 7   -989157.49222        21.250           1.781
  22377700.249    -6443175.970 5  -4718726.51821        10.500           0.594
  19337500.007   -24698756.017 7 -19012242.54423        25.750           2.906
 91  7 11  4 57 29.9950000  0  4G21G17G11G23
  20176295.148   -19454906.209 7 -14918831.62522        21.250           2.219
  20851799.351    -1243145.469 7   -968682.84322        21.250           1.750
  22366078.960    -6504264.060 5  -4766327.59121        11.250           0.688
  19338480.929   -24693599.980 7 -19008224.85823        25.500           2.969
 91  7 11  4 57 44.9950000  0  4G21G17G11G23
  20168995.780   -19493266.232 7 -14948722.53322        21.000           2.156
  20856811.304    -1216806.088 7   -948158.65322        20.750           1.781
  22354462.882    -6565300.438 5  -4813888.37221        11.500           0.625
  19339477.390   -24688364.337 7 -19004145.13523        26.000           3.031
 91  7 11  4 57 59.9950000  0  4G21G17G11G23
  20161711.007   -19531549.731 7 -14978553.81522        21.250           2.219
  20861834.515    -1190403.398 7   -927585.13522        20.750           1.875
  22342857.405    -6626285.244 5  -4861408.95521        11.250           0.625
  19340487.858   -24683049.460 7 -19000003.65723        25.500           3.000
 91  7 11  4 58 14.9950000  0  4G21G17G11G23
  20154440.358   -19569756.323 7 -15008325.17322        21.250           2.188
  20866870.804    -1163937.310 7   -906962.20222        20.500           1.719
  22331263.812    -6687217.759 5  -4908888.78821        11.750           0.688
  19341514.624   -24677655.220 7 -18995800.35623        26.000           3.094
 91  7 11  4 58 29.9950000  0  4G21G17G11G23
  20147184.124   -19607885.882 7 -15038036.50522        21.750           2.219
  20871919.218    -1137407.745 7   -886289.80722        20.000           1.656
  22319679.530    -6748097.480 6  -4956327.49121        12.250           0.625
  19342555.921   -24672181.887 7 -18991535.41923        25.750           3.125
 91  7 11  4 58 44.9950000  0  4G21G17G11G23
  20139946.155   -19645938.862 7 -15067688.15722        22.500           2.219
  20876977.054    -1110815.022 6   -865568.20922        19.250           1.781
  22308104.366    -6808924.309 6  -5003724.98821        12.750           0.719
  19343612.257   -24666629.858 7 -18987209.16023        25.250           3.000
 91  7 11  4 58 59.9950000  0  4G21G17G11G23
  20132716.601   -19683911.377 7 -15097277.10922        21.000           2.219
  20882052.538    -1084155.654 6   -844794.68722        19.750           1.813
  22296539.077    -6869694.147 6  -5051078.06721        13.250           0.813
  19344684.569   -24660995.481 7 -18982818.72523        25.500           2.938
 91  7 11  4 59 14.9950000  0  4G21G17G11G23
  20125505.163   -19721808.365 7 -15126807.21722        21.250           2.281
  20887135.249    -1057434.511 6   -823973.02022        19.000           1.688
  22284984.937    -6930411.562 6  -5098390.30921        13.250           0.656
  19345770.398   -24655283.832 7 -18978368.08123        25.000           2.969
 91  7 11  4 59 29.9950000  0  4G21G17G11G23
  20118307.523   -19759628.028 7 -15156277.07922        20.500           2.344
  20892232.437    -1030649.512 6   -803101.59222        19.500           1.750
  22273441.351    -6991074.377 6  -5145660.00121        13.250           0.656
  19346874.116   -24649493.504 7 -18973856.12723        25.750           2.906
 91  7 11  4 59 44.9950000  0  4G21G17G11G23
  20111127.015   -19797369.437 7 -15185685.94922        20.750           2.219
  20897343.030    -1003800.307 6   -782180.13222        19.750           1.844
  22261905.265    -7051681.424 6  -5192886.23421        12.750           0.688
  19347990.757   -24643623.620 7 -18969282.19423        26.000           2.938
 91  7 11  4 59 59.9950000  0  4G21G17G11G23
  20103960.710   -19835035.676 7 -15215036.24622        22.000           2.281
  20902464.663     -976889.967 7   -761211.04122        20.250           1.813
  22250384.265    -7112235.314 6  -5240071.04921        13.250           0.531
  19349121.905   -24637677.511 7 -18964648.85823        25.750           3.031
 91  7 11  5  0 14.9950000  0  4G21G17G11G23
  20096806.812   -19872621.666 7 -15244324.01522        21.500           2.281
  20907599.882     -949913.328 7   -740190.29022        20.250           2.000
  22238875.116    -7172730.666 6  -5287210.25121        13.750           0.625
  19350268.726   -24631650.321 7 -18959952.34123        25.000           2.969
 91  7 11  5  0 29.9950000  0  4G21G17G11G23
  20089669.741   -19910127.857 7 -15273549.60222        21.750           2.250
  20912743.882     -922871.196 6   -719118.50122        18.750           2.031
  22227374.030    -7233167.851 6  -5334304.12421        14.000           0.594
  19351431.983   -24625542.748 7 -18955193.19023        26.250           2.969
 91  7 11  5  0 44.9950000  0  4G21G17G11G23
  20082547.812   -19947556.971 7 -15302715.12822        21.750           2.219
  20917902.015     -895766.399 6   -697997.87822        18.750           2.031
  22215883.257    -7293549.068 6  -5381354.39121        14.250           0.531
  19352608.749   -24619357.665 7 -18950373.63723        26.500           3.219
 91  7 11  5  0 59.9950000  0  4G21G17G11G23
  20075438.507   -19984905.343 7 -15331817.74322        20.500           2.219
  20923073.952     -868595.237 6   -676825.53822        19.000           2.125
  22204405.069    -7353870.366 6  -5428357.97221        14.500           0.563
  19353800.624   -24613091.616 7 -18945491.00223        26.750           3.188
 91  7 11  5  1 14.9950000  0  4G21G17G11G23
  20068346.655   -20022174.617 7 -15360858.72522        22.000           2.250
  20928254.710     -841359.473 6   -655602.86922        19.000           2.250
  22192937.577    -7414132.899 6  -5475315.76621        14.750           0.750
  19355008.398   -24606746.315 7 -18940546.61423        26.750           3.188
 91  7 11  5  1 29.9950000  0  4G21G17G11G23
  20061270.687   -20059366.216 7 -15389839.17322        21.250           2.219
  20933450.351     -814060.248 6   -634330.74922        18.750           2.094
  22181479.155    -7474337.703 6  -5522228.55921        14.250           0.656
  19356231.116   -24600323.315 7 -18935541.67523        26.000           3.219
 91  7 11  5  1 44.9950000  0  4G21G17G11G23
  20054208.343   -20096482.135 7 -15418760.63722        21.750           2.250
  20938656.319     -786699.961 6   -613011.06122        19.250           2.063
  22170034.765    -7534486.403 6  -5569097.64021        14.500           0.625
  19357467.882   -24593824.819 7 -18930477.91223        25.750           3.188
 91  7 11  5  1 59.9950000  0  4G21G17G11G23
  20047160.452   -20133519.622 7 -15447620.99222        22.250           2.375
  20943874.429     -759275.961 6   -591641.71522        19.250           2.094
  22158601.960    -7594576.027 6  -5615920.68421        14.500           0.656
  19358719.187   -24587248.295 7 -18925353.33623        25.250           3.125
 91  7 11  5  2 14.9950000  0  4G21G17G11G23
  20040129.038   -20170475.694 7 -15476417.92422        23.000           2.250
  20949107.179     -731785.597 6   -570220.65922        19.250           1.969
  22147178.569    -7654603.362 6  -5662695.19921        14.500           0.688
  19359985.460   -24580591.131 7 -18920165.93123        25.250           2.938
 91  7 11  5  2 29.9950000  0  4G21G17G11G23
  20033111.015   -20207347.748 7 -15505149.38322        22.750           2.281
  20954351.452     -704226.035 6   -548745.67522        19.750           1.906
  22135768.773    -7714565.303 6  -5709418.75221        15.250           0.594
  19361269.327   -24573850.745 7 -18914913.68023        25.750           3.125
 91  7 11  5  2 44.9950000  0  4G21G17G11G23
  20026110.632   -20244138.641 7 -15533817.59922        22.750           2.281
  20959609.718     -676600.034 6   -527218.92022        19.750           1.938
  22124369.413    -7774464.277 6  -5756093.22721        15.000           0.719
  19362566.858   -24567029.904 7 -18909598.72923        25.500           3.063
 91  7 11  5  2 59.9950000  0  4G21G17G11G23
  20019122.163   -20280855.105 7 -15562427.81722        22.000           2.375
  20964876.062     -648914.591 6   -505645.84322        19.500           1.781
  22112980.937    -7834306.789 6  -5802723.72121        14.500           0.813
  19363878.398   -24560135.838 7 -18904226.72823        25.000           3.031
 91  7 11  5  3 14.9950000  0  4G21G17G11G23
  20012150.952   -20317491.833 7 -15590975.91022        22.000           2.094
  20970157.280     -621164.615 6   -484022.48522        19.500           1.719
  22101605.788    -7894087.220 6  -5849305.84121        14.250           0.688
  19365204.679   -24553163.506 7 -18898793.72723        25.000           2.781
 91  7 11  5  3 29.9950000  0  4G21G17G11G23
  20005193.093   -20354045.523 7 -15619459.28822        22.000           2.313
  20975449.429     -593346.964 6   -462346.39622        19.750           1.625
  22090240.304    -7953801.801 6  -5895836.64521        13.500           0.688
  19366547.648   -24546109.860 7 -18893297.36823        25.250           2.875
 91  7 11  5  3 44.9950000  0  4G21G17G11G23
  19998253.530   -20390524.931 7 -15647884.79022        22.000           2.125
  20980756.468     -565470.543 7   -440624.50222        21.000           1.688
  22078889.554    -8013459.001 6  -5942322.74621        13.250           0.688
  19367902.780   -24538983.685 7 -18887744.49923        24.750           2.875
 91  7 11  5  3 59.9950000  0  4G21G17G11G23
  19991325.171   -20426930.354 7 -15676252.63622        22.250           2.156
  20986071.327     -537535.391 7   -418856.84922        21.500           1.594
  22067547.554    -8073058.698 6  -5988764.04121        13.000           0.625
  19369272.608   -24531785.492 7 -18882135.50923        24.750           2.875
 91  7 11  5  4 14.9950000  0  4G21G17G11G23
  19984411.085   -20463259.495 7 -15704561.04822        22.250           2.219
  20991400.765     -509539.488 7   -397041.84922        21.750           1.656
  22056217.616    -8132598.261 6  -6035158.47321        12.500           0.719
  19370656.562   -24524513.053 7 -18876468.67223        25.250           3.000
 91  7 11  5  4 29.9950000  0  4G21G17G11G23
  19977514.999   -20499507.362 7 -15732806.12822        22.500           2.156
  20996738.640     -481477.801 7   -375175.59422        21.000           1.719
  22044898.648    -8192072.285 6  -6081501.83521        12.250           0.656
  19372056.187   -24517161.712 7 -18870740.34223        25.750           3.094
 91  7 11  5  4 44.9950000  0  4G21G17G11G23
  19970632.358   -20535673.873 7 -15760987.80822        22.000           2.281
  21002092.499     -453350.208 7   -353257.98722        21.250           1.719
  22033595.085    -8251480.295 6  -6127793.75821        12.250           0.625
  19373468.616   -24509731.590 7 -18864950.62823        25.250           3.063
 91  7 11  5  4 59.9950000  0  4G21G17G11G23
  19963766.444   -20571760.985 7 -15789107.62422        22.250           2.313
  21007456.593     -425158.986 7   -331290.80522        20.500           1.656
  22022300.554    -8310823.957 5  -6174035.52721        11.750           0.656
  19374897.171   -24502224.831 7 -18859101.20123        25.500           3.094
 91  7 11  5  5 14.9950000  0  4G21G17G11G23
  19956912.108   -20607768.462 7 -15817165.37922        21.750           2.375
  21012833.132     -396904.031 7   -309273.95722        20.250           1.688
  22011019.358    -8370102.752 6  -6220226.76821        12.250           0.594
  19376340.655   -24494641.211 7 -18853191.87923        25.750           3.063
 91  7 11  5  5 29.9950000  0  4G21G17G11G23
  19950078.757   -20643694.134 7 -15845159.39822        22.250           2.313
  21018223.585     -368583.470 7   -287205.99122        20.250           1.625
  21999754.155    -8429314.199 6  -6266365.55421        12.750           0.531
  19377799.304   -24486978.893 7 -18847221.23123        25.500           3.125
 91  7 11  5  5 44.9950000  0  4G21G17G11G23
  19943255.632   -20679540.620 7 -15873091.70922        22.000           2.406
  21023623.523     -340199.669 6   -265088.74622        19.750           1.750
  21988498.077    -8488460.555 6  -6312453.58921        12.500           0.563
  19379270.624   -24479240.692 7 -18841191.45923        25.500           3.156
